GFSCGP_2pvu_pres_003.txt.gz
Presure
197 202 212 212 204 214 196 192 194 196 198 193 189 186 186 185 180 186 198 195 168 191 195 198 200 194 193 196 198 189 194 195 196 193 194 190 192 198 197 193 198 195 205 191
198 199 199 207 193 202 199 203 196 198 189 191 188 190 192 183 181 186 184 188 187 185 180 183 186 196 197 192 188 182 189 197 183 189 189 193 191 193 204 202 203 198 199 204
201 196 206 199 197 202 201 197 197 177 188 188 186 184 179 179 170 170 159 172 180 186 178 170 175 175 182 184 182 194 192 187 194 194 192 192 194 185 193 201 197 199 194 195
195 198 203 194 198 204 203 199 189 191 187 184 188 174 168 169 180 164 159 176 166 177 180 162 176 173 183 182 169 167 174 182 193 193 196 194 192 196 192 200 197 194 194 196
195 202 197 198 199 199 201 199 139 191 187 181 186 180 168 162 185 165 168 168 153 151 174 173 177 187 165 176 183 168 181 187 182 190 191 197 199 196 202 194 197 199 199 195
199 206 192 203 207 201 196 198 186 195 194 198 182 174 148 183 171 176 168 164 166 177 166 165 170 183 187 170 173 177 181 182 182 185 186 193 195 200 198 193 195 196 210 206
191 184 204 197 202 204 194 188 189 183 195 186 180 174 162 165 205 164 188 165 161 171 156 163 168 175 164 167 169 179 193 179 181 156 185 193 193 191 189 190 200 200 206 212
184 194 199 190 191 201 201 196 185 188 176 178 190 176 182 166 123 121 158 173 132 141 175 178 171 164 176 176 173 185 184 177 181 186 191 190 193 194 196 195 206 208 199 211
181 180 186 190 193 194 201 194 189 181 191 173 135 154 179 129 116 113 179 168 162 133 179 161 159 179 181 182 172 165 171 182 195 193 196 195 189 197 197 203 205 204 211 215
188 179 184 190 185 189 191 194 200 187 177 176 173 162 117 173 107 169 150 156 156 127 185 121 124 179 183 188 189 181 175 181 190 200 197 199 193 194 197 207 211 212 216 220
180 184 181 173 190 193 193 188 201 205 204 192 166 139 140 112 145 106 158 123 162 167 175 164 182 179 182 195 197 177 184 178 196 194 196 197 193 208 195 209 220 217 223 232
185 171 178 167 181 184 188 194 199 148 96 188 179 163 122 169 171 168 156 164 182 129 140 177 120 188 189 190 194 199 186 186 195 194 193 197 176 210 191 211 217 225 226 243
184 178 173 176 166 186 189 191 177 173 164 165 172 169 176 160 177 181 173 184 115 173 133 192 193 192 191 184 196 200 197 190 202 194 179 199 195 221 207 221 227 237 246 277
179 187 182 184 191 190 176 176 155 184 174 173 121 172 171 181 177 182 184 131 186 178 188 191 191 188 182 195 200 202 194 201 198 214 202 194 207 223 233 235 249 265 290 286
183 183 187 181 184 174 180 178 177 177 156 171 167 183 177 185 179 162 126 175 179 187 182 181 191 189 196 200 197 196 194 193 218 223 209 198 235 240 256 264 268 269 330 329
171 169 185 177 179 183 175 177 170 177 167 162 168 181 176 143 172 120 175 140 189 182 185 191 194 192 198 202 197 208 224 225 235 242 241 255 258 275 309 262 339 341 367 309
178 176 174 111 174 176 172 173 175 161 179 175 151 157 138 166 169 185 202 186 185 200 192 190 200 202 218 221 224 229 242 246 250 242 285 342 336 340 342 336 329 315 301 294
175 168 168 180 177 170 143 176 171 170 155 154 127 155 150 187 141 178 195 205 191 189 206 197 210 213 224 232 245 259 263 269 257 356 349 345 341 336 322 311 296 276 303 364
187 181 176 174 166 167 172 179 159 157 166 186 127 105 125 180 159 200 204 211 215 194 167 213 222 234 241 234 245 261 287 335 332 316 309 329 315 305 294 261 267 380 366 353
180 174 182 142 184 183 173 131 181 188 178 140 106 157 182 198 189 200 209 195 205 209 239 241 236 231 263 291 309 347 334 302 292 266 299 293 289 266 258 386 306 367 353 349
167 176 175 175 130 152 150 185 144 142 136 104 147 133 198 190 214 207 214 203 231 223 220 244 241 265 299 348 341 307 294 304 298 276 268 277 260 274 370 368 368 354 351 352
177 186 175 147 143 153 162 180 130 144 201 150 211 200 225 212 236 240 228 228 240 244 285 269 277 275 334 290 296 301 255 249 293 292 277 267 346 390 378 364 356 353 351 343
187 187 193 100 91 198 130 102 101 105 116 210 200 210 225 219 212 221 220 240 233 260 277 271 284 334 277 277 268 278 284 273 270 258 277 291 385 375 361 357 353 344 345 322
193 190 186 131 140 94 181 181 197 147 209 215 206 226 229 220 222 219 247 256 248 275 267 284 320 264 280 277 274 267 259 284 275 300 389 382 374 359 359 344 345 349 328 312
197 150 164 222 153 221 207 159 195 203 207 203 216 217 217 217 191 241 239 245 270 275 283 312 271 258 259 261 260 269 293 326 406 386 376 372 359 359 338 338 342 341 337 312
105 103 161 204 119 186 207 192 206 202 217 221 208 216 222 229 246 254 245 257 277 285 304 253 257 267 258 276 287 297 420 404 382 372 369 361 358 340 337 344 346 315 313 318

GFSCGP_2pvu_pres_006.txt.gz
Presure
211 206 210 224 208 208 207 198 200 197 197 192 193 188 143 182 184 188 185 190 189 185 188 179 173 174 173 174 179 185 184 178 168 173 183 182 185 193 198 197 195 196 190 194
208 207 207 208 208 209 202 201 200 197 197 189 189 194 192 191 188 185 180 166 170 165 168 170 181 177 182 178 189 189 180 176 165 172 182 186 184 185 186 186 196 197 194 194
201 206 205 205 198 201 202 201 196 202 197 188 153 190 190 182 182 173 189 171 160 177 162 181 184 185 173 172 173 186 175 172 171 173 190 189 178 183 175 180 185 192 187 191
200 198 200 207 200 197 205 207 198 204 198 191 188 190 186 201 135 180 190 181 179 166 169 165 172 177 178 180 180 169 182 169 178 179 162 177 176 189 183 183 184 184 186 188
197 206 207 203 193 197 206 213 202 205 195 195 193 199 186 188 179 186 178 164 176 163 158 163 143 168 178 181 183 178 165 165 172 180 177 176 143 168 177 182 198 197 194 199
202 209 214 193 201 209 204 208 202 197 193 192 199 201 166 182 137 137 185 157 130 115 163 127 149 169 166 169 171 170 171 153 134 177 153 179 178 180 174 164 175 136 178 178
200 208 199 203 203 196 207 206 207 199 189 184 188 188 172 168 160 195 184 119 145 159 171 166 152 161 171 133 156 149 173 171 180 181 183 188 193 187 182 178 183 199 194 202
197 149 190 180 193 193 194 191 193 201 191 187 180 191 186 179 177 149 175 112 128 153 181 151 150 134 179 132 166 175 175 188 189 186 187 194 204 209 210 197 201 204 206 196
202 188 194 185 187 184 190 194 194 133 191 199 195 190 151 154 172 145 115 175 175 178 165 174 177 182 184 187 181 169 182 194 202 199 191 183 199 205 211 204 205 197 201 203
185 179 181 194 187 180 177 180 188 193 194 196 191 153 170 113 187 105 177 179 177 144 155 181 171 130 123 124 188 191 191 182 193 192 199 202 204 204 203 197 208 226 233 239
181 187 181 183 182 172 178 180 186 188 194 165 134 168 128 90 156 175 172 176 183 169 178 159 108 180 181 161 185 180 192 193 199 197 204 205 199 213 227 237 246 249 267 257
183 185 187 187 178 183 176 185 188 195 193 192 168 156 165 172 175 165 165 187 183 185 181 134 175 171 200 207 206 193 206 206 200 201 203 210 225 239 248 240 238 253 265 286
187 186 183 172 185 181 188 192 192 185 177 184 174 182 187 177 168 166 165 151 177 171 123 188 139 183 183 186 192 185 215 206 217 213 193 246 244 229 257 326 351 334 327 331
189 192 147 186 188 187 175 182 181 164 182 180 183 177 178 181 166 172 157 166 183 185 176 180 151 155 183 192 195 217 217 217 225 240 237 261 247 369 353 325 302 295 302 295
181 161 188 181 179 179 179 180 182 182 172 174 173 171 169 166 162 168 176 178 176 159 177 187 187 191 200 192 201 226 232 228 246 253 283 289 339 292 301 292 306 298 292 291
179 172 174 168 169 175 173 178 170 174 166 165 167 151 178 178 179 158 173 189 181 180 188 191 206 207 200 214 225 224 232 260 251 265 306 301 289 281 305 280 264 267 269 268
174 175 170 176 160 169 168 175 169 175 179 178 170 179 184 132 113 179 184 133 172 188 201 211 221 206 218 227 244 241 209 250 287 309 281 278 266 279 274 272 303 297 285 268
178 179 178 170 189 175 185 180 168 157 175 181 177 148 182 104 186 198 191 197 205 210 213 209 210 215 226 229 205 270 266 286 305 330 264 267 271 283 279 252 279 273 273 393
183 178 175 164 182 179 184 186 182 174 174 178 142 125 137 194 198 175 209 190 205 212 206 213 225 221 222 246 278 258 289 301 307 267 255 258 261 260 279 269 396 385 398 390
188 188 187 181 170 173 171 188 134 173 123 176 116 109 133 202 194 210 204 153 210 204 219 238 233 247 244 276 259 271 299 311 279 252 251 275 262 324 386 419 407 396 387 371
191 180 158 182 170 176 187 190 176 127 197 197 159 104 101 217 173 208 169 211 219 229 235 227 260 251 272 276 279 303 298 267 257 254 266 420 399 425 413 400 388 382 369 360
175 177 182 187 195 158 157 138 136 103 203 101 170 210 215 211 202 213 221 219 209 229 225 251 243 241 283 278 299 312 292 283 276 362 411 404 421 409 395 381 376 368 359 348
174 185 193 195 166 127 130 86 175 118 214 215 196 219 216 211 212 220 218 226 228 236 245 237 254 292 287 303 299 274 277 301 367 408 428 419 403 385 373 372 362 355 349 335
193 188 195 115 130 104 80 152 203 204 208 192 217 213 207 212 213 222 222 233 240 264 163 254 296 296 309 294 276 302 376 375 434 420 407 391 376 373 365 355 346 339 339 348
106 120 111 162 128 125 132 132 147 153 211 210 203 214 212 223 223 232 232 255 263 252 294 306 299 296 278 292 334 377 396 425 409 394 380 373 372 356 346 342 344 351 348 329
100 93 216 113 193 104 202 127 129 148 208 216 230 228 237 240 244 235 260 250 248 299 303 305 305 284 302 386 374 410 420 400 381 375 369 360 348 343 347 348 335 318 308 314

GFSCGP_2pvu_pres_009.txt.gz
Presure
230 222 220 225 213 217 202 217 206 209 198 200 197 196 194 196 188 190 190 187 183 188 178 170 176 167 186 183 183 180 179 186 173 173 173 172 171 179 175 176 173 173 183 182
219 213 207 207 221 215 213 205 203 196 198 196 195 194 190 190 189 188 188 181 176 186 178 165 162 164 161 177 122 180 173 173 177 179 175 176 182 165 183 184 191 160 168 172
205 214 208 218 213 212 209 206 209 205 196 194 199 196 189 189 191 191 183 169 185 181 184 177 177 171 166 180 159 175 171 170 176 190 185 181 168 180 182 183 191 187 190 192
206 213 205 190 208 209 205 204 208 206 206 194 196 196 195 186 178 196 198 165 196 171 181 158 128 169 171 170 148 159 148 169 185 124 160 175 162 157 179 183 190 164 189 159
204 204 205 196 210 209 197 203 202 209 214 205 202 206 194 192 196 169 178 169 185 154 168 132 170 161 165 157 142 141 137 168 136 113 190 178 173 150 182 181 190 194 175 195
205 203 198 204 210 203 214 193 209 218 210 206 203 199 185 180 168 173 169 156 177 177 110 116 136 149 166 153 153 141 160 149 176 177 184 188 185 185 185 183 194 199 197 196
213 206 198 203 201 208 191 196 200 194 193 196 161 203 204 201 187 183 176 167 167 169 119 136 143 177 172 178 152 179 148 129 124 123 183 177 180 191 202 193 191 229 227 234
212 201 209 191 189 188 187 192 187 190 185 184 188 194 196 198 204 200 204 129 116 171 112 174 136 176 175 172 179 181 182 130 163 181 182 185 182 187 200 221 220 235 234 235
210 196 210 180 183 193 191 186 179 178 179 182 182 178 195 204 200 198 152 109 187 180 172 173 175 165 183 115 184 130 117 183 184 178 193 192 206 205 215 217 233 235 239 277
208 174 189 184 190 190 188 188 182 183 180 125 187 190 105 167 156 119 147 180 184 179 173 172 157 175 171 133 151 166 158 190 190 194 198 207 218 220 228 233 240 274 274 281
188 188 180 186 186 186 185 184 188 187 187 199 201 185 79 184 182 183 183 155 177 174 160 179 166 171 121 132 156 182 201 201 196 202 207 222 221 231 227 227 267 271 292 326
185 186 186 182 183 180 183 178 187 192 187 185 182 176 176 190 188 179 176 175 162 154 174 187 190 123 189 185 198 194 195 207 210 215 222 217 245 253 252 275 286 299 321 294
142 193 190 183 183 183 193 195 184 175 180 172 167 167 174 170 164 152 179 181 186 187 177 124 172 191 195 186 193 196 211 211 210 221 215 230 264 256 280 264 297 309 307 266
191 193 194 197 195 163 187 187 182 175 165 166 169 169 161 175 173 179 178 180 119 146 160 185 164 190 169 205 183 174 213 193 223 217 235 253 249 293 295 301 308 308 271 257
179 180 184 171 178 177 176 176 173 172 187 183 178 179 177 178 181 171 178 98 103 191 192 192 199 203 208 208 211 162 209 218 222 236 257 255 299 303 307 320 270 270 256 253
185 185 186 174 177 180 174 177 183 178 178 182 185 181 176 177 180 159 107 196 155 133 197 204 206 210 150 214 204 204 218 225 249 270 274 309 309 320 295 287 285 298 263 268
191 158 158 183 175 180 183 187 188 186 180 175 174 140 151 145 185 112 198 176 122 213 207 205 179 209 188 212 208 238 240 251 280 259 309 317 315 292 283 285 369 384 421 397
167 180 186 172 178 179 186 187 186 182 151 175 154 136 197 171 156 115 107 116 204 213 191 180 201 210 222 235 253 248 255 281 279 314 326 317 281 286 322 393 394 402 418 418
184 159 169 181 181 188 120 169 168 171 178 192 187 93 196 199 205 203 186 202 209 206 191 218 215 230 230 238 253 272 271 299 317 320 306 284 308 384 391 413 430 421 414 403
186 179 178 185 175 181 179 176 156 200 153 177 135 117 199 205 170 209 202 190 200 210 218 226 222 237 228 241 268 262 308 320 323 276 293 336 397 389 433 428 419 408 394 378
178 177 176 178 175 175 192 190 192 123 196 133 118 142 213 188 205 211 208 215 209 220 222 232 227 231 242 257 290 288 316 296 273 322 378 395 408 428 415 402 392 376 370 366
181 172 181 173 184 191 192 166 176 152 143 183 188 124 126 140 211 212 214 212 224 217 224 228 229 243 278 274 309 321 286 286 380 398 385 413 415 397 382 375 368 363 352 344
186 182 166 192 160 165 115 135 96 96 196 222 213 189 131 127 212 217 217 224 218 226 225 236 242 298 297 308 328 277 305 407 394 385 411 406 386 379 371 361 348 340 337 340
174 167 198 200 135 103 180 203 123 154 219 205 211 181 202 140 166 206 227 223 226 227 239 249 315 313 316 303 279 328 396 384 385 413 396 385 374 360 349 346 345 355 350 336
178 150 106 112 101 91 111 169 89 137 163 197 201 205 200 215 222 224 225 235 231 247 239 311 319 321 276 299 395 394 382 373 400 387 378 365 350 345 349 353 344 331 316 306
127 109 156 84 129 174 200 175 205 199 201 205 205 210 215 228 227 226 256 259 245 279 304 322 305 278 338 396 390 376 403 396 382 370 358 343 343 351 344 333 319 338 330 327

GFSCGP_2pvu_pres_012.txt.gz
Presure
138 142 232 231 229 220 237 223 224 221 214 205 212 200 201 196 198 193 194 199 191 190 171 188 191 192 195 189 177 172 177 163 174 171 160 158 169 173 174 188 191 189 169 165
215 219 217 222 227 212 207 224 216 213 207 208 201 203 197 197 195 190 186 186 171 195 193 183 185 176 176 151 123 149 172 173 165 145 150 144 139 137 167 168 184 191 161 187
213 222 223 214 204 212 208 216 200 205 206 210 210 204 196 193 195 195 195 189 189 185 165 171 182 201 181 189 166 149 158 183 176 168 137 132 178 129 141 122 136 184 183 165
217 221 209 207 209 197 213 214 215 208 206 205 215 209 204 196 197 186 189 199 185 169 168 130 174 190 171 122 145 172 180 173 173 138 127 172 141 127 157 141 185 181 183 186
222 213 207 212 214 205 192 214 211 212 216 216 214 212 196 200 197 193 181 176 176 181 167 181 172 177 181 104 131 170 169 172 164 128 177 177 167 141 181 188 191 178 187 189
231 212 207 203 198 189 209 214 212 196 202 196 197 196 198 198 199 203 196 185 148 196 187 118 108 125 165 171 171 172 173 163 170 170 111 144 166 182 189 186 196 210 215 225
234 229 211 206 199 197 217 204 194 202 192 182 187 191 193 195 195 191 189 193 194 154 195 122 182 187 118 179 170 172 162 126 132 117 165 146 138 185 207 200 218 219 210 212
252 230 225 207 191 198 179 183 195 186 185 182 178 187 193 205 199 198 198 132 189 179 141 142 159 182 182 174 166 171 161 183 126 184 189 189 209 209 216 201 216 198 183 224
242 232 234 215 190 192 182 186 193 194 183 186 190 193 207 105 183 140 184 181 189 158 153 178 175 172 172 171 182 186 185 129 138 185 205 213 214 211 163 148 205 209 237 264
221 218 216 186 189 173 184 186 189 186 186 187 186 184 192 177 162 174 178 152 174 175 156 177 178 184 154 137 109 182 187 193 205 201 207 208 211 187 225 234 236 268 269 282
211 187 188 191 189 187 189 187 188 188 192 188 179 182 163 176 173 175 174 165 185 179 176 181 184 129 185 167 125 206 204 207 203 205 209 202 162 206 245 257 269 263 266 311
197 195 194 195 191 189 193 189 198 162 183 167 172 167 172 166 182 159 176 174 172 175 177 102 186 185 200 209 209 208 204 195 220 218 197 223 234 238 250 257 290 270 305 310
189 203 197 196 197 196 197 175 179 176 176 170 169 177 179 173 176 180 179 181 175 181 126 198 183 198 202 183 196 195 201 190 151 199 229 236 235 238 251 278 305 310 324 309
190 198 191 190 181 176 186 167 178 175 172 171 179 178 185 181 178 179 177 177 118 191 97 195 154 201 125 202 207 211 211 193 225 229 237 229 238 261 281 307 316 309 277 273
176 174 167 174 180 180 178 176 178 177 174 164 182 181 172 150 172 180 128 192 128 196 113 183 206 180 193 210 210 215 224 228 229 225 230 239 260 312 315 328 298 271 319 345
178 181 183 152 193 180 173 187 186 180 180 189 182 178 182 176 179 99 191 196 197 210 200 195 202 190 206 209 218 225 226 233 234 250 250 262 315 324 301 278 314 345 406 416
186 184 181 183 173 191 187 184 177 178 177 182 174 171 141 185 94 154 172 190 164 204 195 205 203 202 205 225 233 228 236 234 261 261 291 320 314 281 294 331 364 400 401 428
185 184 184 178 185 163 178 183 178 181 173 173 181 186 195 196 156 186 198 164 135 204 208 203 202 210 220 221 224 225 238 269 286 298 319 298 274 319 343 411 400 425 426 413
186 188 196 181 172 181 177 176 181 181 176 184 194 197 201 157 196 194 191 127 127 127 148 176 216 206 223 224 232 258 278 293 311 319 277 275 333 401 405 409 420 405 390 378
190 185 177 176 178 181 191 178 189 190 181 191 192 113 185 190 202 145 207 202 133 144 205 144 214 226 225 235 291 295 275 316 323 274 292 360 411 397 387 410 392 378 370 362
181 178 192 175 186 183 158 196 182 201 173 151 101 191 191 180 190 210 205 213 203 216 213 224 215 225 248 289 297 277 319 293 281 336 433 411 393 415 395 383 371 358 346 341
181 186 188 189 178 164 197 195 204 119 108 193 193 188 205 201 209 205 209 205 215 213 215 219 228 255 267 311 303 305 302 277 399 421 405 393 406 388 380 365 350 341 345 352
189 193 190 194 183 160 188 194 198 183 107 195 197 178 204 204 207 214 208 219 215 209 225 229 244 256 294 306 306 292 285 423 413 397 397 398 383 372 358 347 342 348 350 341
179 186 203 192 188 148 125 203 108 183 196 207 201 210 203 204 206 217 226 211 218 224 237 245 265 312 309 316 294 309 432 410 398 403 393 380 369 351 345 340 349 349 337 331
161 193 201 113 118 110 195 182 195 90 140 196 142 203 202 201 209 225 214 225 229 237 249 312 309 317 320 279 314 430 413 398 396 389 375 362 349 341 339 351 344 332 340 334
194 199 193 170 94 96 140 194 200 198 198 192 202 202 200 213 227 214 222 239 240 252 298 316 326 299 270 356 426 414 395 381 385 367 360 347 338 339 358 336 331 335 413 447

GFSCGP_2pvu_pres_015.txt.gz
Presure
221 137 222 133 220 134 229 219 238 222 208 219 213 216 209 209 201 203 197 198 197 194 188 192 180 182 182 183 170 196 198 183 189 165 167 153 166 172 146 162 136 120 115 135
231 237 147 199 150 220 223 204 215 210 217 219 212 210 208 201 201 198 193 191 193 191 192 189 188 197 136 200 172 175 103 182 133 140 135 165 178 174 164 177 177 150 115 168
133 205 190 215 223 221 208 208 206 211 199 217 209 206 212 216 215 211 208 201 201 202 198 195 194 193 187 190 141 98 121 186 182 139 184 173 171 157 166 158 187 153 175 170
214 186 225 139 213 212 208 205 206 188 218 215 213 217 221 219 214 206 203 202 203 196 196 137 200 204 209 124 115 137 177 188 186 186 186 179 155 177 182 166 187 180 181 126
242 223 224 217 218 220 205 206 197 212 222 209 199 205 203 196 196 193 189 191 189 190 126 132 192 188 183 177 165 170 180 180 177 160 178 180 186 184 181 185 189 194 201 206
232 235 220 219 218 211 209 194 200 219 206 197 211 193 188 165 178 185 190 199 194 189 178 181 181 185 173 183 163 170 171 174 168 185 183 182 163 155 195 195 201 208 215 208
237 243 237 220 219 218 216 213 198 188 184 196 191 191 125 196 195 190 188 182 181 182 169 180 179 178 174 173 172 178 129 111 142 186 185 185 196 203 211 214 212 203 184 220
256 241 238 249 226 219 218 202 206 181 183 188 197 191 194 198 181 184 180 171 170 175 171 170 171 182 181 177 176 181 130 177 144 123 197 203 204 203 204 197 229 232 229 237
251 243 238 247 236 230 192 192 187 186 187 189 187 198 199 178 79 171 172 180 177 178 174 178 179 179 182 118 135 171 194 194 194 207 201 202 199 206 224 225 215 168 238 246
227 249 221 217 246 196 189 195 189 190 186 185 192 179 104 168 175 172 185 185 182 183 181 176 167 114 181 191 195 197 192 209 205 139 201 198 219 219 217 221 229 249 259 270
211 201 197 198 196 194 194 195 194 175 193 178 174 181 169 177 178 180 180 183 178 171 176 170 174 133 190 154 125 126 147 201 198 202 212 199 205 225 221 227 255 277 269 270
195 191 190 204 210 204 211 201 186 187 167 182 181 175 171 179 175 181 183 175 171 171 187 112 113 114 189 202 209 209 202 208 216 213 212 212 220 216 255 262 288 290 271 284
186 185 184 185 185 193 174 180 173 174 177 179 177 181 180 174 182 172 173 170 166 186 193 196 170 187 202 192 202 207 200 213 209 206 211 211 214 234 266 283 302 284 306 321
198 199 192 174 174 182 185 176 193 169 173 175 179 169 140 180 179 177 169 176 92 196 193 191 185 197 204 176 198 200 214 208 211 210 214 213 232 255 295 302 288 315 301 276
185 182 188 186 182 190 182 187 179 185 187 184 175 172 176 175 176 180 177 196 195 119 191 188 198 144 114 127 133 135 198 208 212 211 216 234 298 310 301 307 310 296 280 410
179 179 185 182 187 184 184 193 146 185 190 182 177 169 177 178 189 186 198 165 196 192 186 188 150 117 124 127 191 214 213 211 215 221 248 302 316 310 313 318 285 324 438 415
185 182 179 188 186 186 190 189 188 177 178 176 185 181 183 190 186 193 109 128 120 187 191 203 200 199 203 211 213 204 221 217 242 243 317 312 317 319 298 307 457 427 398 404
198 205 193 189 193 189 186 185 179 179 182 185 183 188 200 194 182 144 100 125 192 192 199 202 197 206 210 214 222 214 230 241 262 267 320 322 303 272 317 429 412 401 415 402
199 177 175 173 177 178 181 169 183 183 189 171 187 182 195 118 140 188 189 195 194 197 199 205 207 213 216 223 222 221 257 258 273 329 324 273 291 422 420 411 409 402 391 378
179 179 180 183 191 198 198 186 190 180 185 179 186 185 106 201 188 185 194 194 203 209 211 208 223 233 224 223 256 261 279 304 328 323 280 318 436 425 407 407 393 383 372 356
206 193 192 185 189 191 186 177 190 192 195 166 185 136 198 149 189 199 208 205 207 215 203 226 214 225 254 258 272 318 311 325 329 288 326 437 419 406 401 390 373 362 353 350
177 183 184 190 188 182 179 188 167 199 168 175 194 116 157 167 170 202 203 212 209 214 222 215 242 251 263 306 314 315 326 326 283 338 432 413 397 393 384 367 356 351 351 357
186 188 183 193 186 193 198 189 198 191 193 116 183 185 202 209 199 213 214 209 218 227 222 260 269 262 318 315 311 330 301 276 346 422 410 393 390 377 364 352 348 354 355 336
181 191 188 196 200 190 191 99 183 99 103 206 203 205 211 207 211 214 212 215 233 259 265 277 326 317 305 294 330 276 294 398 413 404 394 388 375 361 350 346 356 346 337 336
183 198 193 143 185 198 196 190 109 157 196 202 197 96 209 217 212 231 252 257 313 305 335 321 313 312 328 296 273 316 426 407 391 389 381 373 365 352 344 353 343 337 333 386
192 153 158 75 149 194 192 132 106 198 200 190 204 200 214 210 231 250 258 274 323 327 317 321 326 298 271 287 337 421 398 386 378 377 377 360 351 346 348 339 333 328 357 445

GFSCGP_2pvu_pres_018.txt.gz
Presure
232 231 230 228 172 229 225 228 186 132 243 218 209 220 222 221 219 211 213 207 202 205 204 203 207 209 199 199 188 191 186 205 197 194 126 174 189 188 186 183 180 181 173 109
226 227 228 230 222 220 226 218 228 219 196 211 218 213 216 211 207 207 210 213 217 220 219 211 204 201 201 181 182 202 203 184 174 121 147 175 186 180 178 180 188 132 187 189
216 227 221 135 181 224 221 219 195 147 211 198 201 215 211 209 218 230 223 213 204 195 190 195 198 198 150 130 190 160 186 183 144 185 157 181 182 185 180 183 192 164 193 173
238 143 140 228 197 178 218 228 217 213 211 198 217 215 214 215 208 190 186 183 187 200 198 191 191 188 176 156 179 182 183 186 186 186 182 176 181 182 189 193 194 191 205 207
135 138 231 224 225 224 217 219 212 204 196 209 222 208 212 207 192 188 192 191 195 186 184 182 176 176 179 179 174 174 180 172 176 180 183 189 195 196 199 193 193 201 204 206
192 229 224 233 229 217 227 218 210 204 196 205 194 186 192 193 188 194 187 193 185 177 179 171 173 179 173 181 184 180 179 179 174 160 120 195 151 129 177 207 201 203 145 203
254 252 246 237 247 233 222 220 216 210 205 192 187 191 198 189 193 189 190 156 179 171 169 177 184 182 181 175 179 178 174 97 157 160 192 193 195 204 203 206 198 220 218 215
235 237 257 243 241 243 239 226 222 196 197 190 189 191 188 197 192 190 176 112 170 175 177 182 183 175 173 124 155 186 189 154 175 184 200 191 204 202 199 195 217 217 215 215
222 236 257 252 232 244 250 238 191 196 193 186 188 189 196 192 179 175 178 175 180 176 184 182 180 176 173 170 116 109 184 191 189 191 205 208 207 207 211 218 218 214 221 218
210 205 201 200 197 197 194 191 195 194 193 192 195 186 177 135 180 178 174 163 178 187 173 180 172 177 181 182 191 193 193 191 189 197 196 207 209 212 215 223 215 213 223 228
196 197 199 201 196 206 201 200 202 195 184 189 191 186 176 179 181 182 189 179 180 182 177 112 179 179 178 160 167 148 192 183 155 133 198 136 209 216 216 222 218 217 223 228
191 191 185 189 187 186 179 197 183 182 185 190 175 187 177 174 177 181 181 178 172 177 177 179 181 182 129 155 194 191 193 126 124 125 127 134 214 225 214 223 223 227 226 270
195 190 192 197 195 190 185 175 180 183 184 191 174 174 186 184 144 182 178 180 180 174 180 187 196 195 189 183 189 193 194 168 141 211 203 216 219 219 221 230 228 261 317 317
188 185 182 183 178 185 190 185 191 186 177 182 183 179 189 185 177 171 180 178 171 177 188 107 198 186 185 189 195 198 199 206 206 206 221 217 219 228 248 258 293 326 332 339
189 186 187 185 182 182 183 181 194 187 165 190 185 182 175 177 174 178 179 182 182 127 96 196 194 188 189 187 200 198 207 211 210 220 230 217 229 269 272 324 321 343 333 293
185 187 190 192 188 190 205 199 198 203 197 181 177 171 183 181 183 185 181 186 179 102 190 189 189 191 196 202 203 213 214 223 224 237 228 266 277 331 326 322 339 293 368 430
195 201 203 204 190 195 185 187 181 188 184 178 118 185 187 183 183 186 201 168 194 195 188 193 186 200 200 204 215 217 225 233 246 313 291 321 331 316 340 322 281 443 420 403
199 196 194 193 199 189 194 187 178 185 187 187 189 183 180 183 198 148 141 119 161 194 188 195 201 204 213 215 222 233 249 292 339 344 332 321 328 340 287 353 431 413 398 396
206 209 211 182 188 198 196 186 183 186 190 186 184 178 192 195 192 116 184 180 187 191 200 201 203 218 224 230 240 260 349 345 331 323 329 339 288 284 425 422 406 397 391 374
200 205 203 212 180 174 181 195 181 181 187 181 194 194 184 185 134 108 191 186 187 203 203 210 222 234 240 244 290 272 281 324 270 275 276 283 326 427 413 400 393 387 371 361
180 184 186 180 162 184 186 191 175 187 187 202 197 193 162 135 149 191 192 207 207 210 214 227 243 271 251 300 327 289 334 339 306 274 276 339 420 403 396 387 386 374 359 350
192 194 190 195 182 195 192 189 194 197 199 195 193 193 195 196 199 197 205 211 205 224 236 270 293 262 312 269 340 344 293 259 273 303 418 416 398 387 381 386 374 359 351 358
188 191 190 196 193 180 195 197 190 197 113 183 191 141 108 204 200 211 212 216 226 248 274 319 335 348 261 283 272 284 285 293 328 429 412 393 380 376 376 374 359 350 356 338
184 188 180 180 129 196 190 196 188 133 193 203 207 198 199 204 219 223 212 258 275 289 340 347 338 270 273 281 282 281 316 402 425 406 386 380 395 372 368 358 349 356 337 330
189 195 183 187 193 188 83 134 196 205 207 197 196 199 110 201 213 215 262 230 267 286 341 285 256 267 291 290 308 340 432 418 400 381 420 416 376 368 360 347 349 339 330 319
189 188 192 194 114 184 191 193 200 201 194 190 203 211 209 203 234 246 258 262 261 268 279 258 274 284 282 324 432 426 409 398 439 453 396 382 369 362 348 343 341 326 321 345

GFSCGP_2pvu_pres_021.txt.gz
Presure
201 222 226 246 239 237 236 234 234 237 245 230 236 230 135 220 174 222 216 213 212 221 225 227 221 206 198 202 205 203 195 194 143 142 185 188 185 178 174 180 181 183 182 189
224 142 148 151 152 206 232 226 226 238 200 237 195 221 218 221 216 221 212 212 224 223 200 192 196 204 206 195 190 184 183 184 183 184 181 185 189 186 183 184 188 196 204 205
143 149 180 232 225 239 235 227 230 227 227 218 220 216 206 216 222 212 208 223 194 194 190 207 199 195 185 182 179 172 182 186 183 189 185 189 188 185 186 191 204 203 198 209
207 221 231 235 234 225 229 152 184 223 225 212 216 208 213 218 217 216 211 189 192 196 201 196 193 183 182 181 178 191 189 186 182 181 181 184 192 188 199 200 189 193 196 139
226 228 226 237 220 133 134 134 224 221 223 210 204 204 212 214 195 197 193 192 192 192 200 190 181 183 172 183 186 187 184 181 181 136 186 182 191 144 191 196 114 191 158 194
236 246 238 141 170 170 219 223 211 223 215 209 202 195 196 199 192 204 193 188 195 199 191 183 180 175 176 183 183 180 181 174 165 179 123 140 114 192 186 186 184 188 194 203
244 231 234 246 255 235 234 239 231 227 220 219 207 205 198 191 197 190 193 192 194 196 182 181 164 179 175 187 174 178 177 110 173 181 97 191 193 189 189 192 191 197 200 205
232 238 239 255 251 240 242 244 241 234 225 221 198 206 193 183 191 190 190 191 187 181 185 175 182 173 179 177 174 180 180 113 183 194 194 165 185 189 193 135 127 126 131 211
216 216 217 232 243 249 236 240 239 236 220 189 197 195 197 196 190 182 179 178 172 181 185 186 172 175 87 175 177 179 187 192 184 126 195 186 189 185 120 137 208 217 223 219
211 212 209 202 199 200 198 199 196 195 193 191 195 196 189 193 189 181 180 180 180 182 186 179 176 174 181 180 180 198 189 110 176 198 197 187 191 191 205 214 220 224 236 235
199 199 192 195 196 192 196 197 203 188 201 195 188 189 187 194 189 181 176 180 188 184 178 172 173 185 181 180 183 183 118 194 199 189 192 193 173 211 214 226 238 238 238 244
193 192 193 194 192 196 189 187 187 184 182 185 185 191 187 189 182 185 190 186 175 174 183 178 181 182 184 185 113 178 192 195 192 198 198 203 210 226 233 240 244 244 251 259
188 188 186 190 187 201 192 189 183 182 186 185 186 184 185 185 193 187 183 179 181 173 181 181 184 108 119 189 190 199 200 190 190 191 207 215 226 238 243 248 253 279 349 327
189 187 188 184 183 182 183 180 177 183 182 177 193 191 192 193 181 175 179 182 176 179 182 180 187 121 148 193 198 189 194 192 208 213 228 235 250 255 255 305 281 255 323 307
187 185 189 186 187 206 195 195 193 187 207 204 196 182 175 175 178 186 185 183 185 179 173 113 102 108 177 188 191 194 198 204 226 230 249 251 270 358 295 329 359 308 282 269
188 192 192 192 197 202 208 199 211 204 206 191 186 184 178 180 185 186 186 186 131 180 107 105 196 197 196 197 198 204 222 225 252 260 347 365 368 283 290 284 298 301 320 408
191 190 191 187 200 203 195 199 196 191 194 189 183 185 184 182 181 184 150 180 190 161 197 197 190 196 198 209 203 224 236 243 302 308 345 281 272 286 292 299 315 333 427 411
193 186 189 203 201 201 184 188 193 183 181 176 177 185 187 181 178 194 195 192 147 144 194 197 192 194 214 202 218 238 239 268 296 287 266 258 289 294 308 325 395 420 402 392
186 192 203 196 191 194 194 194 190 180 174 100 174 180 191 186 193 195 194 200 185 195 193 196 211 215 210 227 244 240 271 265 295 284 288 300 309 321 337 433 417 394 385 382
197 182 206 185 208 184 177 178 179 187 196 176 184 180 182 186 179 186 170 198 116 194 207 214 213 230 241 242 240 253 271 308 308 303 309 317 336 430 419 406 390 380 389 380
194 191 208 203 163 190 185 191 203 186 178 180 178 117 156 191 195 190 198 111 202 210 213 215 225 231 208 286 271 292 322 311 306 315 327 386 425 415 399 382 393 398 379 368
194 202 207 209 183 172 174 191 183 195 185 181 192 197 194 197 195 197 199 208 196 213 225 222 240 262 275 273 306 330 317 317 325 340 428 418 399 392 391 431 408 381 368 355
201 198 216 182 186 167 186 187 182 183 189 100 191 198 204 198 197 200 206 217 218 224 245 255 260 273 284 319 335 323 330 333 429 430 409 399 429 438 446 406 377 367 350 351
195 208 188 180 179 179 176 187 172 197 201 198 202 200 199 200 205 210 227 217 236 244 235 238 262 268 348 339 337 339 351 442 423 410 485 477 471 386 366 377 365 353 350 334
199 174 169 175 188 185 189 191 191 202 195 193 203 192 202 208 207 213 215 216 234 235 268 248 271 290 327 347 344 451 436 417 471 440 390 376 375 374 375 364 351 345 339 327
195 177 191 185 188 193 189 194 202 200 196 199 196 203 213 211 216 225 214 241 247 268 251 261 281 348 355 345 445 428 426 451 397 391 440 414 404 378 360 351 342 340 324 322

GFSCGP_2pvu_pres_024.txt.gz
Presure
233 230 229 225 228 230 229 254 253 226 214 223 233 239 230 232 237 226 230 231 218 222 223 231 218 205 200 193 208 211 198 193 190 187 191 193 184 184 183 176 176 180 185 192
230 229 232 227 224 228 242 240 227 171 210 234 234 237 230 229 225 210 161 219 228 221 226 201 201 190 197 212 203 199 191 190 184 188 189 186 188 185 185 182 189 185 148 184
187 228 228 245 238 204 145 154 239 232 224 226 231 225 182 146 225 215 222 221 221 220 199 200 191 195 198 203 195 188 184 183 183 193 184 183 185 183 168 191 192 162 200 133
223 212 220 152 148 150 228 235 228 231 229 228 139 191 216 216 218 218 226 214 219 203 194 192 195 203 208 198 189 182 188 182 182 190 184 183 187 188 147 102 187 135 195 195
216 155 231 230 230 231 232 229 227 227 225 144 226 227 212 203 207 215 208 214 198 193 194 195 190 204 201 182 184 184 187 181 179 181 181 182 182 183 186 191 189 195 193 190
225 225 243 244 242 234 233 229 195 225 223 213 223 214 227 212 197 209 192 196 197 192 188 199 202 193 178 189 186 191 183 182 181 184 187 184 115 104 111 142 196 186 157 137
225 245 232 230 236 252 256 245 237 238 241 234 223 220 222 207 212 188 200 193 190 190 194 196 184 182 185 184 189 182 179 179 180 187 168 184 186 118 192 188 184 203 187 209
235 237 242 245 253 253 250 237 236 238 240 245 243 233 235 160 191 194 197 194 193 192 186 183 187 181 189 185 182 180 178 181 183 182 184 127 179 184 189 197 207 200 197 194
221 214 209 210 211 206 201 202 199 202 199 213 226 212 137 190 194 199 190 191 190 191 191 178 173 184 183 177 179 182 184 183 183 109 191 194 192 191 199 166 203 178 227 232
209 209 209 208 202 202 203 205 204 202 201 201 201 204 200 199 189 185 190 189 192 184 181 187 189 187 182 181 175 87 185 180 122 194 187 190 194 162 194 207 219 236 242 229
201 201 197 196 195 194 193 187 186 192 194 192 192 199 187 179 180 190 186 181 182 190 186 179 176 180 188 185 189 187 164 137 137 181 192 197 163 211 217 225 242 242 242 253
199 193 196 195 196 198 196 193 196 197 197 189 191 191 187 190 185 189 195 199 192 186 185 182 183 187 89 188 184 184 129 146 189 186 202 161 199 225 237 251 237 240 259 277
197 191 190 187 188 189 187 190 186 185 182 182 182 182 185 179 203 197 189 182 181 186 181 184 188 188 184 153 182 104 192 194 202 195 213 218 225 230 242 247 255 284 277 307
193 189 189 191 189 189 192 188 187 186 187 190 196 194 194 200 187 181 187 185 180 184 182 179 181 181 183 97 193 195 198 193 204 210 228 224 247 241 259 293 314 303 318 317
189 187 187 189 188 187 185 201 199 211 201 204 203 203 195 189 179 185 180 174 193 187 186 182 181 119 108 117 188 184 204 188 218 224 230 246 266 261 272 346 333 327 333 335
189 190 190 190 191 194 194 196 198 210 214 187 193 191 191 185 181 179 161 170 176 179 186 194 98 196 124 194 199 209 177 217 233 247 252 251 265 318 347 338 338 336 340 429
197 193 188 193 193 195 196 203 204 202 204 196 196 194 190 187 186 187 182 178 184 177 183 184 185 196 198 131 211 223 214 226 249 245 259 270 266 350 343 339 341 377 426 412
186 193 187 185 195 191 187 196 209 196 210 191 173 176 184 185 184 183 181 133 180 186 195 192 140 196 195 207 216 220 224 243 249 277 278 306 352 343 344 388 435 414 399 394
182 180 193 191 190 195 181 193 199 203 202 167 191 176 177 183 136 192 184 188 191 188 185 200 195 208 214 220 222 232 263 255 278 265 266 336 323 349 424 422 416 405 420 431
180 189 197 188 182 187 182 195 202 206 189 169 176 165 179 181 181 184 183 195 193 198 199 207 210 215 216 235 246 255 245 274 284 336 334 333 425 421 413 407 457 462 448 412
190 186 184 189 166 193 198 193 212 192 186 178 180 170 94 131 179 192 196 195 198 207 214 208 221 225 237 247 252 242 285 304 342 323 340 440 423 404 460 457 435 426 370 384
210 216 213 181 169 195 204 203 191 184 185 178 175 176 170 191 196 193 202 204 207 217 211 219 235 229 223 246 241 248 266 316 328 423 443 424 471 441 386 371 373 370 383 362
215 212 218 192 188 200 200 203 184 163 163 172 178 193 203 205 200 196 202 213 217 217 232 236 226 239 197 242 245 309 329 351 456 440 475 444 398 380 433 403 400 383 360 354
218 215 214 196 195 201 206 186 174 172 183 192 203 198 202 202 197 208 206 215 218 234 222 233 241 203 244 244 279 263 363 455 500 466 419 394 501 445 418 402 378 360 351 350
118 212 214 201 198 198 186 175 183 188 188 197 200 201 203 199 211 203 216 214 206 228 236 239 253 244 250 285 299 372 480 493 451 410 392 385 443 416 391 372 358 348 348 334
190 197 200 210 195 188 150 168 191 186 189 193 204 205 201 209 201 217 214 210 225 229 235 251 230 255 239 298 332 477 481 440 406 381 380 436 408 380 356 350 349 351 337 320

GFSCGP_2pvu_pres_027.txt.gz
Presure
231 237 246 228 222 219 232 236 239 237 238 231 226 227 223 222 223 219 249 234 222 241 222 232 225 208 229 219 216 204 206 198 215 194 202 192 182 184 189 187 188 184 187 188
233 230 236 235 233 235 234 239 248 241 239 210 238 225 146 174 234 228 228 228 132 218 229 214 222 223 200 211 196 200 201 204 212 203 192 183 183 188 187 186 185 192 194 190
179 202 229 233 227 222 219 212 219 228 180 144 188 227 222 225 228 183 187 195 224 220 217 227 217 226 205 202 194 201 199 205 209 183 190 182 189 192 188 185 191 192 175 110
212 228 225 224 222 223 219 234 207 149 206 227 225 224 222 222 156 215 210 212 215 213 216 217 216 198 204 196 193 203 205 191 183 190 184 193 194 190 187 190 189 187 193 194
198 218 218 217 219 217 226 224 235 231 231 226 229 231 217 222 216 216 217 215 208 203 210 204 196 199 198 194 200 199 183 183 188 175 191 189 175 190 185 191 185 185 199 136
219 218 219 217 161 241 245 242 238 237 231 231 233 233 238 239 219 207 209 207 209 212 191 192 191 190 193 196 194 184 191 180 188 190 189 183 184 188 188 155 182 186 195 179
218 223 244 232 236 249 240 257 259 255 243 238 243 253 263 275 271 239 208 206 203 205 208 196 198 197 191 187 190 186 184 194 194 187 191 190 191 184 168 141 196 201 189 198
159 241 238 242 245 239 226 232 225 225 221 219 219 209 209 219 230 248 201 187 189 194 195 184 183 195 197 192 189 195 189 179 188 175 186 190 186 122 198 182 192 194 200 193
226 220 220 215 220 210 205 204 199 201 204 203 200 201 199 200 206 206 205 200 194 188 184 195 193 192 190 196 195 188 184 187 184 189 174 192 198 193 186 206 195 200 215 223
218 211 206 209 206 205 201 205 202 200 199 202 200 196 196 195 197 196 190 183 185 190 189 194 200 202 194 187 185 187 184 187 150 180 194 190 186 189 190 194 224 223 223 239
209 189 201 199 198 194 196 194 192 190 189 196 200 207 203 202 194 190 186 186 189 181 202 196 189 188 188 178 186 189 189 181 144 185 180 190 194 191 210 211 228 229 243 256
202 186 202 196 196 194 192 198 197 194 192 194 189 194 189 192 196 196 199 202 210 204 181 187 190 181 178 178 183 190 178 148 138 190 193 192 205 219 213 231 253 245 266 285
198 198 201 195 193 195 193 194 192 188 193 201 194 193 203 214 212 213 210 206 201 197 190 189 182 172 187 180 174 178 133 186 195 121 196 203 218 224 241 253 242 261 273 283
196 193 192 193 191 192 190 193 192 190 190 189 194 198 208 205 200 201 198 192 191 188 183 185 189 183 182 182 187 187 161 168 176 167 211 219 245 243 263 239 258 281 330 358
191 190 186 189 190 194 194 193 193 198 198 196 195 208 204 201 202 198 194 185 182 189 189 188 181 186 185 186 183 191 192 203 214 216 239 243 240 256 258 274 270 360 366 415
191 190 191 188 193 200 195 194 195 196 186 203 192 213 207 216 191 192 173 193 182 171 182 173 184 183 182 198 196 202 210 212 231 226 245 256 244 253 259 310 362 360 431 427
194 195 192 195 196 192 186 192 186 192 191 202 184 196 199 213 202 186 178 89 151 173 175 180 181 184 199 193 201 211 216 224 238 233 247 244 243 254 311 359 379 423 413 406
188 188 182 180 184 180 185 185 194 190 193 195 189 199 206 202 194 188 172 180 174 177 177 181 198 199 198 205 212 212 215 216 235 246 241 263 252 359 359 445 429 416 472 456
189 189 188 185 184 178 184 111 189 187 182 198 198 196 207 195 193 186 170 179 173 180 193 198 202 199 200 211 222 211 224 227 245 241 272 251 336 375 460 477 481 436 393 368
193 191 189 205 205 205 206 207 208 197 192 198 191 197 199 190 185 176 167 181 184 195 195 203 201 203 210 220 219 218 227 245 252 264 250 259 394 502 469 443 400 380 430 401
202 201 198 203 201 209 225 221 216 222 223 191 194 202 196 186 182 177 177 182 184 195 208 200 202 216 216 214 226 225 238 250 263 252 320 474 484 449 411 391 491 442 408 398
196 199 195 202 206 212 203 215 216 223 226 216 202 199 190 178 179 181 189 184 189 206 200 205 215 218 221 228 227 235 248 253 255 319 473 470 428 400 388 456 432 406 386 367
191 193 198 190 209 213 217 216 223 209 206 204 195 190 189 184 192 197 189 184 207 204 203 219 221 220 221 228 234 248 238 295 254 482 457 420 396 377 419 424 402 377 361 351
203 207 199 214 208 217 205 195 212 225 117 188 183 191 196 200 201 197 190 213 211 210 217 217 216 226 227 237 246 237 250 254 405 465 419 393 372 363 379 367 362 366 357 363
193 206 212 201 205 220 253 200 197 197 198 183 193 199 198 204 198 198 212 206 216 211 225 221 230 233 240 247 263 241 261 367 503 419 389 368 357 386 370 362 362 362 357 338
181 209 215 221 222 204 193 191 197 199 195 197 197 196 206 199 205 204 212 213 215 226 228 233 228 252 256 246 243 307 328 472 444 397 376 366 364 378 367 366 371 366 338 333

GFSCGP_2pvu_pres_030.txt.gz
Presure
226 227 226 229 227 226 227 226 228 232 236 241 248 244 241 266 253 241 239 233 195 224 244 246 233 135 216 215 234 218 221 223 205 212 192 201 207 211 214 206 178 182 189 187
227 227 227 226 225 232 240 237 234 225 225 243 241 235 235 160 230 143 168 242 219 218 235 212 207 220 215 213 211 226 232 213 205 200 187 199 206 199 184 183 188 191 192 194
226 224 226 231 234 236 235 234 231 231 229 229 229 227 181 142 182 212 213 213 220 211 219 220 214 212 206 212 216 205 214 194 201 194 199 200 191 183 192 187 195 199 198 197
228 228 228 134 160 225 223 219 218 219 158 211 230 229 227 233 222 218 218 221 222 217 219 215 218 214 214 214 217 189 190 192 194 199 196 191 191 192 193 191 190 194 193 198
219 217 216 215 215 216 218 216 216 217 212 216 229 224 231 226 224 218 219 227 228 227 225 212 214 214 207 195 203 197 196 199 192 192 193 193 191 195 189 195 196 194 193 190
213 215 216 213 214 217 219 236 221 216 236 240 250 249 248 247 242 233 221 217 220 212 212 208 207 205 194 202 202 192 190 192 193 191 188 197 188 189 194 191 123 191 196 193
192 181 193 219 222 234 250 245 253 249 251 250 235 232 229 231 233 237 243 244 227 220 210 206 203 195 199 192 188 193 192 193 194 199 194 184 193 193 172 151 191 199 197 199
213 255 247 245 240 238 233 224 221 219 216 212 212 208 212 208 205 199 198 198 197 198 201 199 193 194 182 187 180 189 192 198 194 183 176 187 191 105 191 185 195 196 194 196
224 226 234 225 224 217 213 209 207 208 208 203 203 204 205 204 200 198 199 198 201 199 197 193 186 184 192 186 204 210 194 191 179 181 191 184 184 178 191 134 195 194 215 224
210 215 219 206 207 209 198 203 201 202 201 201 196 193 191 197 202 201 199 190 184 188 190 195 206 213 215 207 197 191 184 189 192 188 187 139 188 193 194 195 206 215 223 238
212 210 203 200 195 204 202 197 195 196 196 201 207 200 196 191 197 200 203 212 214 213 215 214 205 197 197 191 187 190 196 183 190 189 124 120 194 196 177 207 210 224 242 240
193 204 201 188 188 198 197 201 197 193 198 194 193 197 197 201 196 199 200 212 212 208 207 201 204 195 181 192 179 176 190 182 181 180 189 199 196 195 207 224 221 241 244 266
191 199 203 192 197 198 194 195 194 192 201 203 197 198 200 204 199 199 218 207 206 193 193 194 177 181 181 179 182 182 182 178 186 196 200 202 205 206 224 231 238 233 255 258
188 194 191 197 192 191 187 187 191 193 196 199 196 195 190 199 206 194 186 203 201 209 201 198 138 183 181 185 182 181 179 190 199 195 206 206 216 227 231 245 245 258 261 274
188 193 191 194 192 193 192 191 192 197 196 189 196 192 187 196 192 201 190 198 205 202 200 164 193 189 190 180 181 181 188 192 203 203 212 221 221 226 246 246 272 260 363 454
192 196 196 195 193 194 195 192 196 191 189 183 187 186 198 193 184 193 196 191 202 201 104 193 194 182 172 181 188 183 191 203 200 207 216 222 234 243 255 280 262 397 516 471
188 196 196 191 192 194 192 188 186 187 191 193 193 207 198 198 201 198 189 193 194 191 199 191 182 179 183 185 183 188 202 202 206 219 227 230 244 266 253 269 433 501 459 430
190 190 193 193 192 191 190 188 188 198 207 211 215 226 225 224 220 220 191 193 201 201 196 187 181 183 188 194 193 201 207 208 228 228 236 243 260 240 274 360 479 437 409 394
192 194 194 193 195 200 204 204 203 202 203 207 215 218 220 225 222 220 211 202 198 192 189 184 185 190 195 192 202 205 212 227 235 236 247 263 241 262 342 467 426 398 392 500
206 205 204 203 201 197 193 193 196 203 205 207 204 215 214 210 202 202 202 194 188 184 190 191 194 203 196 201 210 223 224 235 229 240 259 244 252 391 470 423 390 368 449 426
187 197 200 202 201 194 201 197 201 204 209 209 212 201 226 227 210 199 197 184 186 188 195 198 200 198 202 204 220 220 233 246 248 262 237 281 318 481 429 394 377 389 384 372
197 194 199 210 211 202 205 211 198 210 208 201 229 230 196 191 193 195 195 193 191 195 203 198 208 208 225 220 217 234 244 252 241 244 291 308 476 440 405 382 389 384 378 379
190 202 196 91 139 207 204 206 209 219 215 218 198 182 191 196 198 198 190 196 198 195 199 212 218 226 222 220 234 252 252 232 246 299 309 404 447 420 387 374 381 382 376 377
192 105 197 203 198 201 211 206 219 229 209 196 189 191 188 195 193 195 200 193 207 211 212 225 221 222 222 236 252 257 228 258 285 304 371 445 419 388 380 374 370 384 378 347
179 183 196 198 209 215 207 211 201 196 195 180 190 195 184 199 199 202 211 207 213 209 224 223 221 230 236 252 247 239 258 284 305 332 441 425 394 366 374 367 366 361 346 338
178 202 199 216 205 208 224 190 188 192 197 199 197 193 198 206 211 203 212 215 205 225 223 226 233 236 251 244 237 267 288 304 316 433 431 407 379 360 372 361 358 347 347 326

GFSCGP_2pvu_pres_033.txt.gz
Presure
222 226 229 232 130 233 224 246 251 224 218 208 205 207 208 213 218 204 198 247 243 244 236 236 238 230 224 222 213 210 210 207 212 202 202 203 213 222 184 197 186 193 196 195
223 226 224 224 224 225 225 227 229 233 237 236 232 234 247 246 245 238 236 235 227 227 223 228 223 216 214 215 217 217 207 213 211 206 214 211 203 186 188 192 194 194 196 197
216 216 217 217 219 221 221 223 221 222 224 239 233 231 232 232 226 232 231 234 229 222 215 210 212 214 213 217 215 210 210 206 201 204 192 192 195 195 193 194 200 199 197 204
218 221 220 219 223 230 232 234 234 236 234 229 229 224 218 216 218 221 221 220 212 210 215 222 226 228 222 221 215 218 202 202 198 206 205 197 186 195 201 198 203 208 181 190
153 234 228 232 230 227 224 220 221 223 225 220 213 211 208 225 225 226 231 231 231 232 234 226 223 226 227 224 220 208 202 198 196 201 193 191 196 203 206 197 194 194 198 195
112 223 220 218 219 219 220 217 215 213 232 269 265 256 238 237 237 244 244 242 242 243 248 255 255 251 238 225 218 212 201 194 190 195 192 196 205 200 193 193 190 193 189 95
215 215 212 215 213 216 214 216 240 245 239 235 238 234 229 222 218 213 209 209 209 208 204 198 197 199 200 198 194 191 191 192 192 195 204 211 199 187 185 192 188 180 161 196
212 217 218 222 219 242 253 242 234 227 220 217 212 207 204 205 205 205 203 197 194 196 200 200 199 192 190 190 190 191 193 204 206 208 199 193 174 179 187 183 190 192 187 193
205 214 246 228 241 229 224 220 216 210 204 204 203 204 205 195 196 190 190 197 195 191 193 210 206 212 215 217 216 215 209 192 195 184 191 180 183 184 181 183 183 185 194 207
212 222 224 214 219 207 208 204 197 202 204 196 201 200 196 201 203 199 194 193 197 194 202 207 210 209 207 206 206 202 196 177 179 180 181 187 180 179 184 187 191 195 208 206
215 215 209 210 205 198 203 190 203 202 196 197 195 196 198 190 197 193 192 202 203 207 199 189 191 205 207 207 201 196 196 191 189 192 185 180 181 190 184 192 191 212 213 244
201 206 201 197 198 193 193 193 199 200 199 197 201 197 199 201 204 202 196 184 200 189 200 197 189 197 206 204 203 203 202 199 192 178 181 183 190 192 198 195 210 221 242 240
201 190 191 199 199 198 194 198 194 196 196 191 191 199 204 201 193 190 182 191 192 182 193 194 192 193 193 202 207 201 197 186 186 183 189 192 200 202 195 221 229 231 259 271
191 195 193 190 193 189 192 194 192 193 194 196 197 200 189 189 185 186 184 198 215 226 188 191 196 190 195 196 207 202 198 192 190 191 191 204 201 208 235 224 245 263 253 256
192 193 194 193 194 194 194 195 194 194 196 195 193 187 192 191 214 219 224 223 223 227 226 225 195 193 199 205 199 193 192 191 186 196 200 204 228 229 224 250 261 246 275 289
190 191 189 183 187 196 198 202 191 188 190 192 187 191 205 208 214 210 211 216 216 218 219 212 207 207 200 192 187 190 188 201 200 199 227 222 224 235 258 269 250 263 296 491
188 193 193 192 190 190 192 196 195 194 199 207 203 203 204 204 208 213 216 211 236 236 230 205 203 201 196 193 191 197 196 199 217 226 217 226 230 257 245 252 263 274 464 459
184 189 194 192 192 194 203 208 209 206 200 197 195 199 202 207 213 210 200 244 222 199 197 198 198 197 193 194 197 209 207 219 222 226 234 232 246 230 248 262 276 431 460 424
193 189 199 213 208 197 193 200 198 198 197 197 203 208 205 202 204 212 245 205 194 192 187 191 193 191 197 204 212 206 219 223 231 231 234 249 263 255 260 275 387 461 432 399
198 198 200 197 190 187 198 194 205 203 204 206 204 209 210 217 239 242 202 193 190 190 191 191 194 203 209 205 217 213 219 230 236 234 259 263 254 262 278 350 452 438 405 382
196 184 186 191 194 203 153 198 200 205 200 201 211 205 214 231 200 203 199 184 191 193 194 208 202 209 202 213 212 220 230 232 239 251 239 263 246 289 329 446 443 415 388 375
187 184 190 191 148 109 195 197 198 198 203 206 206 206 220 204 196 191 193 194 191 199 205 201 205 206 214 220 223 227 239 248 253 248 237 257 250 327 438 447 424 393 371 375
179 185 93 193 196 200 192 192 198 200 208 202 204 211 199 189 197 196 188 189 200 205 202 204 213 216 219 219 228 234 252 260 239 241 251 264 319 433 447 433 407 376 365 362
184 194 194 198 195 141 130 184 193 199 208 190 205 205 190 189 188 192 194 201 199 208 206 213 216 216 227 225 234 238 232 249 253 250 266 314 435 447 434 417 389 363 359 354
176 168 205 199 204 199 181 189 201 211 198 212 206 193 189 188 191 196 203 208 204 209 207 215 216 223 225 236 249 250 242 252 250 319 310 399 447 435 418 407 377 355 349 337
205 194 198 196 160 186 197 205 213 199 207 202 197 198 198 197 198 210 204 208 209 206 212 220 221 231 238 251 253 243 276 278 245 323 429 449 433 420 415 399 368 350 339 328

GFSCGP_2pvu_pres_036.txt.gz
Presure
239 247 244 126 229 232 230 234 224 229 209 204 204 202 204 213 204 202 205 196 202 201 210 209 234 214 204 229 217 218 224 214 225 202 210 214 209 204 208 194 195 195 194 194
236 231 227 235 236 235 235 239 240 237 240 220 223 230 222 215 209 209 210 207 215 236 232 227 231 224 231 225 226 228 238 218 219 214 208 207 215 200 198 203 200 205 201 184
223 227 225 224 225 228 230 228 227 227 229 227 228 231 234 237 240 237 235 233 231 224 217 221 222 221 221 221 219 214 218 216 219 213 213 205 201 203 196 191 192 191 189 190
221 218 219 219 220 220 220 221 223 222 221 222 225 225 223 225 230 233 234 227 227 230 223 219 220 226 225 226 227 223 218 217 212 211 217 209 200 197 195 187 189 191 195 207
208 218 206 130 216 220 225 233 234 229 226 223 222 221 223 221 221 219 221 221 233 246 258 261 260 251 248 242 236 206 199 200 203 197 195 192 189 189 191 198 209 215 198 187
217 218 219 123 163 229 228 225 225 176 217 214 213 214 221 224 236 247 253 245 226 211 207 209 205 204 205 205 201 196 194 191 186 189 193 194 198 209 218 206 188 193 190 204
196 226 124 129 195 216 217 215 214 215 214 255 256 251 249 238 226 216 207 208 208 205 196 193 196 197 192 197 206 210 218 223 224 220 216 212 206 205 204 187 199 203 199 193
216 210 217 218 217 216 208 209 214 235 231 221 220 215 212 207 206 200 202 194 198 204 206 201 204 209 205 208 204 205 205 205 207 212 213 212 213 208 206 203 202 190 191 191
214 216 210 214 210 208 245 238 229 219 219 211 206 203 203 196 198 196 194 205 201 199 197 194 203 204 202 198 207 204 202 197 204 204 210 208 205 203 199 193 194 188 191 185
208 160 188 243 243 235 222 219 213 212 203 199 205 199 195 196 189 199 197 197 194 195 199 198 184 193 197 198 190 200 197 200 193 198 194 202 206 202 198 191 191 186 191 198
203 211 228 229 222 217 207 206 205 193 193 198 201 199 191 198 199 194 195 202 201 193 190 192 186 190 211 211 226 215 192 193 194 185 198 198 192 186 187 187 184 193 200 217
206 220 214 210 207 203 206 201 197 194 196 199 194 196 196 190 186 193 198 189 187 190 210 220 222 222 227 228 220 222 224 218 193 201 193 184 184 185 191 185 195 236 241 245
214 200 202 201 194 201 199 202 198 194 197 197 194 194 193 195 197 194 187 191 194 212 210 216 219 228 219 221 220 205 203 201 197 196 190 189 191 191 200 234 246 234 248 257
198 202 193 193 195 195 195 193 195 198 200 199 198 188 190 195 195 196 203 207 207 208 216 226 257 249 236 202 201 197 193 192 192 192 200 202 223 230 228 234 252 252 256 250
200 198 189 192 194 194 193 186 192 194 190 195 195 196 198 205 205 205 199 204 211 212 222 252 234 210 202 191 192 187 188 194 207 212 216 217 225 227 236 249 240 240 250 255
197 194 193 189 193 196 194 197 191 188 196 203 208 205 205 201 206 203 206 221 213 243 243 232 208 199 191 188 192 193 183 211 222 217 203 229 227 220 243 239 248 225 263 248
191 190 190 191 187 192 194 193 204 211 203 201 195 199 202 206 203 207 224 206 227 218 203 203 202 198 187 191 193 201 215 212 215 215 216 226 230 234 245 244 251 276 290 251
188 191 193 193 191 187 204 212 203 194 198 193 195 196 195 205 208 207 213 208 217 200 199 191 190 190 189 198 210 207 212 210 214 216 222 231 240 243 250 243 266 253 275 362
193 190 190 192 200 191 195 197 195 196 199 190 191 197 198 202 204 208 201 207 210 199 187 197 189 191 204 203 209 204 210 211 213 213 230 236 240 246 250 261 247 266 363 464
194 195 197 194 201 191 186 189 132 200 189 196 193 197 202 199 198 208 196 204 209 192 192 187 192 204 200 211 205 208 211 215 218 231 236 245 247 253 277 272 279 363 459 445
196 197 194 197 196 186 186 187 193 190 191 191 191 191 200 195 210 209 184 201 203 192 196 195 200 200 210 211 203 212 220 222 229 245 250 259 247 249 257 329 310 361 448 432
198 195 196 197 179 120 183 188 194 196 200 202 193 184 195 201 209 217 193 214 195 192 194 203 199 208 206 205 214 221 218 236 247 241 253 252 251 250 266 282 365 448 431 422
195 198 198 189 186 189 189 190 196 153 197 184 168 194 200 203 194 216 217 193 193 193 199 207 206 211 206 212 220 227 238 249 258 251 249 252 259 268 251 368 411 443 432 417
197 196 173 187 188 189 195 197 201 147 185 180 197 196 198 195 206 210 214 199 194 205 210 206 214 218 211 220 224 241 244 239 240 239 239 251 258 276 369 376 443 439 430 408
192 189 191 195 196 198 188 193 185 191 179 193 197 198 199 211 217 191 201 197 208 205 211 216 215 212 217 226 241 248 250 239 247 246 270 257 361 366 342 381 443 441 423 397
197 203 204 150 172 188 189 191 188 186 191 191 196 203 206 220 200 217 202 209 205 212 213 219 212 217 228 247 256 257 248 253 271 267 261 308 367 348 372 408 450 436 414 383

GFSCGP_2pvu_pres_039.txt.gz
Presure
237 231 232 229 232 228 228 228 120 218 223 223 212 213 208 210 211 211 215 208 202 204 210 201 201 205 204 205 227 247 224 227 250 221 226 211 229 198 226 209 207 201 202 202
234 231 229 229 230 230 231 205 229 226 226 224 221 213 211 214 211 206 208 207 208 205 205 207 202 217 222 233 221 217 214 216 209 209 209 214 211 200 210 223 204 208 208 196
241 231 233 234 236 236 232 228 229 229 229 232 233 231 229 230 239 232 212 234 241 241 236 233 231 224 222 229 228 226 229 226 230 235 229 221 220 225 202 198 189 188 187 191
228 223 225 222 225 224 224 225 193 225 224 221 219 220 224 227 228 225 225 225 224 220 220 217 230 244 244 234 223 213 203 202 197 199 197 201 195 194 198 198 200 202 204 207
220 171 139 219 218 221 219 200 130 216 215 215 218 222 231 230 224 220 220 216 220 250 242 232 223 210 203 203 204 202 202 201 199 196 193 204 212 213 215 214 210 205 205 205
212 217 215 217 219 216 214 217 154 200 224 221 221 219 218 215 223 247 252 240 227 216 207 203 202 202 196 193 194 196 196 198 200 209 205 202 196 193 188 201 194 201 198 203
183 216 217 219 222 231 232 122 162 216 216 213 213 212 263 247 229 219 214 206 200 200 197 196 193 203 205 198 201 201 200 203 204 204 194 191 198 193 199 196 197 195 206 206
215 222 228 228 223 217 126 219 219 218 211 209 237 226 215 210 205 200 200 197 196 192 193 196 199 199 198 196 201 201 196 194 194 222 230 239 238 232 224 209 206 207 201 195
224 221 214 216 217 204 212 214 208 244 226 217 212 210 204 195 199 198 191 193 195 203 198 194 197 200 195 190 187 226 230 229 232 236 229 221 196 205 205 203 197 197 195 195
216 217 163 159 210 205 152 233 224 216 208 206 201 196 195 196 199 198 194 200 193 186 191 197 192 189 198 216 222 221 226 228 221 218 206 203 201 198 193 193 193 192 191 193
208 214 206 207 232 229 224 213 210 202 205 202 190 190 202 197 195 192 195 191 192 199 197 195 207 207 212 217 237 252 253 248 212 200 194 192 187 186 184 186 186 191 234 228
207 207 200 212 222 214 208 205 204 203 195 194 197 198 197 191 194 192 188 184 194 201 207 205 202 210 210 242 253 230 212 201 198 186 181 185 190 192 188 191 221 233 228 254
208 197 212 210 212 205 204 203 199 199 194 192 196 196 193 197 190 188 195 203 208 206 203 197 205 218 227 233 211 206 202 198 192 184 184 185 189 207 219 216 238 239 254 251
202 216 201 204 203 196 199 194 195 194 193 191 191 195 187 195 202 205 204 204 204 201 202 213 201 216 217 204 197 196 190 187 186 184 183 205 213 211 225 236 246 249 246 251
213 203 198 204 193 190 190 196 196 196 193 198 194 200 206 201 194 197 201 198 193 204 208 216 207 220 217 202 198 183 190 185 184 201 214 208 205 221 239 245 243 239 240 230
197 191 203 198 193 192 194 197 195 196 194 204 215 202 201 196 195 195 195 196 206 194 220 216 202 217 216 211 183 189 184 192 200 209 212 213 207 232 242 232 240 257 235 230
197 191 196 196 193 192 194 193 192 192 206 203 198 199 195 201 190 193 196 197 205 206 209 214 221 202 207 194 190 190 199 210 208 218 213 212 225 241 241 256 246 238 249 269
195 194 198 195 191 189 189 196 201 194 194 191 134 198 196 199 192 194 199 196 190 201 203 203 201 220 209 193 187 202 207 208 215 213 199 223 240 243 246 228 259 253 256 278
200 196 195 194 196 191 191 194 198 200 192 189 187 189 200 198 197 203 191 189 196 197 196 199 215 206 198 193 207 203 209 212 213 212 221 231 246 240 236 235 248 261 275 259
200 200 198 197 193 191 198 197 200 191 190 188 189 190 189 196 198 189 178 197 193 193 201 208 206 194 199 208 204 202 210 213 212 212 224 239 248 240 236 251 257 272 273 289
198 197 196 195 195 193 196 193 198 194 186 187 185 191 169 195 187 182 182 191 193 200 203 217 214 200 206 205 202 207 218 213 212 222 222 247 255 240 247 252 263 270 286 341
204 203 199 199 195 194 135 194 195 184 187 183 194 190 191 182 193 181 190 188 197 205 218 213 202 204 204 207 211 211 220 211 222 202 243 254 261 274 255 254 285 301 350 327
204 204 118 204 198 200 200 192 193 190 196 197 180 189 182 194 185 186 195 201 202 216 218 204 201 202 212 207 212 221 211 222 237 234 254 249 251 255 259 287 341 355 335 369
207 197 213 214 210 208 201 198 161 196 178 191 185 187 185 193 191 198 202 203 213 220 198 203 202 210 212 216 219 211 228 226 245 256 256 252 260 257 291 350 347 337 397 365
185 199 207 202 193 193 191 190 181 192 186 189 190 184 193 195 199 195 206 215 228 198 203 204 215 215 219 216 220 208 229 249 237 273 257 272 259 250 278 353 332 320 368 357
109 187 189 193 194 193 184 187 187 189 191 186 193 193 199 195 203 214 222 227 196 202 207 214 220 221 215 221 224 231 247 225 263 249 284 282 302 272 338 309 346 378 366 344

GFSCGP_2pvu_pres_042.txt.gz
Presure
233 228 226 235 139 138 214 222 219 224 226 219 164 218 210 206 216 208 210 211 207 209 205 206 217 201 202 202 201 200 201 204 237 226 202 223 208 216 201 205 210 216 226 214
230 239 236 235 142 228 226 225 222 218 220 219 213 211 215 216 214 217 211 210 214 209 212 202 200 201 208 231 230 224 226 219 215 228 226 229 235 236 218 209 196 195 197 197
139 230 222 223 226 226 225 225 226 223 222 221 220 221 221 228 223 220 213 210 226 234 229 220 222 224 221 222 225 237 245 237 227 215 209 203 200 204 201 199 195 192 196 203
234 225 226 224 224 223 224 225 225 225 223 226 187 229 230 231 232 228 224 220 214 213 218 223 223 218 235 230 223 216 211 206 203 202 200 198 206 201 201 206 206 203 200 199
233 232 225 225 229 230 230 231 228 226 224 226 226 217 221 216 215 213 216 220 220 217 216 242 234 222 216 208 201 201 201 200 195 196 199 203 200 195 193 193 194 195 216 223
225 224 223 220 218 216 216 216 215 215 213 211 133 199 217 220 220 218 233 246 243 233 225 217 208 203 201 200 194 198 203 201 202 200 195 194 210 229 236 240 240 227 210 206
217 214 213 213 210 212 209 211 210 211 212 217 121 206 210 210 221 236 224 217 211 204 200 201 195 192 194 194 197 203 199 196 194 225 228 226 228 228 227 226 209 201 198 195
213 217 210 207 212 214 215 217 222 223 216 208 200 206 205 222 214 210 204 199 196 198 192 191 201 197 196 193 193 197 201 217 222 243 253 264 266 261 213 200 192 192 188 189
212 208 213 219 221 218 217 213 206 206 204 204 230 222 215 209 203 197 196 197 193 203 196 198 197 192 194 196 212 216 217 229 236 243 246 231 213 203 198 192 184 181 189 188
217 224 222 217 205 212 205 214 214 228 234 224 212 209 202 197 194 194 191 200 195 197 191 195 190 203 211 212 205 206 207 209 217 218 206 201 195 195 192 186 186 186 184 192
212 210 215 215 210 214 228 231 226 215 211 207 204 201 196 190 190 197 191 193 193 196 184 203 205 204 203 202 208 206 202 205 206 203 199 193 186 189 189 183 182 184 203 208
216 202 213 208 220 234 226 214 211 209 204 201 198 192 191 194 190 190 197 196 196 206 203 201 201 199 195 219 222 224 211 211 222 207 196 182 181 183 183 183 195 213 220 241
208 206 208 203 205 213 209 205 199 202 202 197 199 193 184 188 193 196 199 207 203 204 196 196 201 206 196 211 210 212 203 203 211 210 206 183 184 186 195 210 222 221 207 243
199 208 198 204 210 208 208 202 201 198 187 190 188 189 187 192 199 208 204 200 191 195 191 195 192 198 202 201 205 203 204 183 210 197 189 187 191 207 209 219 215 225 225 248
210 196 208 208 199 196 201 195 191 188 194 193 188 191 187 205 208 195 198 200 200 194 194 191 196 191 189 197 195 214 212 209 204 195 198 204 201 205 223 217 214 233 239 247
192 195 211 205 196 200 196 194 188 187 187 192 190 201 214 199 194 198 198 197 198 190 206 198 190 194 198 199 193 213 216 228 195 205 199 201 206 207 221 215 218 236 249 260
197 197 195 194 195 194 196 199 196 193 194 191 200 199 192 194 194 187 192 204 200 202 195 192 182 189 192 201 203 214 213 206 198 200 213 206 212 219 214 223 234 239 262 246
199 195 195 195 194 191 199 196 193 194 187 193 196 196 196 196 195 189 191 194 199 196 191 196 178 191 202 200 206 216 220 202 201 211 208 212 212 217 219 224 239 254 238 247
200 196 195 198 198 190 193 195 201 195 192 201 194 199 195 197 187 188 198 193 193 191 194 188 188 201 198 202 215 225 199 201 211 212 216 217 211 225 220 240 247 263 230 264
200 199 198 198 197 193 194 196 197 192 195 196 199 195 199 192 194 196 198 183 190 191 182 194 195 194 201 213 226 202 199 201 211 216 214 219 223 222 236 246 243 250 262 249
198 198 197 196 194 195 197 196 194 113 195 195 196 186 196 180 200 198 184 187 186 183 194 192 193 200 213 231 201 195 202 208 218 211 220 212 224 225 239 250 254 255 260 288
202 204 205 204 203 203 199 198 196 198 198 198 199 199 200 192 182 187 185 188 188 195 192 191 201 209 229 205 196 204 204 215 218 229 221 225 234 243 252 248 262 255 259 275
200 206 212 207 188 197 206 204 206 205 203 201 199 185 204 177 188 187 189 190 198 193 191 203 211 231 202 201 208 204 219 222 226 224 225 235 241 261 249 254 265 259 264 303
189 186 188 195 188 200 201 200 200 205 192 201 191 179 186 197 193 193 189 195 192 197 205 219 230 203 208 207 213 214 220 226 224 238 239 254 265 271 245 262 293 313 325 385
189 187 187 193 191 186 180 194 195 202 201 187 196 197 190 188 188 191 202 205 209 216 231 204 205 205 212 212 221 231 232 237 237 247 260 269 247 260 264 257 267 341 379 434
195 195 197 197 196 191 202 196 194 188 191 196 193 189 193 198 205 209 209 213 229 215 207 208 217 212 217 230 229 234 239 231 253 261 268 244 269 275 274 272 324 383 417 410

GFSCGP_2pvu_pres_045.txt.gz
Presure
136 227 232 234 235 137 235 140 115 228 142 226 224 165 140 212 216 215 212 212 216 210 206 202 194 199 198 199 196 197 215 202 210 199 230 231 234 205 202 215 227 225 206 203
230 225 224 227 227 226 235 223 219 198 222 198 216 220 217 215 215 214 209 204 201 200 201 203 203 207 210 203 215 235 219 223 220 206 216 226 227 223 214 208 205 196 201 200
226 224 225 220 233 226 227 221 216 217 216 216 218 219 214 214 213 209 209 195 206 208 206 204 204 208 222 225 214 214 212 223 224 228 220 213 205 200 199 200 195 196 202 202
228 160 138 135 139 225 204 218 219 217 219 212 212 209 212 217 217 215 216 220 221 225 231 227 218 214 214 216 212 225 219 216 214 207 201 204 204 203 202 207 203 196 201 229
142 144 204 217 220 220 221 220 220 218 217 221 222 220 222 220 219 118 126 217 213 212 213 217 214 210 229 221 213 213 204 198 202 205 194 206 205 199 203 221 225 227 228 230
232 224 219 219 217 217 217 217 219 222 224 224 223 220 218 211 147 210 153 216 218 215 211 235 225 217 211 206 200 195 205 195 199 204 195 206 240 248 247 244 241 232 231 209
223 229 225 219 217 219 224 225 221 216 216 214 210 210 207 209 212 215 213 210 236 229 218 212 206 203 198 200 208 200 202 198 206 218 216 213 212 214 216 217 213 204 202 196
224 222 219 215 210 208 211 212 209 207 204 205 212 219 219 215 212 230 228 220 213 208 206 203 201 202 207 199 198 199 214 206 204 205 204 201 203 205 206 206 203 204 200 191
210 212 208 213 206 206 203 210 211 212 218 220 213 209 207 210 224 217 211 206 201 200 200 196 208 193 196 195 210 202 204 198 213 217 211 209 205 204 227 225 218 206 201 187
210 208 208 202 207 207 209 219 219 213 211 206 201 208 218 215 207 206 205 193 199 191 199 196 193 199 207 202 202 200 207 200 210 197 212 215 215 230 211 212 208 200 195 188
208 211 211 213 222 221 211 207 206 197 201 207 220 211 208 207 205 203 197 191 190 200 191 200 203 201 202 198 192 197 194 209 202 201 204 214 212 206 193 206 205 195 191 199
209 212 218 210 206 205 207 202 203 225 226 216 204 205 200 203 194 194 194 195 189 196 197 207 201 199 196 196 194 190 197 208 188 198 194 192 213 215 212 221 196 197 209 215
217 212 208 210 211 208 205 214 228 217 209 209 204 201 203 196 197 196 190 190 190 199 204 201 208 206 203 191 205 190 191 191 201 200 200 206 215 224 225 201 198 214 212 214
211 213 208 204 206 230 226 215 214 210 207 203 203 198 193 187 188 192 190 193 219 202 196 196 197 198 197 196 186 193 190 180 200 201 204 214 227 221 199 202 213 218 215 216
209 205 208 205 232 208 210 210 210 209 204 197 195 187 196 188 191 196 199 219 201 200 190 193 198 198 203 197 191 192 195 196 191 198 209 222 220 204 202 195 211 217 217 225
205 210 202 211 206 207 208 205 197 201 195 188 193 187 189 188 187 187 200 197 193 190 195 187 192 192 194 191 192 189 200 189 197 201 212 225 207 201 197 205 218 224 234 227
207 203 211 197 209 210 203 197 196 200 195 194 193 189 189 190 193 198 196 195 196 199 193 191 201 193 188 185 189 187 192 194 200 205 223 230 197 207 206 212 221 233 227 237
209 205 207 194 195 194 201 196 197 191 193 194 187 187 191 192 197 198 194 198 195 201 196 200 195 187 181 189 190 196 193 202 204 221 236 202 205 208 213 224 234 227 236 243
202 206 204 199 194 194 197 198 194 189 188 189 190 192 196 195 196 198 194 194 194 200 200 181 186 185 189 184 195 194 196 204 222 207 201 204 214 212 227 227 231 233 247 263
200 198 200 203 196 193 195 198 199 198 197 196 198 198 197 199 197 201 202 203 208 218 180 190 189 193 188 192 195 201 206 232 202 204 208 212 215 228 234 233 236 250 268 247
203 202 198 201 200 198 197 197 196 198 200 201 201 200 200 204 207 209 198 189 189 186 193 192 190 186 196 199 208 209 238 204 203 214 207 218 235 233 231 241 246 256 245 255
199 198 199 200 127 202 203 203 200 203 194 204 207 207 200 199 196 206 198 187 191 192 188 188 191 197 204 207 223 231 201 201 213 204 217 232 232 235 243 254 268 265 255 258
193 195 199 197 190 160 203 205 194 193 189 187 183 190 186 200 192 190 189 187 192 192 185 194 199 211 209 233 213 197 206 204 217 218 233 236 241 243 259 265 248 254 264 278
190 101 180 191 189 189 187 182 183 189 184 191 189 192 197 181 190 198 195 192 188 193 198 210 206 217 237 198 202 211 200 222 221 232 241 243 242 248 259 259 262 262 277 264
157 195 190 188 190 193 192 190 191 192 192 196 198 198 201 197 197 191 199 196 202 206 210 216 233 229 203 206 212 206 221 229 234 238 248 246 265 253 253 260 265 274 268 373
198 192 193 192 192 191 199 195 199 201 200 200 201 198 196 187 200 204 195 203 207 215 227 233 200 208 198 215 218 224 235 243 244 255 254 253 258 261 255 267 276 341 381 390

GFSCGP_2pvu_pres_048.txt.gz
Presure
243 241 233 227 227 233 232 230 234 233 234 233 227 164 225 214 219 219 211 216 185 213 212 209 218 210 200 200 206 204 202 199 193 193 194 205 217 212 215 226 214 231 219 212
239 242 233 231 213 229 239 235 238 230 206 226 223 201 139 139 160 216 213 211 211 211 208 208 205 203 198 202 195 193 192 200 200 207 234 217 213 215 226 220 211 205 197 196
245 234 234 191 226 228 228 241 228 228 221 221 225 217 182 217 219 219 218 213 213 211 171 207 150 198 192 194 197 202 209 223 230 214 223 229 218 210 205 197 195 199 197 203
236 224 217 225 227 224 232 220 214 224 217 209 213 219 218 224 225 216 204 201 201 202 200 203 206 214 223 228 226 216 216 223 227 220 214 205 197 193 202 202 197 203 227 225
246 231 234 229 210 227 135 135 178 223 217 215 209 212 213 209 209 203 206 212 215 218 219 221 219 210 213 217 217 231 226 215 212 204 194 198 209 199 215 224 226 231 230 221
240 225 218 228 199 142 185 207 212 208 210 186 215 219 215 220 212 217 246 214 215 213 212 214 199 212 220 231 224 214 208 201 194 205 206 212 211 225 214 206 204 203 203 204
226 207 229 216 212 208 208 206 204 211 218 219 213 211 219 208 216 205 199 207 211 212 213 212 236 226 217 210 203 199 196 208 200 207 220 210 211 208 200 206 210 213 221 213
232 231 224 224 210 212 216 214 212 215 216 217 212 212 207 204 205 201 211 212 208 210 228 217 209 206 202 204 200 209 194 201 213 213 205 201 199 191 195 193 198 201 196 220
221 219 228 221 221 217 213 216 211 207 210 207 208 205 204 203 213 211 207 208 210 217 211 205 204 190 202 205 197 205 208 210 203 201 196 193 197 191 185 191 199 208 216 229
208 210 221 207 209 207 205 210 199 204 207 205 203 212 216 215 207 203 211 220 207 210 203 196 201 198 194 202 206 205 212 200 198 195 202 188 188 188 188 193 200 204 213 229
206 203 204 205 204 206 202 205 206 206 206 216 217 215 210 207 207 217 212 207 203 206 195 199 199 197 195 209 203 205 206 209 196 195 192 184 190 199 192 180 192 206 217 240
207 198 202 208 213 211 210 210 214 219 214 210 206 207 210 225 217 209 201 203 197 199 201 197 192 193 205 201 198 198 196 200 196 202 189 184 186 199 195 189 202 210 228 236
205 200 208 213 216 215 216 214 209 211 209 211 209 232 220 210 201 197 205 196 196 193 198 198 196 215 201 200 191 185 183 193 201 193 188 191 191 200 191 204 207 220 233 201
198 209 213 215 216 208 207 210 211 208 205 220 222 217 206 199 198 197 192 197 194 194 194 191 210 201 198 192 195 200 195 186 192 188 181 191 194 195 202 206 215 233 205 205
206 213 215 207 208 207 204 204 205 206 231 217 218 203 200 195 190 191 191 191 193 197 192 201 201 196 199 198 197 201 199 191 186 186 189 186 193 204 209 215 236 206 207 215
213 216 204 208 206 201 203 211 232 205 222 208 210 200 200 195 191 195 190 190 193 188 189 197 196 198 193 193 202 198 190 178 183 189 192 191 204 209 222 226 204 204 212 213
213 212 202 208 203 206 196 207 206 208 208 197 195 200 201 198 197 195 190 191 190 193 196 195 195 195 200 205 210 190 180 188 188 191 195 205 205 223 219 202 207 202 217 222
209 207 197 205 203 197 216 198 197 208 201 193 193 193 197 192 196 196 192 191 197 195 197 198 201 204 190 184 189 183 192 192 186 200 208 205 225 209 196 209 202 212 223 237
207 202 202 199 204 197 208 199 196 195 197 193 194 195 197 195 197 198 195 198 199 200 203 205 211 179 183 192 198 193 194 196 201 210 204 235 206 201 204 208 211 222 242 246
209 202 203 203 201 201 204 204 201 199 200 198 199 198 196 197 199 202 207 203 199 185 210 195 193 192 196 194 193 193 201 207 207 218 233 209 203 198 213 220 226 245 246 250
208 202 200 204 197 197 197 201 201 200 202 201 201 203 203 202 185 191 185 185 188 197 189 190 194 195 192 196 194 202 202 210 215 223 203 204 201 213 223 232 244 247 245 251
205 206 203 203 203 202 200 198 199 203 201 203 203 201 194 191 192 188 193 195 194 202 189 194 197 189 198 192 194 204 209 204 235 199 204 206 214 226 241 247 255 268 253 261
209 200 204 198 198 200 192 199 197 191 191 191 189 188 187 190 191 191 194 199 199 191 199 185 201 198 185 199 202 209 220 235 211 204 206 221 228 245 248 252 261 245 258 264
198 198 202 203 204 192 194 193 194 189 190 192 192 196 192 193 197 198 197 194 192 196 200 197 196 191 204 203 211 172 223 204 213 209 228 233 249 246 259 258 250 260 267 260
201 133 197 206 205 191 193 191 191 191 191 190 191 191 193 201 198 197 207 187 197 197 194 192 202 203 204 215 197 195 216 209 227 233 240 247 249 262 251 259 262 266 279 315
201 199 197 210 201 197 192 191 192 195 191 191 190 191 198 201 197 206 195 200 198 200 203 202 203 209 183 237 217 217 205 231 234 247 247 259 263 263 259 262 272 281 400 395

GFSCGP_2pvu_pres_051.txt.gz
Presure
253 253 252 248 239 228 234 229 225 224 240 235 235 237 236 248 217 216 222 135 133 218 218 203 205 210 199 205 214 213 219 213 205 209 198 204 201 198 191 193 197 212 224 235
260 261 250 236 240 234 235 227 200 228 216 227 232 239 227 218 155 191 211 210 205 190 148 219 209 210 208 215 216 210 208 204 206 203 198 197 192 197 205 213 226 226 216 203
252 248 251 235 233 228 228 224 225 202 229 221 167 229 222 219 218 218 221 167 182 191 215 214 208 214 211 207 204 200 196 197 186 190 196 204 215 229 226 222 211 202 194 195
254 250 254 234 233 228 159 245 234 142 224 222 221 220 221 233 223 224 213 217 217 216 211 209 206 201 198 145 200 197 200 215 221 225 222 216 227 217 205 196 194 201 218 214
242 254 231 244 236 229 230 231 234 226 224 216 217 220 209 166 216 216 218 218 210 206 201 203 204 207 207 209 216 223 222 216 218 232 226 215 202 196 195 201 216 211 204 204
225 252 236 219 225 218 209 237 226 201 137 160 167 215 214 207 210 210 209 208 205 200 207 213 218 216 224 214 223 215 221 232 221 208 201 196 202 198 198 215 202 201 210 198
235 252 224 217 217 220 221 224 220 225 220 220 215 216 214 210 209 212 211 222 224 203 209 207 216 216 214 232 231 216 208 201 197 201 203 201 218 216 203 207 203 200 198 196
237 229 217 218 223 205 214 213 212 211 216 214 215 220 210 213 214 206 216 206 207 207 209 217 212 216 219 213 207 202 189 196 200 196 218 217 211 207 211 198 213 195 194 191
216 215 219 230 220 215 216 213 216 216 221 215 219 221 209 214 215 207 204 200 208 217 209 216 216 210 206 198 197 191 200 193 198 214 212 208 207 207 201 205 202 193 191 188
217 210 222 223 223 227 223 221 212 214 213 211 212 209 208 209 208 208 213 220 210 205 212 215 204 202 197 194 197 199 197 198 209 202 201 202 192 191 192 200 194 188 184 186
213 208 217 213 204 206 208 213 202 201 209 205 206 205 200 211 219 222 211 207 222 218 211 204 199 199 192 198 195 202 224 212 202 199 191 194 190 200 184 197 190 186 189 195
216 205 208 213 203 211 206 208 212 203 206 204 211 213 214 214 207 207 201 209 220 211 200 202 198 195 193 197 189 212 197 198 195 193 201 204 195 193 195 186 184 187 195 190
214 200 204 210 199 198 202 206 205 213 216 219 218 217 206 208 206 209 224 214 207 201 204 196 196 195 192 190 191 196 197 197 202 201 202 202 196 193 190 185 192 194 192 214
212 211 209 206 204 205 211 210 213 217 208 212 208 214 205 232 229 215 211 201 203 202 193 192 192 192 189 189 191 194 196 198 200 206 207 196 191 189 184 193 191 203 215 218
202 205 211 197 213 208 214 216 215 206 207 204 205 206 236 219 215 202 205 203 201 200 201 193 187 192 194 195 196 201 201 204 210 191 183 190 192 191 195 198 208 218 220 232
199 210 199 208 212 214 207 211 209 205 201 205 247 215 223 207 201 197 199 200 192 197 194 192 192 193 197 200 201 203 209 206 183 188 192 189 194 197 206 206 214 219 245 208
223 209 214 205 211 212 205 211 203 209 204 208 203 205 208 199 195 199 196 192 193 194 195 199 199 202 207 206 197 208 190 190 191 188 200 199 201 201 207 209 226 233 218 206
218 207 215 216 215 208 204 207 201 206 216 199 190 205 202 198 198 197 192 195 199 199 197 199 203 203 196 187 187 197 189 184 198 203 198 199 198 203 209 216 229 210 213 208
213 207 210 211 209 206 198 204 200 207 207 204 197 196 195 197 198 200 201 199 202 205 184 191 186 179 182 195 210 192 199 207 200 204 188 204 206 212 210 234 216 214 212 233
213 210 208 208 206 204 198 204 203 198 201 201 202 199 199 199 200 200 205 200 200 198 193 189 189 196 202 197 193 201 206 201 190 198 204 205 210 213 230 217 216 224 234 247
215 210 208 206 204 207 199 202 203 199 192 195 195 197 196 200 201 200 201 186 184 187 192 196 195 203 191 197 196 200 193 198 201 203 204 182 217 211 227 214 226 242 248 256
222 210 209 209 205 206 202 197 203 201 201 203 200 197 202 195 191 192 192 196 195 197 197 198 201 205 199 193 193 190 199 202 206 209 212 224 248 218 221 235 243 251 253 266
221 218 210 210 205 205 199 199 202 199 198 203 195 197 198 195 190 196 188 191 190 195 195 199 192 199 192 191 201 197 202 205 212 210 232 241 218 232 241 245 256 262 273 270
220 215 205 110 209 201 201 200 205 202 203 199 190 193 197 197 193 192 190 191 192 193 199 192 202 193 191 196 201 204 206 213 215 242 224 227 236 243 249 256 274 275 264 277
222 215 211 205 207 205 200 192 195 202 204 202 191 191 194 198 195 192 197 191 190 202 200 209 193 193 200 203 203 208 213 221 246 225 232 235 246 254 258 273 259 273 280 287
214 214 212 172 200 199 201 199 192 191 200 203 195 197 194 191 195 196 192 191 204 204 211 191 200 200 202 204 211 215 223 204 226 231 238 249 259 264 265 264 268 278 339 381

GFSCGP_2pvu_pres_054.txt.gz
Presure
249 254 257 258 257 256 264 233 232 223 234 133 113 126 125 233 226 127 139 135 141 125 134 214 215 232 133 224 225 137 189 199 193 193 202 113 207 188 197 213 205 205 194 196
239 258 253 263 259 255 231 227 227 228 232 229 149 152 203 204 177 139 151 163 219 216 216 205 218 217 212 165 148 217 219 214 214 142 220 206 207 205 197 203 203 198 197 202
242 239 255 254 251 237 227 221 228 227 222 227 240 230 229 236 223 237 233 223 220 216 215 216 216 215 176 203 205 207 205 206 204 201 200 196 194 196 198 199 207 217 231 215
230 226 255 247 229 233 228 220 215 220 222 218 222 226 230 208 228 222 218 211 215 216 213 218 213 203 217 212 203 206 212 208 208 210 206 203 202 207 228 218 227 221 203 196
230 228 216 236 243 227 221 224 223 229 228 221 234 237 235 222 224 210 216 216 217 217 220 214 211 209 204 204 202 198 200 203 207 208 225 220 216 232 229 207 197 196 195 192
237 235 234 238 242 230 232 224 232 198 227 230 225 227 223 225 220 200 214 203 209 213 216 216 211 210 201 203 211 219 216 222 213 220 219 223 208 197 198 196 193 196 211 208
239 237 234 243 215 218 223 212 227 232 235 224 221 221 212 132 210 208 205 200 208 212 211 212 219 233 214 209 218 219 213 234 217 207 200 193 197 197 192 193 212 212 203 202
225 242 238 227 223 217 218 222 224 223 229 231 226 224 209 210 210 209 215 208 206 207 218 214 210 206 214 241 204 218 214 203 197 196 190 197 196 193 199 207 206 198 191 191
215 224 227 225 219 216 230 224 221 213 214 207 207 209 213 214 212 217 218 224 231 210 201 198 212 228 204 205 218 210 196 199 190 194 197 197 203 226 211 208 192 200 207 209
206 222 221 224 221 226 239 224 219 218 221 218 220 212 214 216 213 214 209 209 209 216 218 221 211 207 219 212 205 198 192 191 196 194 194 211 204 204 203 201 203 200 203 205
205 213 221 216 215 217 215 221 219 226 214 211 210 207 206 208 205 203 207 212 213 209 208 204 202 219 210 202 199 192 188 195 193 191 191 196 198 196 198 203 208 211 198 193
243 205 212 214 222 202 206 206 214 210 203 204 205 206 208 210 225 217 210 207 202 205 199 222 219 202 196 200 195 193 193 192 192 193 195 198 202 207 210 210 200 187 191 192
254 232 205 213 214 211 195 202 204 205 209 209 214 222 215 221 210 212 204 207 210 234 230 216 205 197 196 187 184 190 191 190 191 195 198 200 206 204 193 192 193 190 198 206
262 244 209 212 213 214 204 204 196 213 212 214 214 218 211 205 203 204 208 240 231 228 210 206 202 189 191 194 193 188 183 190 194 199 204 199 190 192 195 188 194 203 206 205
265 239 211 237 208 206 205 200 213 213 222 217 213 211 212 205 225 236 227 218 218 209 197 192 192 194 194 194 191 189 196 200 204 196 189 193 204 196 193 204 205 203 203 209
267 243 216 211 203 201 203 212 221 221 214 207 210 205 206 221 232 219 217 208 198 196 197 192 197 194 197 200 202 203 203 196 188 185 201 203 194 195 203 203 195 205 214 212
256 243 218 225 213 203 210 203 208 221 207 210 202 206 209 210 198 201 202 201 192 193 191 191 193 198 201 209 199 192 190 191 196 203 199 192 202 201 198 204 206 213 209 234
265 240 215 219 222 209 205 219 210 219 206 208 202 204 209 213 198 195 198 194 192 194 200 206 209 211 204 201 188 189 195 199 203 197 195 202 194 206 199 205 210 212 226 224
291 238 220 219 225 209 204 218 217 216 205 203 200 203 204 209 208 204 199 196 199 200 204 204 203 195 192 194 196 197 196 199 192 204 201 193 201 203 203 210 212 218 223 220
275 260 222 220 224 214 206 207 216 211 203 200 207 205 199 199 198 198 197 199 201 204 196 191 192 194 192 197 194 193 203 183 208 201 194 203 200 201 205 213 216 228 226 234
273 220 230 219 227 220 210 207 209 204 207 203 201 203 204 200 197 198 201 198 202 196 191 190 195 189 193 193 196 200 206 208 204 191 202 200 203 208 215 218 207 230 238 240
268 220 230 223 219 213 209 209 207 204 205 207 204 201 201 198 193 199 198 191 192 195 197 197 193 188 198 198 199 206 204 205 188 204 202 205 212 216 216 240 233 233 240 252
273 225 224 222 219 216 212 207 209 209 202 202 203 201 201 200 198 198 196 191 191 191 198 186 199 198 199 204 187 206 203 185 205 202 206 200 212 220 226 240 230 238 253 255
267 221 228 218 208 218 218 212 206 209 208 204 204 197 193 198 200 202 205 203 198 196 183 196 195 191 203 203 204 201 203 204 203 209 215 210 224 224 239 229 238 255 264 275
237 210 233 221 205 206 218 213 210 203 207 203 201 202 201 199 196 193 190 193 193 188 195 196 188 203 209 202 203 206 205 203 206 217 222 226 231 239 230 238 254 267 274 274
226 230 235 221 210 204 215 219 215 203 202 199 199 200 199 198 197 192 201 193 192 202 202 197 206 199 202 201 203 206 210 212 221 228 225 242 239 241 240 258 276 274 263 273

GFSCGP_2pvu_pres_057.txt.gz
Presure
243 252 258 245 252 249 267 245 114 158 110 245 231 228 231 222 146 215 147 151 152 125 142 127 128 126 126 119 193 127 203 157 206 231 127 201 192 216 207 203 203 198 191 192
222 237 239 247 255 259 218 167 245 148 120 120 136 200 220 124 128 126 131 132 149 193 190 125 157 131 131 167 220 233 230 226 211 227 180 192 198 207 195 192 192 208 206 202
223 236 234 257 250 253 255 233 230 222 214 236 188 194 117 125 131 126 129 180 205 200 199 174 196 165 212 215 212 221 221 219 215 215 210 208 211 215 210 209 204 195 197 202
227 234 229 223 237 244 237 226 227 225 223 226 217 228 204 199 217 202 210 209 203 210 210 213 225 220 219 214 222 192 209 209 206 209 204 201 209 210 204 196 199 217 215 219
253 245 229 236 238 233 237 219 223 217 215 222 227 221 228 224 220 215 225 222 220 226 223 219 149 219 232 231 218 212 203 219 213 204 207 204 206 217 217 215 224 217 209 201
244 223 231 236 232 237 228 217 218 217 218 222 216 218 222 222 230 226 221 227 233 234 224 211 212 203 212 212 213 212 211 209 204 205 215 217 215 208 218 209 202 196 194 196
236 221 227 240 241 221 223 229 223 226 228 231 226 232 227 232 226 227 217 209 222 214 164 191 211 213 214 209 210 209 219 209 198 223 211 210 215 205 201 198 194 192 196 219
234 244 201 210 250 230 223 220 215 208 216 236 223 231 226 217 220 219 218 145 197 207 208 211 221 216 215 217 210 194 196 220 216 202 207 208 200 201 193 195 192 191 207 202
232 237 220 217 222 237 233 216 218 225 220 216 221 219 225 227 222 222 211 210 210 211 210 216 225 214 210 205 215 224 219 200 202 200 204 200 194 193 190 192 188 193 195 196
214 238 235 220 209 223 226 228 224 228 215 209 204 207 207 209 216 214 222 216 211 211 211 207 201 207 217 215 202 214 204 209 201 200 197 194 186 190 187 191 195 195 201 208
220 227 226 232 206 217 212 215 219 223 228 221 218 211 214 216 212 208 204 203 204 206 203 216 216 206 204 203 202 219 207 195 199 194 192 186 184 190 190 193 199 204 202 190
210 223 222 235 264 212 206 211 210 213 223 213 215 204 205 205 200 203 201 205 216 218 217 213 204 203 201 222 218 202 195 197 193 188 186 193 192 191 197 202 203 193 183 191
202 218 224 232 257 232 208 204 205 207 208 205 202 208 205 204 211 209 213 208 205 210 211 208 212 229 220 212 202 201 198 191 195 198 200 193 200 207 201 192 183 183 200 200
217 211 228 240 239 266 213 213 208 206 199 202 195 208 223 209 205 203 206 205 209 213 215 249 218 210 205 200 197 193 198 199 194 188 195 204 192 184 184 185 197 204 199 203
215 219 232 231 231 256 227 213 211 207 209 198 209 217 227 212 205 202 198 208 210 202 244 211 208 200 198 197 197 195 195 192 197 201 209 193 185 186 197 199 204 191 202 194
212 206 224 247 250 258 233 213 226 204 207 208 219 221 216 212 207 203 204 218 241 210 217 211 198 192 195 194 192 197 201 198 205 196 185 182 194 193 203 199 195 211 189 203
203 218 224 224 241 258 225 229 236 207 216 202 206 217 210 213 205 208 208 222 202 194 205 205 201 198 196 197 199 199 200 197 188 185 193 191 198 192 206 208 208 187 203 205
221 214 240 248 277 261 231 220 223 226 212 216 213 213 217 208 205 204 201 213 209 204 203 202 199 198 195 196 197 191 189 194 190 186 195 200 197 204 205 205 188 204 204 210
202 226 227 230 302 258 233 224 223 231 219 207 218 219 214 209 206 198 200 205 201 200 198 198 197 197 200 201 196 195 196 198 185 195 201 206 204 195 205 207 204 208 205 216
215 216 237 246 262 267 229 224 217 227 219 212 208 216 211 209 204 204 207 205 201 200 199 199 198 193 191 191 193 197 185 192 197 202 206 211 204 204 202 204 210 208 219 232
214 226 228 224 236 281 230 226 219 218 229 224 209 210 212 209 209 208 205 205 206 203 198 198 198 199 196 200 199 195 191 195 204 204 210 203 202 202 207 209 218 223 233 224
216 212 227 249 256 272 210 228 223 212 220 221 210 211 206 203 204 207 204 205 204 202 200 201 202 204 205 198 197 191 198 202 206 208 197 204 205 209 210 223 231 227 241 232
209 224 234 221 258 269 200 228 224 219 213 219 218 212 209 209 211 206 206 204 200 199 201 199 198 199 191 200 196 196 206 207 208 191 205 205 210 214 221 237 217 247 232 240
230 218 200 218 235 239 247 231 222 219 211 213 217 220 213 211 203 207 207 203 202 202 201 198 199 198 203 200 205 205 207 203 199 203 207 211 220 216 236 235 240 237 239 243
228 206 241 254 239 230 255 237 223 219 212 205 205 212 221 216 205 202 202 202 206 203 202 203 200 202 202 208 206 211 201 203 203 211 212 224 221 239 238 240 237 239 243 253
238 250 193 231 249 241 232 228 230 219 216 209 201 207 221 219 216 208 207 206 201 201 201 204 209 211 188 208 211 204 202 208 211 213 227 224 243 230 241 239 243 239 250 268

GFSCGP_2pvu_pres_060.txt.gz
Presure
230 255 227 260 258 261 266 279 261 246 244 249 171 171 136 117 171 236 133 127 208 132 146 116 120 122 125 119 117 126 127 126 117 126 125 128 203 205 198 196 218 207 189 186
192 251 248 239 250 258 263 246 247 243 235 182 149 134 165 228 127 144 141 201 175 125 209 171 136 139 183 123 112 117 192 130 143 131 159 207 208 177 206 208 208 210 194 208
201 225 254 240 247 246 260 250 242 235 242 193 206 110 167 229 154 213 210 213 188 171 123 142 198 202 165 172 212 214 175 202 174 177 214 222 217 210 211 207 204 203 194 201
201 227 254 235 244 246 254 234 223 224 223 214 226 205 214 129 128 129 142 132 124 122 134 133 134 204 207 194 204 202 211 218 207 212 214 207 202 211 211 198 195 201 199 201
197 223 264 231 238 243 238 220 222 226 225 220 225 217 223 220 219 217 219 208 215 217 201 202 200 200 201 209 206 222 205 210 218 211 213 213 205 210 213 212 203 208 216 208
208 211 226 240 218 239 244 232 227 226 221 216 219 219 210 221 222 220 211 208 209 210 211 215 225 230 232 229 217 202 216 209 206 206 205 204 205 208 208 218 213 205 210 200
185 176 222 245 212 226 238 223 232 222 223 222 234 237 226 215 217 220 213 215 225 224 225 224 219 202 205 208 212 213 213 213 210 210 221 211 206 205 235 202 207 205 203 201
185 177 199 228 229 214 231 227 219 220 212 211 222 232 229 233 233 223 230 227 221 220 223 211 214 217 218 204 204 214 207 213 218 205 195 212 223 218 208 201 202 200 194 194
202 212 216 205 238 219 218 218 226 217 215 212 213 213 222 218 211 210 211 210 209 206 153 211 210 213 214 215 212 215 203 200 195 219 211 211 198 203 201 195 198 195 191 193
208 196 178 225 218 243 223 218 218 220 222 227 223 216 212 212 205 208 209 206 210 207 206 209 209 213 214 215 210 201 200 210 204 201 210 197 202 197 191 199 193 195 196 191
202 208 183 216 219 223 241 206 221 215 205 221 232 214 214 211 215 208 208 212 212 213 214 211 210 204 205 203 206 217 209 203 200 203 211 204 195 196 194 193 195 195 188 200
205 189 203 220 232 200 215 265 204 217 217 212 213 222 223 225 229 225 211 209 204 202 203 206 208 213 218 211 205 203 199 223 221 206 200 193 198 193 195 194 190 198 204 195
207 204 201 178 239 203 228 238 266 210 209 213 203 206 200 202 206 208 208 205 208 213 218 224 220 210 207 206 215 241 226 211 203 200 199 198 198 202 196 206 215 196 187 186
203 197 204 163 188 214 226 218 271 220 215 214 205 206 201 190 195 200 215 212 219 221 214 208 203 207 205 241 234 213 206 201 199 198 200 198 199 203 209 197 192 185 185 191
190 193 212 212 211 213 222 248 295 249 214 210 211 205 211 205 202 208 209 209 209 212 210 211 238 255 234 214 208 201 200 198 200 195 198 200 204 194 195 193 190 182 191 197
202 204 204 213 210 232 215 233 277 253 233 247 205 201 208 210 212 222 212 206 209 207 213 209 209 204 207 207 204 202 199 197 200 201 203 198 193 186 189 186 186 195 195 206
196 190 204 184 222 211 223 235 276 261 237 230 232 199 202 208 200 224 212 212 208 204 209 217 219 207 204 203 204 204 202 200 198 199 195 194 191 192 185 188 195 201 207 203
204 200 203 219 193 226 223 234 245 266 241 227 214 225 213 202 219 209 214 209 208 206 203 203 206 205 203 200 198 199 201 196 192 192 188 189 189 182 193 193 210 207 196 205
199 199 212 224 224 224 196 239 229 248 243 232 223 234 230 214 211 217 213 210 209 204 203 204 203 202 201 201 196 192 194 195 195 200 206 198 189 195 198 211 205 205 201 208
203 207 225 209 211 220 203 219 243 252 265 233 235 217 227 223 207 205 211 212 206 208 202 202 199 199 201 200 199 198 196 199 200 199 182 192 202 205 211 202 204 201 209 206
212 219 222 220 218 223 196 224 229 230 276 220 223 218 209 227 227 213 210 211 207 198 205 209 202 205 203 199 194 194 199 197 195 196 200 205 210 216 204 205 203 208 207 220
212 220 219 219 217 213 200 220 236 251 276 201 235 224 218 211 218 218 213 211 208 205 205 207 205 205 203 203 202 202 200 198 205 206 209 216 218 204 202 206 204 211 224 231
201 208 220 208 207 217 219 210 233 244 245 271 202 229 223 218 210 218 221 217 218 213 214 201 202 205 202 202 209 208 204 201 208 212 212 191 209 205 212 213 212 229 235 219
206 162 206 210 206 211 170 230 234 252 234 231 253 239 226 220 216 206 207 208 208 212 218 217 214 208 208 209 204 206 209 208 214 217 187 203 211 210 211 218 224 236 215 226
215 210 209 215 201 220 232 213 244 251 253 239 239 247 203 228 220 218 209 203 205 211 208 213 211 201 208 212 210 210 210 214 196 207 204 212 206 216 217 227 237 220 227 241
210 212 215 214 229 227 242 193 246 209 244 232 236 233 237 234 230 223 221 210 203 204 204 207 217 213 206 205 195 214 210 193 202 210 209 218 218 223 230 239 245 226 241 245

GFSCGP_2pvu_pres_063.txt.gz
Presure
183 183 213 262 251 260 260 277 259 255 242 247 236 236 226 226 232 232 146 213 132 135 201 162 219 208 213 222 235 226 120 118 131 142 126 122 119 130 136 180 134 133 173 201
177 213 206 234 243 255 264 251 250 244 241 243 244 150 238 235 172 232 214 196 217 129 222 218 211 208 219 215 217 122 125 126 124 121 123 130 131 140 199 190 200 213 211 206
187 191 206 239 248 256 262 234 234 247 233 250 230 233 241 219 166 183 211 146 222 182 168 174 174 133 122 129 125 123 122 128 130 171 216 182 153 141 212 210 210 215 211 207
173 191 198 217 248 222 248 226 222 223 222 244 232 236 203 203 124 218 228 215 213 139 159 134 122 118 121 193 134 131 187 211 201 205 196 208 211 211 205 208 212 205 199 198
193 190 200 188 226 244 236 243 203 219 226 223 222 230 121 239 223 139 127 127 131 198 216 214 211 125 127 127 134 201 208 197 199 214 213 203 207 206 215 222 209 212 219 213
179 178 198 175 222 229 228 250 239 201 219 213 213 218 219 217 227 226 219 223 218 217 204 203 210 221 210 201 200 204 178 161 236 209 208 215 209 211 214 221 218 221 211 204
182 201 203 184 211 220 257 219 224 231 220 216 220 217 214 209 218 218 224 224 224 221 217 213 213 219 226 231 214 215 207 206 204 206 205 207 213 212 215 215 200 214 224 206
193 179 204 214 179 214 219 241 216 219 223 219 213 218 229 227 223 228 221 217 220 226 231 227 227 226 225 213 216 216 213 209 202 205 211 207 210 205 203 220 219 208 206 204
194 172 204 197 188 180 228 219 277 213 214 213 218 214 216 214 211 214 226 232 228 220 224 221 216 210 159 209 209 212 214 215 211 210 214 201 201 205 222 209 208 204 207 200
169 179 162 192 182 205 214 220 230 258 210 221 218 217 224 221 214 213 218 218 221 222 221 217 215 215 213 214 212 210 209 206 202 198 199 204 209 201 201 202 206 212 194 196
188 197 205 192 197 197 217 218 218 243 268 205 214 216 224 233 214 212 209 210 212 211 210 216 219 217 219 216 206 203 202 203 202 206 204 198 195 196 197 212 199 199 197 194
209 206 175 197 184 218 177 207 214 238 271 244 204 206 221 212 214 211 218 224 226 215 214 212 213 205 205 204 201 210 211 210 205 201 201 202 205 211 214 201 198 196 197 199
201 164 196 194 206 209 186 220 206 223 271 258 222 212 205 208 205 199 199 201 204 206 202 204 205 205 212 212 210 204 202 205 204 207 219 214 218 202 197 195 194 195 202 197
182 204 195 197 191 200 213 166 217 206 228 270 250 217 213 209 208 204 201 196 198 198 208 220 213 215 212 200 194 202 202 203 239 221 225 211 199 199 199 195 198 201 199 194
188 197 188 201 199 207 197 195 217 217 221 283 252 242 213 214 208 208 204 208 197 206 212 219 219 209 203 202 206 243 240 232 224 210 209 201 195 195 197 195 194 191 189 194
183 191 196 185 197 194 214 211 191 238 220 236 268 239 246 252 211 206 200 202 207 212 211 213 210 211 207 209 238 231 207 203 206 205 202 200 195 195 196 194 185 199 203 183
184 178 188 183 196 204 202 204 211 239 210 225 261 243 231 233 237 215 200 201 208 208 216 213 212 209 209 208 204 203 211 202 194 194 193 194 195 194 199 199 201 198 195 191
187 184 185 196 204 203 202 209 215 210 208 228 234 250 248 226 221 227 209 210 208 200 217 217 211 212 209 210 208 206 205 204 203 203 202 201 201 198 198 197 194 192 201 199
192 173 206 193 195 196 203 206 217 236 219 240 229 236 278 238 215 210 219 224 217 206 206 210 208 208 203 211 208 206 204 203 203 202 203 199 194 195 196 194 196 201 201 203
191 195 201 192 201 213 215 204 222 240 184 210 227 234 278 267 229 217 212 220 222 214 207 204 203 209 207 202 200 201 208 200 199 201 202 202 198 198 197 203 195 213 216 207
193 194 196 203 206 208 203 214 232 211 227 219 216 230 220 277 242 223 221 205 212 219 223 215 208 207 205 206 203 201 200 199 200 202 199 195 204 203 202 212 209 208 202 212
200 201 208 205 211 210 216 228 218 213 222 225 212 223 243 239 267 246 228 223 217 209 210 208 212 213 212 214 216 213 209 204 206 204 204 204 205 210 217 205 201 200 214 208
204 208 211 200 212 217 224 217 219 214 212 209 227 223 240 247 231 242 201 224 222 220 218 210 211 207 206 207 207 218 219 215 214 212 206 206 214 209 194 213 202 215 208 205
213 217 203 216 219 225 204 204 214 221 220 214 233 206 241 243 254 234 241 198 228 224 222 219 217 214 209 208 204 204 206 208 209 214 215 216 201 211 207 201 216 202 210 215
214 209 212 184 219 200 203 212 212 213 221 216 225 223 243 242 249 247 236 240 244 203 234 229 226 222 222 222 219 213 210 207 207 199 211 202 211 214 202 216 211 219 221 237
216 208 209 202 209 209 184 210 213 222 220 216 228 227 245 246 239 241 234 229 239 250 237 244 249 222 227 226 222 216 215 212 212 216 209 216 220 211 217 224 214 226 241 240

GFSCGP_2pvu_pres_066.txt.gz
Presure
192 194 205 168 201 248 275 272 266 259 247 241 234 232 235 143 220 216 216 210 208 209 208 207 134 136 217 135 224 136 142 224 133 134 218 211 143 145 118 123 131 130 124 123
183 187 194 202 211 227 229 242 251 252 252 245 236 228 232 212 206 229 221 212 204 189 231 211 208 207 204 201 126 134 219 162 191 202 204 124 119 121 130 126 143 143 153 179
196 180 179 173 185 216 240 250 220 228 243 251 246 234 245 219 235 223 227 212 219 130 215 176 163 117 180 220 216 214 212 210 208 214 207 128 128 128 178 206 212 176 207 211
194 190 176 182 186 217 250 226 240 223 225 220 243 232 249 242 237 114 223 224 141 110 220 224 203 203 188 210 138 206 141 210 140 198 208 128 147 136 195 213 185 208 220 214
188 189 179 165 181 201 214 239 249 233 203 223 216 217 226 232 233 117 238 123 133 211 211 215 128 130 187 207 208 207 138 115 121 123 126 178 193 196 205 223 215 220 215 224
198 201 181 206 184 202 193 231 239 235 219 220 223 220 215 218 215 238 231 226 179 212 220 206 220 188 146 195 205 181 127 155 201 203 204 204 209 231 223 212 213 209 216 217
195 198 180 182 187 190 204 213 244 232 224 230 223 222 220 217 217 213 216 229 220 215 214 210 211 210 205 205 209 211 211 230 222 221 226 215 214 212 209 203 210 209 213 205
192 171 190 177 172 168 199 189 220 254 227 225 226 223 221 224 230 227 221 214 213 221 221 215 217 222 218 215 220 229 227 221 209 211 216 214 209 205 211 212 216 206 205 210
177 182 174 189 179 187 176 198 207 206 216 232 206 215 219 215 215 223 220 226 236 233 228 225 226 234 233 231 216 222 222 218 212 208 211 212 212 210 207 204 206 211 218 204
183 175 164 195 174 204 180 178 199 190 208 241 251 218 221 222 219 224 218 221 220 221 219 220 219 219 217 219 221 221 218 215 211 207 205 202 201 206 204 206 211 208 203 204
189 178 201 165 183 206 203 194 211 209 199 214 242 261 231 217 213 222 230 219 219 218 216 220 220 218 215 218 215 209 206 204 204 204 204 203 206 209 207 204 204 199 202 215
191 193 175 195 192 186 185 207 177 195 207 220 218 259 268 250 214 214 212 218 220 219 223 219 208 204 205 204 204 202 206 207 206 211 216 210 206 204 203 195 206 204 217 202
186 186 199 202 201 188 170 201 207 189 185 192 222 224 269 262 239 208 203 209 207 201 205 203 202 199 202 213 217 211 214 214 211 207 204 203 200 201 202 208 221 218 209 197
178 195 194 190 194 176 191 191 207 193 205 200 219 220 238 279 256 241 207 210 208 211 203 206 211 202 203 213 216 214 207 205 205 202 203 200 206 225 224 223 200 202 195 197
197 198 189 197 177 190 186 196 183 205 200 182 206 220 206 281 262 242 241 242 204 207 207 205 205 212 217 217 215 206 205 205 203 205 204 246 210 200 202 200 195 193 193 193
189 164 197 197 195 189 185 190 197 197 214 201 214 217 216 222 255 243 236 237 241 240 224 201 201 205 208 199 206 197 202 200 201 203 215 206 206 205 201 195 197 197 194 192
189 187 197 181 179 183 170 193 188 200 196 205 230 198 197 219 243 258 237 227 225 220 211 204 201 204 204 210 211 211 204 203 202 203 203 203 202 201 199 197 194 194 199 199
200 191 194 171 182 174 184 185 204 193 190 208 198 205 225 206 224 265 269 236 221 221 218 208 208 212 208 202 214 216 207 205 202 202 204 199 198 199 200 200 200 202 203 200
201 186 185 170 169 191 181 195 198 193 194 207 207 222 217 220 197 236 259 271 233 221 215 216 215 219 214 206 202 204 204 203 205 206 203 198 198 201 202 200 196 199 186 202
185 189 179 166 184 181 182 189 202 199 197 209 208 227 215 210 202 211 228 248 262 231 224 217 215 217 222 219 212 202 202 202 203 204 203 203 202 202 204 205 206 206 209 210
195 195 171 169 188 191 181 173 196 210 199 210 184 230 231 209 216 219 222 236 244 254 227 216 220 212 206 211 215 213 209 205 209 210 209 209 210 212 211 212 209 206 211 212
196 199 202 195 199 191 186 194 206 202 205 200 211 229 212 209 223 210 215 233 244 253 240 246 225 218 199 216 205 205 206 200 212 211 207 195 209 204 202 200 205 205 207 194
197 197 197 196 190 178 196 200 200 208 211 219 223 222 212 211 204 220 213 226 224 244 253 242 234 243 215 220 222 221 216 215 215 213 212 214 218 218 211 211 212 213 211 215
202 196 193 203 185 205 209 213 211 208 219 212 220 202 211 209 218 223 211 223 223 246 259 242 245 235 237 244 243 234 228 228 228 227 227 226 224 223 224 227 228 227 226 228
201 205 201 204 201 211 212 213 211 220 212 208 206 199 215 221 226 221 225 227 242 248 241 245 237 239 250 242 232 264 259 253 254 250 248 242 241 233 237 237 233 235 241 246
205 209 207 205 216 189 211 220 220 217 214 212 219 215 220 229 224 223 224 216 248 203 238 238 246 273 265 245 240 234 232 249 238 234 233 234 261 270 255 249 241 238 235 240

GFSCGP_2pvu_pres_069.txt.gz
Presure
186 193 190 198 186 198 218 250 252 259 260 249 233 226 236 239 212 132 227 223 209 207 217 214 220 208 220 206 219 134 134 134 135 135 132 135 135 132 145 145 136 137 132 138
192 192 187 185 181 189 185 239 244 230 261 251 240 229 236 211 214 229 211 211 205 208 211 212 216 152 135 208 222 232 223 211 157 163 159 180 201 135 135 134 151 126 120 125
191 192 196 186 189 190 176 209 249 240 220 243 249 237 238 237 237 108 162 215 207 213 130 202 200 199 207 200 212 218 223 217 134 161 132 133 120 126 171 176 176 214 207 140
187 185 187 186 188 199 172 213 209 240 239 214 229 225 238 247 231 240 203 209 215 205 205 209 201 212 206 203 206 195 213 220 204 212 208 197 175 182 161 140 138 190 152 181
189 188 187 188 184 173 196 210 200 248 230 216 231 226 227 228 230 225 125 118 158 112 130 172 120 133 125 212 121 127 215 215 127 213 210 216 212 126 131 182 144 191 167 201
185 181 194 185 183 184 179 187 193 225 242 216 228 219 225 225 220 233 202 215 127 211 115 128 219 211 220 181 202 206 202 207 213 214 207 211 137 159 208 208 205 204 206 216
185 190 190 185 189 176 192 197 208 205 218 242 226 221 222 217 222 223 234 226 227 212 211 184 217 209 219 209 208 209 212 218 209 203 212 211 209 203 209 208 220 235 214 217
192 188 192 181 177 188 196 194 182 173 190 208 251 235 211 219 227 223 220 221 231 223 221 222 215 214 218 212 214 221 218 209 208 210 212 215 216 235 216 202 214 214 212 215
193 191 192 189 175 171 183 196 174 202 208 210 220 278 248 221 219 216 216 233 228 222 221 222 225 223 223 221 221 224 226 223 220 226 232 225 221 218 215 216 215 214 207 207
192 192 189 186 181 191 182 169 184 201 193 198 205 226 263 250 234 224 225 216 219 216 221 231 235 230 229 225 221 216 225 224 214 213 213 211 211 215 216 211 207 207 208 211
180 193 181 193 172 193 171 171 187 173 200 189 196 203 246 254 268 245 209 217 227 229 221 215 213 216 213 214 214 215 215 212 214 214 211 209 206 206 206 205 208 214 205 206
188 188 186 179 177 186 197 168 196 170 192 209 197 212 180 227 230 274 261 225 213 226 241 227 220 222 221 223 226 221 210 206 204 205 202 205 215 215 211 197 200 199 196 209
196 197 199 176 186 172 187 195 199 192 186 199 198 204 208 220 222 235 289 259 242 216 204 208 206 201 204 200 194 195 199 204 213 217 208 210 211 209 205 202 203 201 210 222
204 192 191 179 190 185 181 194 188 176 167 177 197 205 203 191 211 230 236 265 250 243 221 213 216 210 211 208 208 202 195 211 219 221 212 211 208 205 204 207 207 205 241 240
208 186 181 189 200 185 182 193 195 185 184 184 185 208 215 188 214 230 227 254 253 243 241 245 238 211 214 215 218 205 208 206 202 213 210 204 210 208 205 204 204 203 202 205
201 187 186 186 201 180 187 185 193 165 193 183 189 191 196 206 204 224 220 206 212 252 241 234 231 230 230 213 212 205 204 213 214 207 204 206 205 207 204 203 204 205 201 196
196 191 185 180 194 183 197 192 185 187 188 183 183 194 194 204 209 205 222 224 217 244 267 243 235 230 223 216 214 212 209 209 208 205 207 210 203 199 203 202 200 199 197 196
199 197 198 183 195 189 172 155 179 188 183 188 187 194 181 199 207 214 222 228 217 224 242 260 258 230 224 224 221 216 214 219 217 210 206 202 206 205 202 198 197 194 194 198
206 194 185 188 191 196 188 195 176 168 181 190 197 193 196 200 202 212 210 219 209 192 221 232 246 263 235 226 222 223 218 215 216 220 222 218 211 195 206 209 209 208 208 207
167 202 193 179 195 200 178 191 177 179 163 207 190 183 196 198 202 207 212 222 206 215 216 209 213 226 248 251 238 225 221 223 218 213 209 212 209 211 209 206 205 205 205 205
196 206 202 198 192 192 180 187 178 177 178 189 199 185 194 194 208 207 213 221 209 209 212 226 213 225 238 246 248 238 235 222 217 210 219 221 211 210 218 217 215 211 206 205
206 202 203 195 193 178 180 190 173 180 194 192 198 197 196 203 211 207 214 220 209 210 218 224 220 226 220 233 256 239 247 238 236 239 238 232 229 226 223 215 214 219 231 233
196 203 203 196 167 183 190 193 169 179 179 198 185 197 200 211 211 169 220 192 203 209 225 223 218 223 213 228 244 248 237 239 238 242 253 239 229 227 238 245 201 238 239 239
207 208 208 202 178 194 194 192 188 199 200 195 205 195 208 217 213 220 213 219 219 215 223 225 224 216 223 233 240 238 239 229 270 258 251 238 240 232 233 228 215 224 249 249
212 212 210 205 199 195 200 201 201 195 195 199 201 209 222 215 220 214 218 217 220 215 221 224 212 226 217 236 212 237 224 236 224 236 231 213 215 217 210 226 245 254 251 250
204 206 212 212 210 202 197 198 199 200 205 205 211 214 215 217 214 213 212 218 221 225 223 212 225 231 224 237 225 236 243 221 248 245 229 212 203 213 237 221 229 218 210 261

GFSCGP_2pvu_pres_072.txt.gz
Presure
180 183 195 195 196 195 203 196 196 219 242 263 248 238 244 255 229 243 211 238 254 230 230 232 248 134 126 175 198 191 185 192 128 193 125 123 194 136 202 153 143 132 166 202
178 179 197 195 196 195 198 185 189 223 241 228 253 245 241 244 206 242 213 217 211 242 226 223 215 237 239 236 199 207 218 209 205 205 201 203 200 178 133 197 134 136 139 159
194 174 194 198 195 194 199 188 200 197 252 228 248 241 237 238 248 239 214 217 214 201 204 225 220 224 224 226 234 212 244 222 212 213 174 213 209 169 170 175 175 150 122 157
181 181 195 190 195 186 199 188 185 201 211 245 227 233 242 240 234 206 118 211 196 226 206 210 221 224 228 229 221 234 213 229 216 215 212 203 204 131 184 180 194 195 196 193
186 179 168 189 193 197 189 191 180 191 223 199 240 231 237 241 260 240 227 122 206 185 209 168 196 203 200 212 200 208 209 203 202 200 228 225 210 208 135 153 206 205 123 190
186 185 178 168 187 193 183 186 191 180 202 184 200 240 222 226 227 241 241 218 218 210 119 211 117 117 175 179 197 210 202 200 202 212 204 210 216 223 225 223 222 214 221 215
190 189 177 174 175 188 186 193 186 193 197 195 195 257 237 227 224 218 225 235 222 214 204 139 119 205 138 182 191 201 202 209 173 212 211 211 212 205 209 210 207 206 204 206
192 179 182 182 195 190 195 197 195 163 199 192 169 201 258 252 236 225 222 224 225 225 222 213 214 213 217 212 216 205 213 222 222 205 205 206 209 209 211 202 217 217 215 233
193 187 186 182 181 194 197 193 184 167 199 174 196 195 184 206 260 237 213 223 224 224 222 224 223 221 221 222 224 221 215 217 215 212 218 227 228 210 208 216 236 218 226 216
193 191 191 183 190 194 193 191 172 183 172 179 178 188 207 206 204 263 238 242 221 216 227 230 230 227 213 217 217 223 229 228 229 227 230 237 244 244 234 225 222 211 213 217
197 193 201 186 171 191 187 188 177 168 202 175 187 183 193 190 202 211 239 237 296 250 218 218 229 229 220 221 216 217 224 219 217 218 220 224 223 219 219 210 206 207 204 205
194 192 195 184 185 178 188 185 179 189 195 173 174 187 195 187 195 209 202 240 237 320 269 221 218 215 233 222 219 216 217 223 219 219 221 215 216 229 195 204 206 213 215 217
199 203 195 189 190 183 186 180 184 190 193 190 191 187 179 179 183 203 173 201 232 234 293 267 237 212 213 212 209 207 207 206 208 217 248 188 188 187 202 214 214 214 212 211
195 199 194 192 188 186 179 194 187 183 192 190 185 182 184 182 185 182 191 212 212 232 226 273 266 260 254 212 208 211 210 203 200 236 210 210 220 213 208 216 213 209 204 206
193 196 205 188 187 184 202 198 191 184 193 191 178 193 188 181 176 185 198 196 211 192 232 227 246 263 254 251 245 251 213 213 214 209 203 202 200 201 205 202 210 212 219 213
195 195 191 193 214 187 200 191 187 196 191 188 183 183 197 184 182 185 180 191 209 207 217 227 218 229 260 267 250 231 242 247 242 224 220 218 206 211 217 217 217 213 215 206
197 201 191 196 192 200 204 180 185 190 190 190 192 193 183 185 184 195 189 200 201 200 221 228 224 224 221 206 245 267 252 233 229 226 224 225 228 220 222 221 222 219 221 214
201 199 196 195 196 193 197 177 165 191 189 168 193 192 196 182 186 176 190 193 192 208 214 216 220 210 217 237 229 232 234 253 252 237 226 222 220 221 220 218 218 199 215 215
204 204 202 176 209 183 200 180 182 186 192 192 192 195 173 178 189 192 191 188 195 198 214 221 221 213 211 234 228 229 224 226 234 254 249 243 241 236 226 218 216 217 216 215
211 207 202 202 192 181 199 180 178 185 181 191 183 196 191 186 182 184 199 189 202 198 215 218 211 211 211 216 227 227 221 228 224 227 256 256 243 239 237 236 237 237 236 233
210 204 204 203 163 202 200 189 192 185 178 164 195 173 174 166 174 187 200 184 198 201 222 217 213 213 218 214 220 226 224 216 227 225 248 236 248 232 248 262 248 235 247 246
205 207 208 202 209 204 206 198 135 170 179 196 199 189 188 178 183 189 196 180 197 207 222 219 216 213 216 215 227 218 219 223 219 238 204 237 232 225 258 245 245 250 238 232
205 208 211 212 206 203 205 203 196 190 186 190 198 183 190 161 176 196 198 195 200 210 216 215 208 213 210 220 222 221 239 223 226 213 222 226 184 259 245 249 247 246 226 227
216 211 210 208 207 172 174 205 200 200 200 198 190 184 196 196 194 197 180 200 204 208 210 211 209 212 215 208 221 208 215 223 236 205 196 201 240 233 235 227 237 237 242 241
215 213 211 205 207 211 211 210 207 203 194 183 181 188 184 196 202 194 193 202 205 208 212 204 206 213 219 215 212 217 227 215 231 233 221 235 249 254 243 198 231 230 216 220
220 209 207 209 209 210 209 207 204 198 198 200 187 199 193 195 199 194 195 210 199 211 212 202 213 218 219 212 216 216 225 233 212 187 235 249 235 237 234 225 221 215 216 238

GFSCGP_2pvu_pres_075.txt.gz
Presure
155 206 165 165 206 180 201 199 192 200 200 217 238 274 240 226 221 219 229 250 241 266 282 261 272 195 202 197 125 117 116 195 189 184 183 189 176 112 111 146 114 122 156 182
177 189 176 164 201 186 196 195 187 202 193 227 250 230 266 255 250 229 257 215 246 263 267 253 256 283 221 215 154 127 123 121 181 195 195 176 180 192 192 189 181 187 188 130
167 197 200 154 197 185 191 193 196 186 198 192 201 242 258 253 260 260 236 227 229 238 232 249 255 236 227 234 226 220 197 192 194 176 194 192 201 191 189 191 187 185 183 184
196 189 187 208 198 187 178 186 192 199 191 187 194 212 235 237 250 259 249 229 226 216 235 226 224 244 233 230 211 193 200 157 203 183 171 187 174 185 183 184 189 133 131 197
192 177 167 180 158 188 180 171 195 184 195 185 199 206 249 238 224 258 245 225 215 194 222 147 178 232 221 238 245 207 202 193 188 222 198 188 199 125 118 191 193 198 197 203
194 172 201 209 176 187 187 176 184 190 174 196 181 204 204 258 233 232 252 229 226 217 180 227 213 154 224 224 226 241 155 121 234 233 224 103 237 242 240 244 240 219 210 209
177 196 196 199 190 194 186 178 179 192 193 192 194 187 209 200 267 229 230 251 228 223 218 221 214 210 203 159 159 212 216 124 183 217 223 212 210 212 212 208 214 222 223 221
189 195 187 194 204 190 195 180 174 195 183 183 176 199 193 199 212 274 249 226 223 241 219 218 212 214 129 213 216 201 225 133 210 206 211 200 213 210 212 221 219 216 216 214
214 198 213 192 202 195 196 183 175 193 195 184 178 186 188 190 194 213 235 267 257 226 223 252 221 221 223 213 208 207 210 211 204 209 213 211 207 213 220 220 206 209 222 227
204 200 200 185 205 197 165 188 179 193 194 183 174 187 180 185 207 208 189 240 239 237 256 253 226 246 222 224 226 222 217 222 225 225 231 236 237 232 231 228 227 230 208 228
225 225 218 215 212 196 168 184 183 191 190 189 194 189 192 179 187 194 203 203 210 239 238 310 349 235 226 230 233 240 240 230 218 207 210 215 241 218 221 300 220 226 210 201
214 210 218 240 206 194 195 195 187 176 191 192 184 198 201 191 191 179 189 193 201 207 228 242 285 297 247 225 218 219 233 192 209 165 183 197 214 223 204 198 212 197 204 205
250 244 243 223 203 195 204 198 189 181 189 184 185 184 181 190 185 188 186 191 203 176 196 220 240 235 281 275 230 205 213 213 209 206 193 208 216 206 189 196 186 187 199 196
231 221 236 216 203 200 196 193 189 195 181 195 198 188 197 185 176 182 184 189 199 180 171 206 224 237 220 248 280 276 244 211 199 200 186 188 189 187 192 186 187 195 205 216
258 248 222 206 199 194 186 194 197 180 182 191 194 188 188 195 170 188 180 186 182 195 165 191 207 220 233 224 235 242 244 256 285 216 218 229 228 204 202 206 221 228 203 205
248 234 217 210 201 193 196 194 196 183 178 193 198 188 189 197 202 186 196 182 179 180 192 198 167 212 220 232 227 211 230 245 249 240 253 262 229 224 231 213 214 217 223 223
245 229 211 211 206 205 200 184 199 189 178 195 188 188 198 184 198 195 189 187 187 181 185 191 188 199 221 228 227 222 215 230 236 237 230 237 237 242 248 267 261 245 241 234
240 218 219 213 204 204 197 192 202 210 185 194 186 183 189 200 192 197 190 197 176 186 194 198 194 203 207 224 221 220 218 220 211 233 239 234 233 229 240 245 261 257 246 240
236 228 213 212 209 193 199 201 195 193 198 196 192 185 188 195 198 189 197 199 179 190 183 190 201 195 203 217 225 219 215 221 217 231 227 225 217 232 227 230 244 241 229 230
232 224 219 214 204 201 196 186 193 180 181 184 199 187 178 188 193 194 186 204 195 175 178 192 196 195 197 210 213 215 208 215 218 217 226 217 223 218 228 238 174 185 213 236
236 166 221 213 210 199 200 199 175 199 181 192 111 194 187 185 188 191 198 194 174 182 178 180 198 191 196 205 205 213 204 213 216 217 210 221 215 224 198 239 233 211 222 243
240 228 218 222 203 209 197 194 191 197 184 134 190 201 198 189 186 185 194 193 191 164 175 198 194 190 201 204 202 214 211 210 213 220 213 214 214 218 228 231 230 214 249 237
235 223 220 222 210 207 207 201 202 95 215 182 189 203 208 198 191 195 194 195 189 184 197 192 202 192 195 205 200 204 210 207 206 213 218 216 220 215 223 227 233 232 253 243
229 192 222 218 212 206 200 201 205 201 199 198 203 210 209 184 206 193 183 192 188 190 196 194 201 192 194 207 203 214 207 208 217 217 221 217 221 216 206 198 237 248 255 252
221 226 217 218 210 211 205 206 201 199 190 206 208 204 207 204 207 188 199 181 179 196 191 200 196 206 208 211 204 212 202 220 217 222 221 215 222 216 209 229 241 261 252 235
169 218 221 210 219 213 201 204 208 204 206 210 206 203 205 203 209 207 204 200 200 204 204 163 211 209 212 204 211 212 203 217 214 221 218 222 218 218 222 229 255 252 239 251

GFSCGP_2pvu_pres_078.txt.gz
Presure
196 180 209 169 169 198 177 202 205 203 201 197 184 196 282 272 231 218 195 230 192 195 221 238 302 233 227 188 184 182 197 219 212 184 120 116 172 173 169 170 168 170 171 176
190 184 194 189 198 190 187 205 205 191 193 188 181 193 240 269 244 233 237 218 218 240 271 260 259 231 287 226 198 192 185 212 216 211 196 176 185 181 174 180 187 183 179 179
197 193 186 188 203 190 196 211 200 179 184 187 203 193 197 261 263 254 256 249 253 220 256 247 253 257 271 218 181 191 183 181 131 171 120 174 169 193 182 179 175 188 167 177
197 192 197 192 189 196 187 176 198 194 177 193 185 206 204 239 249 257 254 252 234 233 239 229 240 216 109 236 218 178 183 185 197 183 192 170 196 190 179 202 199 191 191 194
190 188 153 187 193 186 169 204 204 196 184 196 189 195 190 204 255 237 275 250 241 229 236 240 229 238 238 240 244 234 200 193 197 173 192 186 191 204 203 191 194 123 156 171
190 188 189 188 185 192 188 199 201 198 186 176 193 184 169 196 217 246 245 272 238 237 216 213 232 228 225 231 222 226 210 209 191 192 200 193 181 174 187 181 181 190 172 191
187 186 190 191 190 190 180 175 200 197 184 188 192 186 171 194 200 265 251 241 248 233 235 233 202 224 228 230 237 230 223 222 218 220 201 224 214 153 189 185 183 197 198 183
187 184 186 194 200 182 173 178 189 201 198 176 195 183 168 176 189 197 261 250 236 237 230 221 223 224 222 221 214 228 195 202 124 120 123 129 171 187 189 192 225 224 216 211
194 185 193 196 195 192 197 191 210 206 198 188 198 185 186 178 179 196 198 228 231 247 243 240 239 220 224 221 207 222 217 215 213 202 217 228 222 219 213 218 216 215 220 221
198 181 194 199 205 201 197 198 193 193 197 192 190 187 187 175 187 185 188 199 212 174 225 226 238 319 307 246 225 218 218 215 212 212 210 210 210 214 217 222 233 238 225 214
199 203 196 202 207 202 210 196 190 224 202 194 181 190 185 187 178 182 191 183 193 197 205 237 228 243 348 297 232 239 240 222 230 228 225 223 220 217 218 207 208 202 224 204
203 209 199 203 207 208 198 214 217 210 198 196 181 187 192 187 183 166 188 182 185 193 194 205 212 236 236 291 275 236 227 225 228 225 234 225 221 165 216 177 208 201 177 184
206 214 211 216 209 209 208 212 206 205 204 197 190 181 189 186 183 181 193 182 179 179 192 200 187 210 238 225 232 277 259 225 217 224 213 203 223 206 212 220 188 205 212 223
228 222 230 225 218 210 212 235 227 229 203 192 193 187 183 187 195 188 170 186 178 181 182 190 171 191 183 210 226 225 224 250 268 246 227 214 208 205 196 200 183 184 185 183
265 271 259 250 237 241 223 227 257 222 203 196 192 197 190 188 203 185 188 177 162 185 180 181 191 186 194 188 210 234 231 213 217 222 228 232 242 227 233 222 206 200 195 195
275 277 263 250 254 250 273 252 243 218 206 201 194 195 187 191 191 190 189 184 196 196 195 181 182 183 194 204 187 210 221 240 235 220 222 246 239 236 238 245 249 246 232 236
318 273 263 266 257 256 228 244 229 217 209 195 191 186 189 186 195 194 187 191 174 196 197 189 186 159 189 191 209 188 194 217 216 223 218 226 229 240 241 233 236 235 226 238
281 274 260 265 262 233 238 230 216 214 206 198 192 177 194 185 186 201 188 194 196 196 197 193 180 179 177 174 191 201 196 203 211 214 221 210 214 219 227 222 225 222 217 222
272 260 258 263 266 247 240 227 214 215 205 195 193 195 196 191 197 196 183 187 196 203 192 197 200 191 171 178 176 194 194 191 204 213 205 214 207 214 218 221 223 221 218 221
270 270 277 287 259 248 229 221 218 205 204 205 186 180 188 209 188 193 194 182 189 195 196 195 199 201 173 194 172 197 193 181 196 203 207 208 212 210 218 216 214 226 222 225
273 278 257 271 254 248 228 220 213 210 205 206 199 201 189 198 193 192 196 194 189 192 190 192 193 191 197 176 196 192 202 196 192 202 213 205 210 208 207 220 218 228 219 212
265 238 265 264 245 235 228 218 213 215 208 204 202 194 152 187 187 190 192 202 201 197 197 192 184 194 196 193 188 193 196 203 208 206 214 205 213 207 220 213 216 216 215 226
261 262 272 268 243 226 210 221 216 212 208 200 198 218 176 195 207 182 198 189 195 199 204 200 200 182 192 174 188 202 203 209 208 211 210 204 210 206 210 205 219 214 220 227
270 262 272 263 244 197 219 217 214 204 210 197 197 202 199 213 197 187 197 195 197 196 205 163 193 202 202 203 200 198 211 208 194 207 207 208 211 203 211 208 216 217 220 220
270 262 262 256 235 229 216 220 212 212 202 203 207 199 202 200 197 199 200 201 200 208 187 162 203 208 209 189 203 203 202 204 204 210 205 205 205 205 213 213 208 219 206 224
271 245 254 244 239 229 222 217 211 212 203 202 201 204 198 207 205 204 201 204 208 207 194 198 207 191 204 205 200 202 203 196 209 204 212 203 202 218 213 210 212 220 227 229

GFSCGP_2pvu_pres_081.txt.gz
Presure
206 191 187 183 202 199 189 187 197 193 188 170 188 211 190 201 243 258 230 204 220 218 229 176 197 167 167 203 189 192 165 180 171 165 160 156 162 181 164 168 172 191 152 170
203 179 195 197 179 203 194 192 202 178 192 204 187 202 201 210 197 281 282 231 222 223 209 224 209 192 196 190 167 168 181 194 184 186 154 152 127 145 130 188 123 169 178 166
188 196 193 190 198 197 201 197 191 194 197 197 194 173 183 211 199 239 255 271 240 229 227 190 201 220 203 180 182 177 170 182 173 172 173 161 182 165 179 119 173 182 173 174
199 192 192 192 188 199 198 197 188 193 187 196 175 197 198 207 206 210 258 251 272 268 262 246 256 264 268 279 292 184 182 181 173 176 175 170 170 170 204 193 183 175 179 181
152 201 194 185 188 197 189 184 199 176 184 202 197 189 175 195 212 208 288 244 269 272 244 231 223 241 246 260 266 272 266 206 205 182 184 178 170 168 226 217 210 202 181 171
197 200 190 190 191 201 196 196 181 178 168 195 193 182 190 201 196 190 221 264 234 273 241 211 216 233 224 240 242 157 259 244 208 193 189 192 205 197 192 207 209 196 155 212
191 197 192 199 189 194 194 192 197 185 184 189 189 187 176 190 190 192 190 245 253 233 252 239 219 210 214 223 228 236 257 206 208 201 207 185 182 199 184 182 172 151 194 191
194 190 193 186 188 201 210 188 183 194 175 182 188 192 199 173 197 192 172 212 256 256 233 236 236 234 209 212 220 221 227 228 224 230 199 211 208 190 189 178 182 189 182 184
201 203 198 192 199 197 204 206 192 176 191 191 185 185 197 186 194 190 183 183 207 224 235 241 253 234 241 234 226 213 219 215 232 213 214 197 192 197 236 235 232 192 202 188
206 207 197 206 209 203 204 191 192 189 190 197 183 182 193 185 182 191 181 180 188 197 200 211 229 263 234 307 285 239 222 225 214 209 216 223 221 212 207 209 216 214 215 209
206 215 200 194 203 196 191 190 185 193 191 204 200 189 197 184 177 190 193 180 185 179 189 195 206 213 256 251 287 275 246 243 238 222 217 218 217 216 213 212 211 213 217 231
206 210 199 197 191 185 201 187 198 193 195 198 202 208 217 188 188 191 178 190 180 185 179 192 203 206 214 236 238 288 275 239 227 240 246 246 242 241 235 237 223 225 217 218
202 201 203 202 202 196 198 188 195 185 201 204 194 191 212 189 179 194 191 187 174 185 183 174 184 193 189 182 213 240 242 265 253 236 231 227 224 231 233 214 225 204 201 193
215 208 204 193 200 196 202 193 193 198 193 194 200 203 208 197 183 183 192 186 183 186 181 180 184 168 185 197 190 192 202 237 236 226 223 243 255 246 242 238 224 213 203 201
220 222 210 199 199 207 206 205 203 199 202 211 208 203 212 202 194 183 182 183 181 184 185 184 178 189 182 180 182 174 198 185 211 218 229 231 227 215 216 205 223 219 222 223
278 287 240 221 212 213 213 207 215 212 214 204 214 203 225 212 202 187 175 188 199 185 180 187 194 191 195 181 178 183 185 197 199 190 194 210 214 217 212 212 228 233 234 238
300 293 279 286 248 236 221 220 214 228 229 234 218 223 237 215 203 197 188 179 188 191 184 178 195 196 192 196 193 174 182 180 178 190 197 198 200 202 205 210 211 204 205 215
285 277 302 273 271 272 262 258 262 263 259 256 253 259 235 206 208 195 191 187 187 194 188 186 192 178 185 196 196 186 192 171 174 187 198 196 189 191 196 212 205 203 211 210
279 275 273 292 268 279 274 267 262 259 255 254 256 253 222 209 210 193 191 186 186 188 198 190 190 197 198 180 196 197 201 183 182 190 198 187 201 199 200 201 213 208 207 216
279 285 274 260 289 356 263 260 256 254 259 227 244 242 218 210 208 195 190 183 199 182 194 198 193 191 199 196 191 184 193 187 199 197 193 192 190 204 207 207 205 198 209 214
274 262 275 262 269 296 310 268 255 256 214 216 236 233 213 213 210 198 180 191 198 200 204 192 202 203 200 195 191 194 191 198 193 188 171 184 195 207 210 196 206 203 204 205
265 260 252 264 270 263 285 255 229 193 209 215 230 225 217 211 211 209 199 186 189 197 194 193 197 200 203 201 205 199 198 193 203 166 189 205 200 208 208 194 210 207 212 211
269 268 274 284 292 284 254 257 259 209 212 230 223 224 218 211 209 203 193 202 187 201 175 187 185 200 210 180 192 202 206 202 201 207 213 189 204 202 206 201 211 206 208 216
280 254 256 265 275 266 280 260 255 239 241 230 223 221 121 212 177 204 200 184 195 191 189 190 204 194 186 200 198 204 197 205 202 209 211 205 204 204 210 209 197 206 211 215
284 266 270 267 269 259 277 263 256 244 244 231 223 218 216 210 208 207 212 208 207 196 190 201 194 193 195 204 205 162 207 207 205 208 204 205 205 209 205 209 202 205 215 217
286 260 270 277 280 267 265 261 250 239 241 225 220 213 216 211 204 210 204 198 199 202 199 202 200 196 204 199 196 210 207 202 201 206 203 206 205 206 209 201 210 216 216 224

GFSCGP_2pvu_pres_084.txt.gz
Presure
190 193 187 200 196 182 193 195 196 196 190 167 197 204 214 206 197 210 199 268 288 238 231 228 207 185 185 186 204 183 176 179 185 188 179 171 182 176 167 111 183 164 120 193
188 197 190 194 196 190 194 178 200 191 202 203 190 178 207 216 195 201 212 232 258 270 239 223 216 224 192 195 196 198 177 176 178 188 175 161 181 182 174 173 169 125 122 152
205 189 185 174 199 176 183 195 188 187 206 185 194 192 203 204 193 211 198 220 268 252 271 245 214 221 175 184 165 203 159 170 181 173 163 182 172 170 172 120 119 152 173 124
185 193 194 199 177 195 196 180 189 194 195 188 188 185 196 207 186 206 182 215 261 248 276 260 268 226 216 204 176 185 177 191 165 182 163 176 180 177 164 164 160 188 170 165
185 192 198 196 201 197 190 199 188 191 198 193 181 194 182 204 195 211 189 197 212 244 270 248 249 250 260 206 203 185 197 179 192 167 183 164 176 179 192 162 165 162 169 166
202 190 193 189 196 182 192 196 181 189 183 192 183 179 180 197 205 197 193 193 212 257 244 260 243 245 241 243 250 253 261 194 168 189 183 188 167 183 169 180 181 173 173 178
203 197 191 194 193 199 197 195 198 193 191 207 177 179 191 186 207 200 191 200 198 248 254 238 252 230 211 225 231 229 250 248 259 222 193 193 185 181 141 157 188 170 140 145
211 207 206 199 199 191 189 196 196 184 188 187 188 188 180 193 195 192 196 189 191 197 221 239 236 237 238 227 211 219 226 234 238 241 240 248 230 192 184 181 184 180 177 180
209 205 210 205 203 202 195 194 194 191 198 197 184 178 177 178 193 183 198 190 191 194 201 203 211 215 238 235 239 238 216 223 225 227 227 228 240 229 201 188 192 206 201 190
215 209 207 210 206 204 197 195 194 199 195 198 185 180 191 181 187 199 199 180 187 198 182 188 200 200 203 256 245 313 266 236 220 216 220 234 227 226 231 232 232 230 190 197
213 215 214 205 207 203 204 204 202 204 192 172 182 174 177 186 194 195 207 190 190 184 197 182 194 187 190 195 229 261 301 260 245 228 220 212 218 226 225 225 231 226 224 227
217 217 209 201 197 203 207 207 206 202 209 193 183 170 188 185 181 186 209 192 177 190 177 178 191 182 186 194 188 206 253 291 272 245 235 235 237 235 237 235 234 251 226 232
217 214 218 212 210 210 217 215 217 193 197 192 185 188 193 197 184 168 199 189 181 178 193 188 191 193 174 186 191 182 180 196 245 249 252 269 259 250 254 256 260 261 230 255
227 227 220 214 207 211 205 200 210 205 205 186 181 193 190 197 182 192 183 193 184 179 184 189 183 192 186 181 177 184 188 185 198 194 173 225 233 232 233 235 233 233 234 237
237 224 232 221 186 209 210 204 205 193 201 188 192 183 178 191 186 188 187 197 184 180 177 184 190 189 188 185 184 189 187 183 179 186 197 183 196 201 203 207 212 217 219 217
267 251 239 221 223 214 213 203 205 204 198 196 197 194 194 194 190 192 199 186 198 186 181 178 180 193 186 190 175 203 197 185 183 182 183 182 182 187 193 200 188 194 202 207
291 265 263 266 237 235 223 209 211 198 202 202 202 200 197 198 196 192 208 184 212 197 183 181 181 181 190 176 189 194 193 193 197 196 182 181 180 176 182 178 183 197 202 196
279 257 297 287 276 273 93 148 217 219 215 206 201 201 199 199 205 209 206 209 233 197 189 185 178 184 187 193 175 181 185 183 191 187 193 196 193 173 179 180 183 187 194 194
285 228 286 280 284 292 276 280 232 225 215 216 218 213 210 206 209 203 205 228 220 200 196 190 187 185 183 188 187 193 190 194 197 178 184 170 191 189 180 188 181 171 190 196
333 334 363 295 292 294 287 287 281 278 279 267 257 242 226 218 217 213 240 239 227 214 193 196 194 193 183 188 190 196 192 193 196 193 185 184 196 200 201 200 203 173 192 197
320 335 345 294 314 323 327 324 289 282 255 264 269 267 260 263 257 247 243 237 239 217 191 195 197 193 192 186 183 189 200 195 196 194 201 201 194 188 191 196 201 205 207 201
362 377 317 299 283 274 281 259 293 171 221 283 264 262 252 259 248 241 242 247 234 213 200 197 202 194 189 191 200 193 215 209 212 193 189 198 201 198 191 201 198 203 209 204
362 375 302 289 262 261 273 257 261 300 304 255 277 258 254 247 245 252 248 239 224 213 209 211 206 190 180 205 197 186 228 187 202 195 195 185 195 173 188 204 201 202 205 203
326 360 289 274 255 265 279 281 290 248 307 331 257 259 246 214 247 233 251 232 224 213 211 202 200 206 208 191 190 192 194 198 197 200 186 194 198 162 203 209 203 205 206 209
324 302 304 286 274 269 270 259 285 269 279 296 281 250 246 246 230 220 245 232 222 213 212 203 210 209 185 204 202 193 182 192 199 200 203 202 190 202 211 202 204 201 202 210
317 272 279 269 266 267 264 273 260 267 259 289 259 249 237 240 227 221 243 230 221 211 204 208 205 207 202 202 202 211 205 206 202 201 205 199 194 208 204 200 207 204 204 202

GFSCGP_2pvu_pres_087.txt.gz
Presure
160 204 195 186 197 203 184 192 194 196 188 191 193 201 193 203 200 205 192 226 215 218 260 277 233 205 182 208 197 187 175 188 167 168 184 177 162 153 171 182 186 179 161 183
200 198 186 182 190 199 192 191 194 187 193 176 191 202 188 192 195 205 192 209 204 209 273 267 278 211 180 200 172 188 188 191 185 176 183 176 167 176 158 187 170 167 175 158
228 207 193 199 196 190 180 193 191 202 179 190 181 203 196 190 204 205 201 208 203 214 261 284 273 271 211 194 199 176 184 195 191 172 170 172 166 190 178 158 163 171 164 159
194 213 201 191 197 188 194 198 170 167 188 186 178 199 191 185 189 198 209 202 207 203 225 279 266 263 263 247 197 192 172 187 200 190 181 178 180 182 180 176 169 169 151 112
197 212 205 194 198 194 204 194 187 176 183 185 192 195 201 178 184 185 206 206 192 192 205 263 257 252 248 254 268 254 193 173 172 196 178 162 172 176 161 188 183 165 163 171
203 214 210 191 193 206 186 192 188 194 194 184 190 187 194 179 182 187 201 213 200 201 200 223 261 254 235 247 244 247 257 197 189 173 165 176 173 174 179 168 167 175 180 159
214 201 214 206 198 205 187 198 196 194 189 190 181 189 191 187 178 193 192 182 213 197 196 200 239 250 248 238 236 238 238 248 209 213 186 198 238 115 137 178 170 169 169 172
203 212 208 205 203 203 197 196 194 201 180 185 187 186 194 176 183 187 150 181 204 203 199 183 203 220 231 253 252 248 236 230 234 245 244 246 192 182 189 188 188 182 182 180
207 215 207 205 210 206 205 203 188 197 192 193 191 188 185 183 179 181 153 183 189 208 189 199 185 199 207 208 211 243 249 246 241 228 231 240 240 238 235 207 183 195 193 193
194 211 210 209 207 209 207 204 197 211 199 195 191 181 176 187 171 178 179 189 192 194 195 191 196 178 196 199 190 204 246 309 255 238 220 222 226 226 229 229 228 235 231 230
207 100 180 208 206 207 216 210 205 211 203 193 189 176 185 189 196 175 185 170 190 183 199 189 175 200 185 191 196 195 198 275 304 249 233 224 220 218 216 218 221 220 220 220
220 219 214 211 209 210 213 216 210 218 210 198 187 176 186 193 177 194 174 177 186 194 207 193 192 170 196 199 189 191 193 182 204 292 268 259 246 236 228 227 227 227 228 223
227 199 225 221 218 210 205 222 218 218 216 213 201 187 188 191 180 185 188 193 181 186 185 199 186 191 182 189 195 187 185 178 186 171 198 168 238 240 248 242 238 240 238 234
224 227 222 219 211 212 214 214 218 218 219 206 200 191 180 195 195 184 186 184 188 189 176 191 202 185 187 191 190 191 176 185 183 191 182 188 194 206 214 220 223 223 222 218
224 224 227 220 210 211 208 209 212 221 210 211 207 189 199 192 187 180 188 191 194 186 176 179 198 201 197 185 188 190 193 183 192 193 199 189 183 175 179 194 190 192 201 204
234 168 224 231 223 219 210 201 213 222 221 201 212 210 205 179 181 186 204 196 193 197 182 175 195 195 199 196 183 183 182 193 182 199 194 205 184 184 184 184 182 183 181 184
251 257 245 233 239 244 235 224 211 210 211 218 198 187 205 187 180 186 200 182 188 180 195 184 178 199 183 215 184 188 185 188 190 186 185 194 192 188 194 188 179 194 193 201
287 270 272 263 261 270 260 234 236 234 211 218 201 206 202 201 194 189 190 198 179 189 185 186 182 200 180 218 204 185 182 185 191 193 177 196 196 193 192 173 181 175 177 190
276 283 288 301 306 316 91 236 264 235 226 233 210 199 203 197 202 191 200 201 202 195 199 187 185 202 201 200 209 192 188 186 179 184 190 191 193 183 190 192 187 188 180 200
269 271 284 283 289 295 298 280 280 277 267 235 246 235 209 199 213 173 205 210 207 203 206 188 211 197 211 198 221 195 193 189 188 190 187 193 193 192 186 183 181 184 192 193
344 344 339 337 340 295 168 282 295 282 266 141 273 255 237 225 220 204 200 202 202 195 202 211 207 194 200 217 212 203 193 194 198 193 193 189 190 190 203 203 201 196 179 196
315 314 315 317 284 314 406 286 285 288 219 285 280 279 280 277 270 219 217 210 211 213 211 210 216 212 221 233 220 214 199 193 196 196 195 200 204 205 204 204 200 196 186 187
291 294 294 300 376 363 345 340 304 281 299 275 286 297 292 281 279 261 256 224 219 222 243 241 242 240 244 236 216 218 212 197 173 203 188 192 212 219 191 182 186 198 173 190
288 290 285 302 382 328 318 313 309 307 294 281 285 294 276 277 285 276 254 256 253 251 246 242 243 239 246 242 222 218 215 208 201 209 171 169 197 185 196 198 199 196 190 202
283 279 274 300 350 291 285 287 279 272 278 199 285 276 319 327 311 251 268 248 243 244 237 242 245 234 238 245 226 217 214 206 206 200 205 192 200 199 183 199 206 212 214 207
275 285 265 300 304 287 276 269 281 292 278 271 258 260 272 304 315 278 244 250 243 230 224 251 235 233 235 243 228 216 212 214 196 196 205 207 201 198 203 202 212 201 203 211

GFSCGP_2pvu_pres_090.txt.gz
Presure
226 159 233 198 195 171 206 191 187 190 200 189 191 196 196 187 205 199 193 198 206 212 204 278 259 269 221 212 202 214 175 181 191 180 189 167 168 153 169 186 195 180 155 169
216 202 204 218 208 212 197 185 142 183 202 192 187 194 195 198 195 202 189 205 210 208 206 275 257 289 261 222 204 202 206 168 185 186 186 175 166 186 174 154 159 178 154 178
223 200 200 209 215 201 206 207 198 187 203 193 188 192 192 196 187 201 190 193 213 206 211 221 283 276 281 259 200 197 193 181 157 184 189 178 167 181 172 178 163 169 174 163
211 220 204 225 208 202 213 206 194 185 185 194 178 189 190 188 180 203 186 191 198 217 208 220 238 271 259 261 229 202 193 172 182 179 183 187 168 163 163 172 185 167 162 163
230 220 209 229 223 205 198 207 204 194 199 193 177 179 173 184 191 200 185 186 188 203 215 201 214 270 258 252 260 218 199 189 201 182 177 192 186 180 175 170 174 179 177 179
228 206 220 225 212 216 194 209 207 198 187 194 180 193 180 186 194 194 189 184 196 200 197 205 202 207 258 251 244 250 263 204 196 193 195 163 164 187 180 165 160 160 161 161
214 208 228 223 216 211 191 208 205 203 188 196 187 186 192 191 190 190 195 175 188 195 186 212 192 195 237 261 255 248 246 252 228 197 195 197 188 198 176 182 182 178 167 167
209 243 229 219 212 214 196 209 209 207 201 184 190 186 193 191 190 191 196 187 188 185 197 213 200 185 194 204 227 250 259 252 243 242 255 234 210 165 120 122 120 180 118 169
246 241 230 222 213 207 208 212 208 197 202 190 182 183 185 180 188 188 194 184 173 189 186 193 196 199 184 206 204 207 214 237 268 249 221 234 249 251 202 208 188 188 188 183
235 180 219 221 210 203 209 201 213 212 196 187 198 174 180 178 185 188 197 183 180 179 193 197 205 199 201 185 189 199 202 207 266 289 243 234 223 230 240 236 235 229 222 187
235 231 223 218 191 207 210 197 216 213 206 196 184 189 187 188 190 188 193 186 179 181 185 185 208 201 194 199 194 191 194 186 207 256 276 244 229 220 218 222 221 220 223 226
239 232 217 215 183 166 210 208 213 216 210 208 204 178 187 188 192 188 189 181 186 179 196 200 197 203 195 192 192 200 200 206 191 195 202 274 248 234 227 220 216 215 216 216
229 241 223 226 222 218 206 206 212 215 206 214 199 184 190 186 187 189 190 189 185 178 176 180 188 186 192 204 194 178 201 201 187 184 185 184 193 197 256 263 263 263 253 246
231 226 229 231 219 221 217 218 223 217 226 210 208 199 184 182 188 189 189 197 186 195 181 185 178 179 190 193 202 197 187 200 186 199 189 189 187 187 191 192 191 189 187 203
234 233 232 225 222 230 216 207 210 213 215 225 215 218 202 188 185 191 190 195 202 192 196 187 196 189 192 185 194 193 202 185 192 198 184 175 178 186 186 178 178 177 179 181
237 232 234 231 226 223 224 222 211 216 220 217 223 222 211 213 197 183 188 197 198 187 202 193 201 179 189 197 179 199 195 194 186 188 191 190 201 185 199 202 186 200 201 200
221 250 238 227 228 224 220 223 225 221 221 231 239 214 219 205 197 203 199 190 193 205 194 193 196 193 187 188 190 174 202 185 185 202 183 190 190 190 195 182 193 200 200 201
250 249 254 248 239 228 229 226 219 215 221 227 224 215 215 217 207 202 189 199 195 199 201 195 198 195 197 202 186 185 183 206 190 197 203 185 186 186 184 188 192 198 196 194
255 249 249 267 250 242 231 230 233 131 231 225 219 201 209 222 225 197 190 207 192 202 199 191 199 200 193 182 199 195 189 188 207 200 191 211 196 188 185 190 189 193 194 193
260 269 261 255 255 260 244 257 250 222 225 243 163 236 201 211 205 112 202 206 210 205 205 193 184 190 193 188 189 186 202 187 202 198 211 204 214 197 191 189 189 190 194 195
268 270 276 279 275 203 98 268 262 268 262 250 245 249 256 255 205 198 200 204 192 190 205 202 201 192 194 198 200 201 196 198 203 196 196 205 211 210 197 191 195 206 205 194
276 280 278 284 290 284 281 287 291 303 317 295 264 274 274 282 283 238 200 196 199 203 200 202 201 202 202 203 203 204 200 199 197 201 196 186 215 215 207 193 190 180 185 186
272 275 272 263 270 268 314 278 281 284 291 292 131 305 307 291 286 279 274 240 210 210 201 200 201 202 205 207 201 202 204 206 196 201 229 208 217 211 205 197 176 193 167 185
271 264 276 311 309 311 302 309 143 183 356 303 138 286 283 292 283 278 275 279 232 225 216 215 212 208 209 212 211 213 213 209 208 227 236 218 216 211 208 211 205 210 203 194
289 300 293 274 284 306 290 328 383 358 324 342 319 303 279 275 288 292 214 281 268 269 269 256 240 227 221 216 212 209 212 230 236 237 231 243 215 215 208 206 207 208 205 181
286 271 271 282 295 275 297 332 352 328 321 306 304 181 283 286 288 259 271 287 284 290 279 260 270 262 253 247 243 244 239 235 239 230 231 234 236 229 218 211 210 214 212 214

GFSCGP_2pvu_pres_096.txt.gz
Presure
182 210 228 218 236 239 214 222 224 237 152 199 206 192 191 201 192 191 181 191 187 195 200 205 204 213 224 229 249 218 221 210 217 203 196 185 175 183 163 177 176 166 168 180
214 235 220 230 242 233 234 256 253 211 149 216 203 201 192 200 195 153 185 188 195 202 198 202 213 204 225 220 314 227 226 235 213 176 190 200 175 169 170 165 167 193 169 158
223 240 241 258 235 223 206 274 197 234 222 217 220 189 206 200 199 194 189 188 197 207 197 196 211 198 201 234 252 236 223 215 220 201 207 194 205 148 183 165 178 174 185 196
226 216 237 250 248 297 295 253 241 233 223 214 224 201 200 192 195 195 192 186 195 206 188 200 206 208 196 216 269 290 230 216 206 211 170 201 208 169 149 173 174 173 182 168
249 242 221 236 321 298 279 242 238 228 224 224 212 202 201 202 187 198 188 193 191 199 187 196 180 209 204 227 281 292 268 215 213 205 209 196 197 184 163 157 181 177 150 192
228 248 215 235 292 285 264 239 235 225 224 227 205 202 214 202 196 201 195 181 190 190 194 193 183 199 201 212 228 280 283 233 205 208 204 183 174 188 187 187 176 185 174 177
235 230 315 300 289 273 257 236 231 224 225 209 202 225 197 195 194 196 194 185 191 188 195 190 188 200 199 199 213 233 272 283 221 201 198 212 180 173 169 194 170 181 193 186
242 337 302 278 277 261 266 244 227 226 226 217 212 204 186 189 203 194 193 180 189 191 191 195 190 202 205 196 212 213 231 267 279 215 201 185 212 185 177 173 175 180 167 165
292 313 285 275 269 265 253 234 224 225 224 223 216 204 191 207 200 196 195 186 190 190 191 190 181 201 200 197 201 201 201 216 232 265 244 200 192 205 195 191 179 170 176 177
298 298 288 268 258 249 245 228 219 226 223 219 218 203 221 209 202 198 192 185 196 191 187 184 189 198 198 186 194 212 196 196 204 214 225 242 274 201 201 186 202 195 195 195
289 284 275 258 254 249 238 232 228 228 215 219 217 209 203 212 198 194 198 198 198 191 189 191 190 197 193 199 191 208 207 208 192 197 204 209 219 298 271 225 199 191 187 182
286 275 268 254 253 247 241 241 228 228 216 218 218 208 206 224 211 205 200 204 192 194 192 187 189 186 185 195 192 181 188 212 210 209 191 197 199 346 275 255 262 231 222 211
245 265 262 254 252 237 233 234 248 243 223 212 223 207 201 207 212 207 198 200 199 189 197 189 189 184 187 193 197 193 194 199 204 198 207 185 195 201 216 264 256 241 234 247
262 261 259 255 243 241 230 229 245 252 243 222 206 197 196 205 217 219 205 200 199 197 197 196 185 192 190 191 195 194 192 198 192 197 211 208 203 183 187 190 209 215 222 233
269 261 258 252 243 251 231 235 237 244 228 211 204 203 207 216 210 209 200 200 195 196 192 201 186 195 191 184 187 196 193 194 190 185 187 191 201 202 196 182 180 183 183 190
262 255 255 251 236 233 225 224 222 214 210 211 207 215 208 212 207 199 208 207 198 197 198 200 208 191 188 194 183 206 193 184 194 186 179 186 191 200 215 197 202 198 192 192
272 253 259 248 247 225 229 225 218 217 216 239 233 217 212 216 209 207 208 198 206 206 202 199 198 198 200 192 187 195 198 192 189 191 198 194 189 190 188 198 198 204 199 194
258 255 254 251 245 222 221 226 242 234 225 237 226 229 226 219 215 209 202 208 200 207 208 207 192 203 202 200 198 193 195 191 189 185 190 197 201 192 185 183 181 185 186 196
254 255 252 244 243 247 225 225 220 217 229 230 235 227 229 215 222 217 210 209 211 213 203 203 203 205 210 197 191 190 195 202 195 196 187 202 193 199 185 176 170 190 186 183
255 253 253 241 240 244 258 232 225 216 234 237 230 226 234 222 218 209 215 211 211 210 205 204 214 194 193 202 209 205 191 201 181 202 190 192 190 202 194 190 191 193 196 183
270 261 253 245 242 242 239 249 239 254 250 235 230 224 228 230 229 225 221 215 213 213 206 207 214 215 222 213 213 213 209 215 212 215 211 210 200 199 203 189 194 189 193 192
269 263 249 245 240 243 246 253 238 246 247 239 243 238 233 227 224 223 227 229 223 224 218 218 218 219 203 207 207 219 221 220 212 207 207 207 208 207 203 205 206 204 201 200
271 268 254 249 255 248 251 255 240 100 240 205 248 232 232 239 237 233 229 228 226 225 226 223 213 214 219 210 233 198 217 214 213 207 204 211 201 196 190 188 211 207 206 201
269 265 262 265 249 242 253 258 262 242 121 237 168 250 253 256 223 249 245 249 209 236 234 226 223 223 237 208 201 216 221 212 211 202 204 202 196 181 182 208 192 201 205 203
273 274 268 260 259 259 249 240 252 256 258 257 245 243 262 257 235 276 282 273 263 249 255 250 243 233 233 223 222 124 217 190 208 215 208 201 196 201 202 203 207 197 196 205
273 271 269 265 271 269 267 267 265 264 271 271 279 286 296 163 317 120 307 310 316 325 325 316 245 258 254 246 239 229 228 226 224 215 204 210 213 211 208 204 205 207 211 204

GFSCGP_2pvu_pres_099.txt.gz
Presure
216 191 219 215 221 213 211 226 204 227 231 234 246 236 240 205 209 207 190 196 189 192 174 196 197 203 211 217 215 239 329 236 225 206 199 182 195 193 173 171 173 170 173 162
199 200 203 209 199 214 219 214 220 233 229 247 262 232 80 195 203 215 203 190 198 198 193 195 190 205 213 209 211 225 231 240 229 213 191 187 183 201 180 175 178 180 171 186
211 206 207 204 205 200 217 227 208 223 230 246 218 273 211 223 215 217 203 202 191 202 196 200 197 201 201 213 227 212 220 325 229 214 206 197 176 182 191 169 174 184 173 174
230 222 224 216 214 217 225 230 239 259 263 207 218 266 239 222 211 211 208 200 199 205 201 195 199 197 197 194 220 216 260 305 244 231 215 204 185 198 183 168 170 175 167 183
218 207 235 238 238 234 229 220 229 233 235 281 229 280 219 221 203 213 96 204 193 190 191 197 197 191 202 196 204 211 223 293 252 228 232 210 186 176 183 182 181 172 169 173
238 249 238 227 241 237 239 244 253 233 241 329 273 249 219 215 206 199 228 212 200 200 189 195 187 194 197 196 193 208 204 274 288 236 232 218 215 164 183 181 183 176 170 164
236 240 243 242 235 248 250 249 230 234 339 296 254 248 216 218 209 203 220 215 200 193 197 190 187 196 187 199 198 213 202 223 276 271 216 224 216 192 184 185 181 194 175 167
249 236 239 239 249 255 238 252 282 266 299 282 253 234 212 215 219 215 207 210 225 190 192 193 181 195 190 206 201 209 195 209 245 267 266 214 211 221 197 175 207 185 204 192
264 250 244 241 245 252 248 238 284 308 284 277 246 229 216 214 215 211 212 214 212 191 196 193 191 191 187 182 198 208 199 203 210 234 267 215 203 207 212 214 189 187 196 208
254 254 237 249 252 242 245 235 228 291 276 269 234 221 216 210 211 206 200 216 207 191 198 181 196 198 192 188 201 197 203 191 207 203 221 240 209 197 191 195 205 205 208 176
268 263 252 256 262 246 253 291 281 271 266 266 231 219 212 212 218 215 205 202 211 201 187 193 180 188 189 189 189 193 204 194 207 205 200 207 224 232 202 195 198 186 203 190
287 269 312 298 304 305 305 291 272 268 259 255 233 219 211 210 213 216 205 197 209 205 199 196 194 197 197 188 186 194 198 194 194 211 203 193 201 205 219 229 211 201 198 195
312 313 307 302 306 283 282 267 261 259 251 245 234 215 214 211 216 215 209 202 215 216 207 202 197 198 192 194 192 189 190 191 197 195 183 210 201 192 196 197 253 272 264 249
272 267 307 290 278 280 282 274 265 253 243 234 220 216 212 214 211 209 212 204 200 217 206 198 289 195 194 193 191 187 191 186 185 197 210 198 208 220 190 188 191 218 230 256
277 270 257 284 268 291 259 262 247 241 241 237 225 217 217 217 208 211 214 210 200 216 222 210 190 196 204 198 191 193 184 188 191 185 199 186 196 179 200 207 190 187 185 195
306 242 255 259 260 253 263 247 248 249 244 235 232 225 235 220 208 204 212 217 211 198 210 214 210 201 193 202 196 200 195 183 198 195 198 199 201 205 183 193 200 195 186 191
286 289 277 249 255 247 263 251 240 234 235 227 221 230 246 237 225 213 228 207 200 208 210 217 213 202 200 192 200 202 171 193 184 180 196 196 192 190 198 195 205 187 197 202
275 282 281 256 256 261 254 250 250 235 228 234 222 237 239 238 232 224 206 200 203 200 203 208 210 200 202 195 190 188 207 194 190 191 181 189 195 192 193 175 172 195 207 203
278 278 283 266 264 247 245 247 247 244 236 228 225 230 227 229 221 211 209 215 222 213 209 207 204 212 204 205 201 200 192 187 209 198 201 177 193 195 188 181 179 191 196 201
284 279 282 272 259 251 260 255 250 240 232 236 220 217 214 208 206 219 226 219 216 212 212 212 210 203 205 209 202 201 204 207 204 203 210 198 187 191 202 188 194 195 194 193
277 269 275 275 256 251 249 244 250 245 231 228 234 228 226 229 214 228 225 221 221 219 212 211 209 210 206 203 209 212 211 208 199 206 201 201 206 208 204 198 205 209 208 202
276 280 273 274 261 259 261 258 257 253 239 233 228 231 233 226 233 219 231 228 220 228 228 224 223 229 220 212 204 202 211 205 205 197 200 201 190 191 200 202 220 218 217 213
273 274 265 273 261 253 250 247 252 254 251 253 239 230 224 227 224 222 240 227 233 225 221 222 215 213 214 221 215 213 216 214 213 206 213 208 201 202 199 216 215 215 209 207
269 266 271 258 256 254 251 243 248 244 241 221 252 241 241 231 227 228 224 228 232 230 227 233 232 223 223 225 124 224 221 217 141 213 204 204 162 203 208 205 215 215 215 211
223 268 269 267 260 257 255 247 249 244 242 102 246 110 250 250 251 259 248 241 241 239 238 233 237 238 133 233 237 230 225 225 224 225 224 222 222 215 228 217 214 218 212 213
271 260 253 264 263 268 263 273 256 247 238 244 256 251 255 264 251 244 245 264 263 231 236 257 257 257 254 248 241 225 231 230 228 227 223 223 222 230 224 219 223 215 208 204

GFSCGP_2pvu_pres_102.txt.gz
Presure
196 205 218 201 208 206 213 204 205 179 212 230 218 217 180 218 225 279 227 230 235 209 201 198 189 191 187 200 201 209 214 222 214 336 251 179 189 182 189 188 204 191 172 177
200 217 201 194 207 210 203 205 204 198 208 219 138 194 213 213 213 243 234 221 229 205 200 201 196 200 193 203 195 206 216 211 229 334 246 208 192 198 180 179 178 188 170 173
210 215 202 210 209 204 208 205 203 213 206 216 226 225 223 222 235 217 228 224 224 203 200 198 200 191 199 193 199 209 205 215 229 214 238 226 200 194 172 186 178 175 176 173
225 209 224 215 203 215 202 195 210 207 213 215 224 209 214 213 228 207 216 221 228 195 202 201 193 199 199 200 202 196 192 211 216 293 240 218 227 185 197 173 183 183 179 178
238 215 241 244 227 222 213 209 221 226 211 240 226 234 193 230 223 207 186 224 219 220 193 201 195 197 196 207 200 194 185 207 211 277 280 225 214 195 178 194 172 181 174 176
227 237 228 234 238 239 231 232 215 217 247 234 235 247 248 241 219 259 250 232 223 214 202 205 197 194 190 193 194 191 206 204 215 207 288 229 214 212 191 182 185 177 188 180
241 227 236 243 228 226 240 233 230 240 255 247 233 142 251 209 314 271 229 226 221 231 219 207 202 197 197 195 200 204 206 214 206 210 234 266 225 202 204 195 185 176 173 181
248 244 238 232 229 220 225 240 243 249 248 245 253 269 238 264 290 254 225 223 219 217 218 209 203 194 194 198 184 210 207 198 209 208 210 224 249 221 206 200 185 184 174 167
291 288 269 254 251 240 234 244 252 245 255 257 254 238 234 319 264 242 221 224 222 219 207 228 205 205 193 179 194 194 188 201 211 203 192 239 276 225 215 206 196 179 195 167
302 297 283 263 254 257 251 238 235 247 240 237 241 236 305 287 254 231 220 220 216 223 220 208 210 210 199 186 194 183 197 194 205 197 200 202 231 253 228 206 201 202 189 200
300 301 287 285 282 264 255 251 250 245 241 251 232 238 296 269 246 229 220 220 220 216 218 191 211 211 198 191 186 191 182 188 193 204 193 202 208 225 239 213 208 215 209 199
330 324 298 293 280 278 272 251 251 245 241 242 242 276 284 258 235 228 217 215 220 214 202 206 201 210 203 180 187 189 193 187 193 199 201 193 201 201 213 232 205 201 212 211
318 339 302 307 291 284 277 274 269 258 257 253 267 277 273 250 230 226 217 213 216 215 214 197 194 206 208 195 205 201 200 197 193 189 183 197 184 191 208 207 200 221 225 222
305 298 296 302 308 307 300 287 270 281 310 298 283 264 264 242 229 222 217 205 208 204 214 204 198 196 199 210 191 198 202 190 188 194 184 184 191 196 204 195 219 211 190 196
297 300 312 283 292 311 319 311 304 295 286 269 257 260 253 242 229 222 220 206 207 217 215 216 203 183 190 199 177 202 195 168 188 184 193 189 182 193 203 194 200 203 208 204
292 277 280 268 272 293 308 301 289 280 277 257 251 248 249 244 230 219 223 214 210 215 202 137 210 208 181 194 203 183 211 192 188 195 181 172 182 185 189 199 198 181 180 185
297 287 282 265 264 250 288 301 277 273 264 256 250 244 239 232 228 224 217 207 211 220 213 215 212 203 192 198 177 179 183 193 194 199 190 197 177 177 192 185 195 201 200 196
299 298 267 270 257 276 275 271 265 251 246 261 245 238 234 230 226 215 222 211 205 214 205 181 220 200 210 193 190 189 189 198 197 189 198 208 196 190 197 161 179 192 194 195
298 297 273 278 262 244 251 272 262 247 251 240 228 232 234 233 227 221 218 222 221 207 207 206 217 205 205 208 201 207 212 216 198 193 182 192 213 207 191 185 186 192 193 196
295 289 294 251 272 245 273 283 264 243 234 259 247 237 235 236 237 227 223 230 233 238 236 222 222 198 209 212 210 213 216 201 203 198 202 187 187 175 182 193 198 204 199 192
294 292 306 302 277 275 271 254 240 249 242 250 246 237 231 226 230 217 229 234 235 234 226 224 218 204 207 216 212 210 206 202 204 205 204 196 196 199 204 199 199 197 210 210
303 295 306 280 253 237 275 263 253 237 257 248 241 238 231 226 232 222 233 232 229 226 224 219 214 213 219 226 224 215 216 214 204 197 202 196 192 196 197 195 204 196 211 191
298 297 298 271 267 296 262 268 265 253 245 233 246 241 235 231 234 228 220 221 218 214 214 212 217 226 231 228 221 221 222 221 214 208 206 204 205 206 197 202 198 207 198 206
306 302 286 263 269 277 290 259 256 253 247 240 238 240 237 223 224 224 226 224 223 223 222 224 226 230 231 228 224 224 222 223 219 221 221 212 214 211 209 211 205 205 204 209
303 296 276 268 267 284 267 280 257 148 254 232 238 247 243 234 227 226 225 233 230 229 227 227 229 230 231 201 236 235 216 228 225 226 224 221 216 217 216 215 215 215 214 217
316 292 269 264 263 266 270 275 266 253 235 248 259 180 244 239 237 235 235 234 234 235 235 233 225 234 241 242 241 238 238 239 237 233 235 235 234 229 220 220 223 221 217 220

GFSCGP_2pvu_pres_108.txt.gz
Presure
242 209 223 217 212 205 218 195 196 180 185 193 203 189 198 197 196 209 202 160 211 215 198 184 189 239 213 251 275 228 216 202 187 201 202 214 208 210 219 207 222 209 228 213
237 234 110 239 207 211 213 208 205 195 203 209 197 186 203 194 197 194 206 201 211 202 196 194 188 221 220 238 265 217 216 206 187 200 201 210 210 205 226 204 215 206 193 195
226 220 219 230 240 233 207 201 202 208 211 208 204 152 203 210 204 197 138 83 150 211 215 190 215 209 229 232 245 220 213 198 196 201 210 204 218 224 229 216 207 191 201 197
237 237 229 225 216 214 236 228 226 212 204 198 201 206 209 203 203 200 204 199 208 219 200 211 205 195 234 244 238 220 209 204 197 201 213 195 204 244 215 222 200 202 196 203
218 262 260 254 236 233 231 231 236 236 238 229 219 215 205 211 198 204 205 208 219 212 231 221 192 191 225 242 253 209 209 198 203 202 203 199 214 248 231 218 205 199 196 187
251 251 263 255 246 249 243 233 233 237 238 237 233 234 226 219 222 221 221 237 228 237 190 223 205 222 246 254 246 206 207 205 200 200 201 207 215 233 228 217 216 197 195 191
192 268 264 256 258 254 248 245 242 241 238 244 242 238 143 231 221 228 216 227 248 237 228 224 223 239 250 242 241 199 216 203 197 196 206 204 217 224 315 218 211 210 196 185
263 251 260 256 250 246 239 244 248 246 252 251 247 130 78 232 101 92 104 243 234 234 224 242 236 246 257 230 226 208 214 204 196 195 203 223 206 225 318 224 210 205 204 206
295 285 259 257 247 252 243 249 238 240 245 248 252 247 244 202 150 80 101 235 217 241 245 249 256 252 237 251 206 219 216 208 196 194 203 201 217 216 256 237 205 205 203 197
351 332 310 267 255 252 246 242 236 238 239 245 247 237 231 223 226 243 240 238 239 245 250 246 245 239 230 234 215 211 212 210 202 191 185 206 201 205 226 258 212 195 199 198
339 353 329 321 318 270 253 250 247 246 241 242 241 234 230 230 226 232 237 244 236 247 236 237 267 270 248 223 234 209 200 200 201 191 189 191 213 210 212 262 220 197 191 192
343 366 372 332 315 328 327 303 283 255 249 252 247 241 227 229 226 229 248 244 245 234 238 243 280 245 243 223 219 223 211 204 196 190 193 187 179 193 208 208 252 217 200 192
343 341 385 325 320 314 309 312 299 293 280 269 252 234 241 238 238 252 255 239 238 236 234 276 254 211 243 235 214 227 215 212 203 194 198 195 182 199 195 206 206 235 222 189
285 325 322 328 318 304 315 313 302 296 290 281 276 263 252 252 257 256 250 240 239 230 249 295 240 234 221 225 221 210 201 212 215 201 194 191 198 191 200 193 195 195 203 222
248 293 314 331 317 324 302 299 295 298 297 291 282 275 274 272 266 254 243 242 239 226 271 261 242 232 220 211 213 215 225 212 209 205 194 179 187 191 194 197 197 195 195 193
302 306 315 328 327 321 290 295 286 297 293 313 298 282 282 270 264 251 248 234 230 232 274 249 240 223 217 209 203 211 217 202 202 207 201 184 187 191 197 190 162 199 192 189
292 289 288 285 290 354 315 306 298 317 331 306 287 283 278 270 265 266 257 233 227 245 253 237 225 222 212 212 203 204 214 214 193 199 185 184 193 186 209 200 203 187 183 190
296 283 281 279 292 295 310 301 299 293 295 285 306 304 292 286 275 262 249 242 231 262 246 240 227 231 221 207 204 209 213 213 210 206 199 197 207 203 207 203 202 191 198 192
289 281 280 278 288 297 319 331 318 298 310 299 294 295 296 284 281 267 261 250 273 234 236 228 234 237 220 211 206 206 215 207 191 202 194 184 207 212 193 208 220 201 195 195
284 281 283 277 289 285 292 290 288 295 285 308 322 282 283 277 277 263 255 279 276 234 233 245 221 231 221 217 211 211 211 215 203 194 201 188 206 197 208 209 186 184 190 185
287 288 290 283 301 285 292 274 286 285 289 289 285 279 276 265 260 265 284 278 262 230 235 227 241 225 229 215 219 204 203 207 206 207 203 206 202 211 205 185 208 205 199 197
303 312 290 291 291 297 291 296 272 257 278 282 274 270 282 286 279 270 264 269 248 238 229 232 225 225 226 225 216 200 204 190 207 189 210 214 208 197 195 198 209 198 202 195
325 315 325 298 278 292 292 286 267 281 278 272 269 269 274 275 259 257 245 247 250 241 226 227 229 230 230 234 230 219 215 205 191 212 195 204 217 214 214 196 199 200 203 197
302 286 312 304 284 297 297 254 264 290 270 274 267 267 268 273 254 255 247 248 250 250 236 234 234 233 223 222 232 207 220 226 205 193 200 203 204 203 199 196 193 199 203 201
300 301 291 318 299 286 258 265 282 271 249 268 268 269 266 268 260 257 244 247 244 243 228 243 238 246 233 228 219 223 223 225 201 207 199 194 197 203 221 215 212 212 207 209
323 325 313 301 291 293 284 269 263 245 283 265 266 265 262 268 265 257 248 241 246 239 232 230 228 225 233 233 229 221 222 221 216 207 215 231 237 243 213 212 211 213 213 211

GFSCGP_2pvu_pres_114.txt.gz
Presure
258 241 217 237 228 216 220 216 209 201 200 191 189 200 195 199 194 203 206 206 204 189 200 197 200 202 188 190 187 195 184 161 168 212 244 233 255 221 209 195 197 216 223 224
271 259 232 231 235 229 224 230 208 227 219 212 200 191 204 196 188 187 193 190 191 197 198 196 200 204 200 195 204 196 191 181 214 223 189 226 257 234 212 193 189 221 217 225
249 254 242 232 227 232 217 222 215 218 230 213 221 217 212 210 214 212 199 193 180 204 200 192 195 178 199 195 186 186 195 205 218 226 202 228 248 237 223 197 190 203 234 220
269 240 254 241 235 230 220 224 218 217 212 231 222 215 224 209 207 216 219 217 212 192 211 203 184 204 193 151 194 78 201 211 216 234 201 247 241 222 222 194 206 209 223 219
280 280 262 256 234 248 220 226 224 224 225 224 226 215 214 200 214 214 224 214 213 219 219 204 210 98 199 200 189 200 201 210 220 142 248 253 234 219 214 202 209 205 226 216
310 286 288 276 257 247 239 236 236 237 234 233 226 226 227 206 210 211 224 211 204 162 213 195 214 210 205 205 174 206 212 224 238 250 230 250 228 216 213 205 207 203 232 216
170 313 300 289 286 263 257 248 239 235 248 233 217 227 225 229 223 214 217 210 216 208 204 199 207 218 215 215 217 215 223 231 230 247 223 260 225 216 207 203 209 204 215 218
448 510 297 317 235 277 271 260 256 251 249 235 238 232 231 214 221 221 210 210 221 220 217 222 220 219 220 216 214 223 231 239 230 239 256 243 224 215 207 205 203 222 220 224
292 123 455 409 318 288 271 269 175 253 253 254 258 252 242 241 242 232 237 210 224 222 212 210 220 215 214 213 223 226 230 228 237 236 261 234 220 217 210 200 218 217 226 281
100 149 412 474 372 301 293 274 263 262 260 255 257 247 248 249 252 252 152 243 146 237 74 85 223 222 214 224 222 228 229 252 248 231 258 227 217 211 208 201 202 236 214 304
318 358 360 377 381 340 297 291 281 269 263 260 257 251 254 259 259 78 129 121 248 238 233 227 223 226 233 220 227 223 243 257 246 254 232 225 213 201 204 193 211 206 250 235
325 333 332 338 347 393 344 318 292 280 269 262 257 253 256 246 242 248 263 259 252 244 232 230 235 239 222 216 215 228 234 233 244 253 229 212 213 194 205 207 206 215 269 216
316 307 315 332 335 369 341 310 325 292 279 271 269 260 259 250 252 253 252 248 248 244 242 241 244 234 225 214 223 234 249 234 263 257 227 207 215 197 205 196 212 205 244 203
309 308 221 323 335 335 340 333 315 332 293 270 276 267 263 251 257 241 242 238 233 238 237 233 234 229 226 221 230 244 242 262 259 233 222 204 211 200 205 200 211 208 195 210
304 305 302 136 330 327 319 292 333 337 311 303 280 275 272 251 247 246 237 236 235 235 230 228 230 222 231 220 228 228 251 251 263 223 220 207 210 196 204 199 201 196 200 209
312 308 313 324 326 333 100 315 313 307 342 371 324 298 282 264 261 248 242 242 239 239 241 227 222 230 232 240 238 239 239 246 224 212 221 214 206 200 204 196 198 197 191 200
296 301 299 164 316 334 327 180 305 315 317 313 363 310 306 288 267 260 261 249 243 243 237 238 229 221 230 232 214 236 243 254 230 220 217 213 202 200 201 192 199 194 190 191
294 295 297 305 320 305 213 328 308 314 310 314 320 335 308 319 269 291 280 276 259 245 245 244 237 242 234 249 237 223 244 225 233 215 217 216 197 205 190 202 198 192 149 178
300 282 289 286 293 317 306 327 315 305 300 318 298 302 282 296 333 275 282 289 286 281 270 268 262 236 233 252 222 227 239 200 226 223 217 209 202 205 203 197 194 183 195 191
291 288 285 295 294 285 307 318 305 306 275 280 297 283 279 304 294 293 294 306 306 303 301 294 285 277 256 255 233 228 245 232 229 225 230 225 198 198 216 213 212 206 207 190
293 283 275 281 294 291 306 339 306 295 287 275 280 288 279 294 295 295 294 296 293 295 287 283 278 272 260 257 232 227 227 236 214 227 203 229 214 209 202 208 195 212 209 202
279 282 290 274 272 271 275 322 292 278 276 272 268 277 291 269 277 272 275 282 283 292 283 283 278 270 266 255 233 240 226 221 223 222 235 222 207 199 202 211 192 205 208 209
290 273 295 286 279 269 267 273 294 273 287 267 283 266 278 291 280 264 264 297 272 284 277 280 280 275 277 251 245 261 238 233 219 212 225 225 212 204 197 208 205 190 201 206
300 302 270 290 275 273 262 273 283 268 258 265 272 266 266 269 269 271 264 273 294 262 269 271 271 271 265 246 256 256 242 233 220 223 225 229 220 209 213 203 210 201 204 202
344 324 329 292 275 272 262 275 271 284 273 268 263 268 278 272 271 269 260 266 268 284 272 270 264 265 251 242 236 252 263 239 233 224 215 233 211 220 219 204 204 198 191 204
319 321 332 305 279 276 272 272 272 267 270 269 281 280 267 267 274 268 272 278 268 277 264 267 268 265 256 249 246 212 239 242 245 227 220 234 230 211 213 215 213 213 207 195

GFSCGP_2pvu_pres_117.txt.gz
Presure
292 282 290 270 271 240 235 222 227 208 211 223 221 209 193 203 190 188 77 204 202 200 184 191 195 191 192 191 194 194 195 167 200 203 210 188 198 172 226 233 235 207 203 209
281 291 261 272 267 272 280 229 216 222 216 214 219 217 211 204 195 193 189 189 164 180 195 172 193 190 189 189 200 191 195 192 194 183 183 213 176 232 223 235 246 217 204 195
291 281 276 262 262 260 268 270 221 225 228 224 225 224 207 208 207 193 194 194 191 187 186 155 195 184 193 187 184 196 173 187 180 205 180 179 194 220 249 197 262 210 203 193
309 309 288 273 260 261 256 260 251 229 240 220 219 226 217 218 209 213 205 210 209 209 207 205 202 196 195 201 193 200 201 178 198 205 198 193 211 221 248 246 244 228 206 203
324 302 307 311 282 260 264 263 263 242 243 225 231 219 211 218 216 211 221 219 218 223 216 213 222 209 213 205 205 201 203 207 201 207 202 203 213 222 179 249 236 213 204 203
232 285 300 315 332 283 258 252 263 261 254 245 217 222 213 216 212 210 209 204 210 215 215 213 213 213 203 212 208 213 217 202 212 209 212 212 224 223 252 221 234 212 203 203
468 527 419 193 291 336 183 268 257 255 265 256 202 233 209 211 217 210 216 210 174 213 207 208 201 210 212 217 214 132 209 203 212 210 208 219 228 235 250 155 235 213 201 204
439 452 432 448 489 327 324 296 276 263 262 242 254 241 227 215 218 217 212 212 128 216 217 217 212 209 213 219 207 214 205 199 211 216 217 226 222 237 242 250 233 222 208 204
426 390 394 375 468 484 299 309 303 277 263 252 246 86 245 230 225 220 216 218 222 218 222 217 214 216 220 215 211 223 193 211 214 217 219 217 237 238 232 257 227 218 195 209
381 366 236 367 419 302 279 317 295 79 271 264 253 240 239 196 249 239 84 213 219 230 213 219 224 212 212 217 219 217 217 219 218 218 215 221 237 236 228 248 227 213 194 210
351 346 339 326 327 354 442 459 269 176 293 227 266 246 233 230 238 239 239 238 232 229 82 228 222 229 152 225 221 210 218 217 215 215 217 229 231 248 247 242 224 213 195 209
323 328 321 307 304 336 364 433 397 309 279 297 272 271 251 247 248 242 246 245 240 95 234 232 239 239 102 230 225 226 218 213 218 215 229 235 242 233 246 235 214 205 193 197
318 317 328 327 312 301 332 388 402 351 295 287 281 263 260 265 265 254 248 244 247 239 236 238 247 255 255 244 234 227 222 221 216 228 230 227 237 248 237 227 209 209 202 198
316 313 309 310 313 301 327 348 381 385 323 284 284 275 251 274 260 260 210 253 254 247 255 255 247 235 247 239 233 229 224 220 227 228 230 225 233 258 235 215 206 204 209 203
310 306 304 298 292 229 288 321 333 365 338 307 287 270 266 274 266 222 254 245 246 246 242 239 249 248 246 235 234 232 231 234 231 223 229 250 245 256 229 210 203 205 193 204
327 304 305 316 303 216 299 300 298 312 345 305 311 290 280 278 264 262 250 243 237 251 249 246 246 244 239 240 239 234 239 229 198 235 252 268 255 243 229 206 203 201 197 204
307 317 320 324 305 307 288 283 235 150 303 351 363 324 302 270 272 232 262 248 240 239 256 246 239 235 230 229 237 240 231 212 228 228 258 253 239 227 218 204 211 201 197 205
293 306 296 318 304 300 285 287 285 136 187 316 289 322 306 295 247 193 256 277 243 246 259 241 238 235 233 229 233 238 231 225 224 244 251 240 226 221 213 205 210 198 193 199
287 293 297 297 289 316 285 289 282 289 115 288 301 282 271 271 323 228 229 259 255 250 252 255 248 240 234 224 230 237 232 231 240 247 236 239 224 222 213 203 208 196 198 201
292 283 281 291 283 304 320 306 294 292 289 307 280 279 284 280 332 327 305 287 264 261 266 268 245 246 241 237 234 226 235 225 247 243 250 227 224 222 206 203 211 201 198 192
301 277 271 279 275 283 284 299 321 307 260 280 279 262 254 287 276 301 285 283 298 281 268 273 285 287 253 251 235 242 236 221 241 214 213 201 213 197 210 215 208 198 204 202
297 285 276 272 287 280 291 316 322 259 254 271 253 278 264 263 286 272 286 300 306 296 291 283 286 295 290 268 249 245 251 244 220 218 206 207 206 208 222 213 206 211 196 196
297 288 296 278 279 281 287 299 291 274 254 250 241 263 283 272 266 267 308 295 297 287 296 287 291 294 296 300 300 294 268 252 246 224 215 198 205 199 204 228 207 211 203 192
321 296 284 286 283 268 271 300 288 262 256 255 253 263 272 282 264 281 268 282 276 270 280 287 297 295 287 284 285 284 291 265 253 226 213 210 217 222 211 220 221 215 213 219
324 307 290 293 273 256 266 287 290 267 259 254 259 251 259 277 267 263 271 265 265 277 285 272 288 289 287 283 279 275 278 270 259 236 222 215 221 218 212 221 219 226 215 213
350 314 323 291 275 262 264 270 270 267 255 258 266 259 267 266 263 268 264 262 255 261 271 284 265 273 272 277 279 280 261 276 254 236 228 226 210 212 210 209 209 209 205 223

GFSCGP_2pvu_pres_120.txt.gz
Presure
260 266 280 288 331 330 297 282 308 297 314 248 245 238 233 218 217 165 191 206 204 200 201 191 201 197 201 182 184 195 188 185 193 183 180 196 167 193 211 190 176 220 230 259
258 265 276 294 323 330 302 279 285 289 285 243 239 240 231 223 206 203 199 179 196 206 200 203 195 189 156 197 188 191 192 188 189 183 193 194 181 186 206 159 156 182 226 257
246 272 270 309 324 326 316 288 279 281 277 273 274 265 236 231 214 198 189 201 195 195 200 130 180 188 196 195 193 186 189 184 192 199 194 201 174 198 172 203 191 211 223 191
273 271 325 320 269 330 342 299 278 280 229 267 264 243 235 218 221 208 200 202 209 199 197 198 198 192 192 185 184 180 189 188 189 198 180 193 175 203 203 216 123 206 220 249
274 328 318 314 315 302 319 362 294 275 279 265 280 76 221 215 217 211 205 199 200 214 207 201 203 194 198 192 186 198 184 172 179 185 203 201 201 202 206 217 227 226 223 255
297 311 333 406 425 399 334 310 364 286 268 279 267 265 255 259 224 227 212 208 206 208 212 212 199 203 210 209 211 204 208 204 194 209 203 201 198 89 210 190 223 202 228 249
320 346 483 489 469 471 491 241 307 349 281 279 71 176 252 245 235 228 231 221 217 209 209 210 214 209 205 211 204 215 213 210 206 213 204 214 206 212 201 220 224 224 233 245
354 489 416 402 409 427 427 477 418 297 343 282 265 263 122 124 238 233 230 234 231 209 208 209 211 208 209 216 202 204 211 213 118 84 203 208 221 209 214 221 215 226 240 234
354 443 412 387 381 382 409 442 467 345 287 336 261 269 96 151 231 232 236 237 225 220 214 210 210 210 198 208 197 205 218 218 217 213 202 222 208 221 197 206 220 224 241 226
375 419 361 332 342 303 366 399 418 435 328 311 80 261 253 250 238 235 244 237 237 220 206 203 207 209 211 212 213 212 222 215 215 216 209 194 222 201 207 209 227 235 232 234
429 391 334 326 315 87 345 253 370 398 438 279 235 261 243 246 240 240 236 236 220 228 230 226 215 205 207 210 212 216 220 217 215 214 223 201 211 214 221 212 220 232 233 216
405 373 329 101 306 310 320 337 353 399 417 284 197 84 245 246 249 256 259 243 232 240 231 231 216 91 219 223 184 88 231 215 225 206 212 223 199 215 228 223 228 232 250 246
353 351 323 315 303 300 301 316 329 422 385 370 278 301 280 248 243 248 245 243 245 249 245 242 244 242 236 232 233 236 234 235 223 231 224 223 217 193 217 221 232 245 249 248
360 365 344 311 301 252 295 314 319 397 377 373 332 273 289 271 244 222 229 221 219 216 213 230 230 228 230 227 228 226 105 237 238 229 209 224 218 224 226 225 239 245 250 245
353 367 319 330 291 280 294 307 304 345 379 355 381 283 270 291 276 220 199 285 186 209 213 222 243 244 242 230 226 229 236 242 243 232 228 225 193 221 233 238 218 234 240 239
344 359 319 298 294 278 288 283 288 311 347 319 343 357 278 293 273 246 219 318 247 239 214 156 224 244 251 244 255 240 267 252 247 235 233 227 222 225 220 215 242 246 232 235
331 325 315 306 282 275 153 271 264 275 308 346 319 338 274 276 233 227 205 209 240 243 236 224 218 217 227 248 248 247 245 236 239 233 228 226 227 217 235 238 243 246 227 234
324 314 319 312 299 276 267 274 271 268 280 101 329 320 328 281 253 205 200 206 215 234 249 216 222 223 228 241 240 242 242 240 236 201 228 231 206 237 242 245 251 243 223 222
323 317 305 310 295 273 270 272 268 281 264 268 266 322 313 321 268 219 222 212 191 213 223 241 283 249 251 254 238 238 240 236 243 234 233 232 239 237 231 229 244 237 224 215
317 300 300 301 293 277 279 282 275 281 278 274 273 230 264 297 303 254 220 234 232 210 236 227 244 282 250 261 247 237 235 235 232 232 240 236 230 226 246 245 235 228 218 215
313 300 296 286 290 290 276 279 281 275 266 275 270 264 266 258 269 274 283 234 235 214 222 254 267 269 294 256 251 237 228 229 234 235 230 228 229 232 247 226 226 225 223 220
319 302 285 291 291 284 294 270 273 271 270 289 275 269 250 263 259 268 275 301 250 259 259 234 238 244 269 259 257 247 235 236 224 237 236 238 245 246 221 222 217 221 211 220
319 306 282 280 268 276 288 303 277 264 261 258 249 247 260 257 255 267 286 272 315 257 246 243 244 252 273 285 269 251 243 242 239 232 240 230 244 236 211 211 203 215 195 207
330 319 285 292 283 269 279 283 319 264 248 253 263 264 246 251 269 259 279 278 284 297 310 297 290 291 298 304 266 274 285 253 249 244 237 209 226 203 189 200 200 212 213 193
354 328 297 290 282 284 279 310 277 267 254 256 258 247 257 262 259 282 264 267 276 272 288 301 303 288 296 301 311 298 295 313 260 256 265 229 220 213 220 214 202 216 202 206
375 334 303 293 290 270 289 291 255 267 256 257 245 254 256 255 261 277 276 284 283 270 284 270 282 281 290 285 295 285 287 295 305 312 256 243 236 206 194 222 219 199 199 207

GFSCGP_2pvu_pres_123.txt.gz
Presure
212 243 245 256 272 288 264 291 273 311 306 338 320 314 338 287 267 253 250 215 214 207 185 195 201 181 212 201 193 209 177 196 187 191 189 193 171 180 191 202 204 200 192 215
235 260 280 284 266 270 273 266 304 312 345 334 318 303 328 264 278 254 251 225 218 106 221 186 203 208 201 184 199 198 196 182 200 204 199 190 189 187 172 197 192 193 203 213
251 268 267 260 241 250 253 291 300 341 347 356 329 306 196 304 307 259 257 242 224 206 200 197 202 213 213 205 196 183 179 208 194 185 169 200 186 190 189 198 193 176 198 211
260 259 253 227 241 241 275 296 309 315 307 344 229 134 301 292 293 254 258 246 230 210 206 198 200 206 200 194 200 209 193 193 191 185 187 180 177 184 198 193 140 182 168 207
240 242 218 241 248 302 302 370 432 432 378 346 333 67 288 279 279 259 245 245 228 213 210 212 199 200 200 190 194 192 202 193 176 185 182 184 185 193 180 181 177 198 206 207
244 237 237 258 299 337 465 172 467 503 479 380 325 365 286 279 271 270 276 241 235 224 220 211 207 202 203 203 197 193 194 193 193 191 182 190 188 189 192 194 194 127 207 210
209 241 277 280 303 398 432 405 417 430 448 515 372 327 287 267 267 256 262 271 240 232 222 227 209 200 198 198 200 193 188 189 191 187 187 190 196 189 200 199 215 209 188 215
247 266 280 280 446 397 375 381 390 384 405 463 469 159 278 237 254 251 247 255 224 262 226 234 217 208 206 190 194 200 192 195 198 201 202 208 211 206 205 204 203 202 217 222
296 283 284 319 363 361 364 363 349 394 424 443 476 294 287 147 229 254 268 250 233 266 227 216 213 231 204 203 197 194 207 203 202 196 188 206 200 204 219 200 198 214 206 194
294 279 287 374 349 335 343 333 336 111 377 445 382 320 277 187 258 98 186 256 256 253 258 244 213 217 227 206 210 201 211 204 205 201 202 199 200 204 212 217 211 220 194 212
289 267 337 358 343 327 327 321 324 274 345 313 443 258 331 258 139 257 263 253 251 249 240 227 236 223 222 230 231 208 212 209 209 211 193 204 193 219 223 212 222 224 198 208
141 322 414 355 333 325 315 308 328 323 332 381 266 300 309 260 253 254 262 261 226 234 226 231 234 226 213 210 226 220 211 203 203 206 202 204 208 206 213 213 216 204 203 212
279 324 383 335 323 312 308 298 299 323 353 381 395 290 97 284 256 237 358 240 227 218 222 213 215 217 122 169 115 204 204 204 205 205 209 210 209 223 234 223 223 199 224 212
301 392 416 336 313 145 306 299 305 329 352 385 355 301 252 302 257 260 226 185 244 226 232 231 230 191 184 216 206 207 213 211 212 212 213 224 240 240 229 214 215 226 230 221
302 417 396 341 306 303 288 286 299 320 333 356 297 307 276 297 267 247 244 212 231 225 224 220 225 228 192 202 241 231 220 218 223 225 232 230 232 237 241 236 235 182 222 226
329 372 388 359 291 296 291 293 284 280 313 357 350 311 340 267 298 242 235 208 215 230 230 227 254 228 218 218 240 230 241 239 230 227 225 224 224 231 232 236 226 228 184 228
376 403 376 330 292 281 281 276 277 240 228 316 324 312 324 253 289 262 227 225 216 208 220 225 222 103 191 233 220 218 220 225 226 221 223 226 226 230 243 231 191 231 231 222
364 380 361 306 289 284 279 279 184 191 278 286 317 301 334 270 270 266 255 191 215 217 182 208 207 231 231 232 215 216 220 236 246 254 245 237 241 254 248 234 221 203 217 230
350 359 341 304 290 279 271 269 268 268 271 281 300 307 333 384 253 278 252 223 223 211 205 210 206 225 158 237 225 219 232 231 232 253 255 248 251 241 233 228 234 224 214 241
341 336 342 302 288 281 277 273 272 270 265 276 288 312 120 323 254 260 249 234 216 228 210 205 168 220 237 257 261 254 262 214 222 228 242 237 236 237 232 234 226 229 217 240
326 345 329 325 292 284 274 273 271 263 267 287 302 327 285 318 271 275 242 242 236 237 181 232 200 200 231 229 247 243 229 235 228 237 249 235 234 237 235 212 217 224 244 239
309 342 321 323 304 284 285 277 274 261 260 273 273 289 278 303 272 281 246 229 244 187 227 217 261 233 202 253 229 234 236 263 252 247 249 238 230 229 235 240 239 234 238 235
307 336 320 314 311 310 281 286 283 267 265 256 255 267 284 278 288 256 274 243 234 228 234 239 192 238 247 225 238 246 225 238 255 262 248 246 236 230 232 241 193 235 226 228
305 331 320 308 312 303 272 271 274 274 258 253 264 260 256 262 271 279 276 260 269 246 221 226 158 232 247 259 245 223 240 243 307 263 254 245 243 213 231 226 233 223 225 225
318 401 312 313 309 281 300 281 273 265 268 269 271 256 256 259 259 269 284 280 244 239 238 241 244 252 249 260 253 247 248 238 243 251 260 250 232 240 228 238 246 237 222 224
372 374 332 311 295 290 279 287 271 274 244 267 274 268 263 256 253 253 265 268 276 285 288 263 291 294 267 265 265 265 266 266 257 304 316 264 242 247 239 232 235 201 220 218

GFSCGP_2pvu_pres_126.txt.gz
Presure
205 213 226 252 255 249 259 266 267 270 59 84 250 256 254 262 305 297 369 365 294 274 193 253 246 213 194 208 205 197 194 175 186 84 116 187 150 186 191 186 183 192 192 172
240 249 242 225 245 255 235 253 255 271 259 242 154 295 330 316 320 329 351 344 321 289 273 261 226 224 206 211 199 212 200 146 104 85 185 163 190 177 189 183 191 190 189 187
210 216 210 252 247 252 220 233 237 254 247 287 307 324 324 331 326 341 345 328 325 289 280 262 244 219 212 202 189 209 196 177 191 183 192 179 191 176 181 159 194 178 195 173
205 225 226 215 238 244 223 228 243 320 329 329 325 316 541 357 331 329 338 305 314 347 274 258 229 229 218 188 163 160 205 183 190 197 199 200 197 195 181 193 195 202 189 215
211 185 220 227 232 246 234 251 326 320 324 443 480 441 533 579 410 311 334 285 301 333 264 259 231 231 222 210 201 222 191 208 191 201 196 178 184 181 180 178 200 187 182 186
215 211 230 230 254 262 252 321 166 398 404 429 234 415 72 77 380 334 289 284 295 318 281 262 237 233 232 223 202 214 216 196 196 204 189 209 192 189 184 201 187 183 196 202
210 182 233 244 253 257 311 313 383 389 379 380 430 439 474 220 322 305 286 304 297 299 251 269 248 243 239 225 216 209 189 194 201 186 191 190 183 202 195 201 197 191 180 193
217 215 240 251 248 286 286 380 366 381 360 376 386 453 86 313 349 287 285 289 290 292 314 257 239 234 234 223 215 204 198 203 194 199 196 188 193 204 201 160 191 190 187 198
227 164 248 276 294 196 337 363 366 354 344 352 386 210 466 268 302 288 287 283 289 287 289 260 232 239 231 225 216 203 202 211 200 198 205 200 194 189 201 185 186 195 204 209
233 196 233 290 306 119 259 347 342 350 348 381 377 454 283 314 310 283 271 290 243 241 285 291 232 242 222 232 216 202 209 201 202 191 188 179 199 202 188 188 203 197 191 202
238 262 272 301 291 280 269 332 330 157 345 363 330 380 301 309 313 280 205 273 222 229 235 248 199 233 208 220 219 210 205 208 202 210 199 190 188 186 187 188 191 212 205 202
248 263 292 284 283 362 343 330 311 248 342 366 344 340 288 307 314 262 85 255 241 210 238 227 238 228 235 231 211 215 220 210 201 197 197 200 191 192 215 214 208 203 208 206
265 273 300 275 343 368 334 312 322 335 349 335 339 332 275 304 320 152 243 254 237 234 215 236 235 218 209 229 246 232 225 212 210 212 205 198 197 206 204 206 206 190 209 203
274 297 282 306 382 338 321 312 315 234 333 324 329 319 270 308 337 261 223 229 236 237 228 246 241 245 234 221 224 220 214 181 140 217 203 226 210 221 202 208 209 193 194 200
297 289 268 303 243 334 303 295 301 307 338 312 314 304 272 311 284 248 227 220 233 223 232 234 236 230 234 226 224 220 223 220 221 219 218 226 222 207 212 206 199 198 201 222
291 264 293 312 394 325 302 291 290 295 325 315 297 311 289 279 284 243 225 225 231 225 234 235 216 229 226 227 218 228 231 228 220 215 204 201 189 102 224 216 210 222 228 232
269 266 302 393 371 316 302 301 293 296 304 329 313 304 291 256 279 243 230 239 235 239 230 217 221 224 218 224 214 211 211 209 226 228 231 212 212 220 227 223 230 238 225 222
258 283 298 390 359 317 303 290 294 286 284 303 274 306 302 272 276 248 231 230 237 234 238 233 233 239 238 226 230 225 233 215 202 209 206 225 242 234 237 244 232 226 225 225
282 288 398 383 354 303 293 293 278 292 280 299 307 281 305 290 244 277 239 227 221 218 236 225 214 235 230 182 229 227 225 226 224 223 214 225 219 231 224 224 227 228 232 224
268 304 384 381 344 311 306 295 281 278 275 282 302 300 292 313 254 264 250 235 233 225 228 223 233 229 239 239 236 237 223 239 253 223 219 245 221 231 243 270 263 259 261 266
291 298 360 352 337 310 308 281 286 273 277 293 288 293 298 307 270 263 259 247 232 235 235 235 223 196 174 225 237 235 160 236 229 193 227 219 226 230 217 247 254 257 250 244
284 381 356 341 346 309 306 286 277 279 275 275 278 286 321 307 297 254 159 250 246 238 242 226 228 246 235 211 182 225 222 221 265 254 237 235 238 238 227 221 236 245 241 229
276 374 341 351 302 314 291 285 279 268 271 271 279 285 298 289 339 261 249 236 218 189 240 234 234 208 205 238 211 193 201 155 241 257 265 262 252 229 226 247 241 242 237 235
337 359 342 405 299 329 297 285 278 272 268 268 287 285 291 275 314 270 254 246 257 253 247 246 248 243 165 224 228 264 220 210 230 234 246 251 241 239 255 254 241 234 238 236
358 357 357 361 334 309 316 289 274 271 269 263 267 265 274 272 288 298 260 243 252 234 250 218 237 246 244 214 240 245 239 225 254 252 250 232 229 241 265 247 242 247 240 238
354 382 352 307 303 317 309 318 285 280 270 260 260 270 275 273 272 278 283 255 254 240 248 241 242 243 253 228 258 239 222 237 246 219 237 238 247 237 262 255 254 245 240 214

GFSCGP_2pvu_pres_129.txt.gz
Presure
209 213 202 211 206 217 241 214 236 230 210 184 250 229 248 193 220 243 243 240 235 245 261 272 285 292 293 258 224 170 89 199 189 214 206 201 172 189 187 165 172 183 163 181
213 214 202 225 158 211 208 232 236 237 205 209 114 284 298 240 79 291 322 320 250 236 246 252 263 287 290 275 224 210 213 190 179 194 186 197 189 171 159 183 184 189 182 181
223 218 212 238 230 222 209 220 240 232 210 226 257 66 329 333 322 331 328 328 318 308 301 301 299 288 296 295 229 222 209 200 206 180 200 205 149 195 186 191 189 161 190 161
230 220 199 222 225 225 208 216 237 216 236 265 271 161 345 441 477 497 507 424 329 310 302 308 361 356 295 305 250 230 210 213 198 200 198 198 191 195 182 175 178 177 177 184
197 185 226 223 226 215 227 221 68 209 249 354 326 325 98 179 406 403 181 507 538 342 305 318 355 345 338 297 246 223 227 143 201 209 183 179 181 185 197 179 185 180 185 186
225 220 223 223 217 217 215 232 239 248 270 338 366 371 79 344 221 94 414 607 617 363 321 353 346 329 348 338 252 257 203 120 205 154 200 191 198 175 172 196 178 197 193 185
218 219 219 225 203 232 237 243 255 261 344 340 378 378 199 480 482 435 517 526 398 326 345 347 337 332 348 279 254 257 229 214 205 202 205 209 197 197 197 177 188 196 181 179
210 209 206 217 230 235 234 246 245 317 335 408 371 361 380 413 85 360 409 373 327 342 347 329 318 347 353 283 263 247 223 213 206 198 199 206 185 193 193 226 190 192 175 189
211 204 210 227 248 155 220 238 267 326 373 375 363 384 408 392 358 340 304 332 234 322 315 302 309 338 306 269 262 241 226 217 213 204 183 191 217 199 183 178 219 219 192 180
210 212 106 241 233 239 238 260 320 223 359 309 356 398 425 180 321 116 341 335 313 303 293 303 336 313 286 269 253 234 216 221 220 195 206 237 191 174 167 171 180 190 190 200
237 223 225 228 219 237 248 313 245 87 80 358 391 390 334 310 304 321 305 255 259 250 249 251 255 267 275 276 245 225 224 224 221 221 199 169 204 221 227 205 178 204 194 195
225 219 226 89 230 249 306 302 329 346 348 337 366 376 66 71 94 302 255 195 233 230 247 227 234 241 230 250 248 234 219 209 208 199 194 206 185 182 181 182 201 202 195 204
219 224 227 231 227 287 294 293 375 302 328 335 357 358 308 292 309 291 252 241 233 233 221 230 237 235 223 232 232 244 229 220 215 214 210 206 200 197 191 195 189 185 204 204
226 218 228 253 279 296 283 353 351 330 337 338 358 333 297 191 291 282 242 247 235 229 220 207 233 238 239 220 224 221 234 235 227 228 172 213 210 194 209 198 197 193 189 188
225 228 230 280 306 288 281 367 335 308 324 350 362 307 292 286 284 273 234 243 239 225 217 205 234 235 231 250 253 218 229 225 217 222 220 213 212 206 210 207 192 191 194 193
231 228 264 277 289 273 313 351 321 315 316 343 325 297 285 297 273 267 258 251 228 226 214 221 226 213 233 233 231 238 243 225 219 215 226 219 216 205 201 212 211 200 204 199
262 261 256 289 267 267 305 341 321 311 293 336 315 301 275 297 265 255 250 256 232 230 213 221 221 223 234 228 226 229 235 229 224 227 220 215 212 211 209 207 206 210 216 198
257 257 280 278 265 293 379 336 314 319 305 323 295 309 291 261 268 254 243 234 255 244 246 245 231 237 223 236 178 231 224 214 212 237 226 172 235 246 213 207 210 212 230 226
253 282 276 263 285 292 374 363 317 306 305 309 293 287 288 295 276 258 245 233 240 234 247 225 235 233 236 245 239 237 235 213 223 226 222 221 167 233 230 225 226 218 212 235
264 281 261 260 285 278 375 365 314 300 295 275 314 294 262 282 278 256 239 235 233 237 238 228 235 232 245 238 237 232 216 210 225 228 221 232 229 236 222 223 240 237 216 218
272 266 257 284 287 274 362 352 319 292 290 285 302 289 312 264 258 261 226 242 234 229 237 225 240 199 231 247 249 231 228 228 231 234 160 228 215 219 222 207 206 213 241 232
269 265 249 281 288 313 356 346 331 292 288 288 291 302 293 292 256 248 253 234 238 104 241 235 237 247 238 246 210 215 208 203 232 229 228 236 230 238 231 228 221 221 239 209
255 263 274 279 277 373 349 344 337 287 284 288 285 286 298 304 287 249 234 240 245 245 233 238 233 228 196 210 231 157 215 229 240 252 249 197 237 234 241 214 237 215 215 227
269 272 281 267 314 376 347 326 329 297 281 279 265 277 296 299 297 321 255 236 233 228 226 228 237 238 235 234 227 247 177 246 212 176 230 236 241 242 230 248 251 237 241 235
269 268 272 282 367 351 343 333 318 316 274 280 267 273 273 290 295 300 296 254 245 242 232 228 238 219 220 228 209 246 228 181 236 229 212 227 237 233 239 218 258 255 252 253
274 270 281 369 363 374 350 398 279 333 295 281 265 268 282 278 303 282 297 276 268 269 251 240 247 246 247 236 221 212 235 237 239 240 240 212 206 213 226 229 239 215 225 225